[[{"header":{"parameterUnit":"m.s-1","parameterCategory":1,"la1":31.0,"la2":29.5877,"lo1":-88.7671,"lo2":-86.6584,"dy":0.0162,"dx":0.0185,"nx":115,"ny":88,"refTime":"2023-06-18T18:00:00:Z","depth":0,"parameterNumber":2,"parameterNumberName":"U-component_of_WINDS"},"data":[0.0,0.0,0.0,0.0,0.0,0.0,0.0,0.0,0.0,0.0,0.0,0.0,0.0,0.0,0.0,0.0,0.0,0.0,0.0,0.0,0.0,0.0,0.0,0.0,0.0,0.0,0.0,0.0,0.0,0.0,0.0,0.0,0.0,0.0,0.0,0.0,0.0,0.0,0.0,0.0,0.0,0.0,0.0,0.0,0.0,0.0,0.0,0.0,0.0,0.0,0.0,0.0,0.0,0.0,0.0,0.0,0.0,0.0,0.0,0.0,0.0,0.0,0.0,0.0,0.0,0.0,0.0,0.0,0.0,0.0,0.0,0.0,0.0,0.0,0.0,0.0,0.0,0.0,0.0,0.0,0.0,0.0,0.0,0.0,0.0,0.0,0.0,0.0,0.0,0.0,0.0,0.0,0.0,0.0,0.0,0.0,0.0,0.0,0.0,0.0,0.0,0.0,0.0,0.0,0.0,0.0,0.0,0.0,0.0,0.0,0.0,0.0,0.0,0.0,0.0,0.0,0.0,0.0,0.0,0.0,0.0,0.0,0.0,0.0,0.0,0.0,0.0,0.0,0.0,0.0,0.0,0.0,0.0,0.0,0.0,0.0,0.0,0.0,0.0,0.0,0.0,0.0,0.0,0.0,0.0,0.0,0.0,0.0,0.0,0.0,0.0,0.0,0.0,0.0,0.0,0.0,0.0,0.0,0.0,0.0,0.0,0.0,0.0,0.0,0.0,0.0,0.0,0.0,0.0,0.0,0.0,0.0,0.0,0.0,0.0,0.0,0.0,0.0,0.0,0.0,0.0,0.0,0.0,0.0,0.0,0.0,0.0,0.0,0.0,0.0,0.0,0.0,0.0,0.0,0.0,0.0,0.0,0.0,0.0,0.0,0.0,0.0,0.0,0.0,0.0,0.0,0.0,0.0,0.0,0.0,0.0,0.0,0.0,0.0,0.0,0.0,0.0,0.0,0.0,0.0,0.0,0.0,0.0,0.0,0.0,0.0,0.0,0.0,0.0,0.0,0.0,0.0,0.0,0.0,0.0,0.0,0.0,0.0,0.0,0.0,0.0,0.0,0.0,0.0,0.0,0.0,0.0,0.0,0.0,0.0,0.0,0.0,0.0,0.0,0.0,0.0,0.0,0.0,0.0,0.0,0.0,0.0,0.0,0.0,0.0,0.0,0.0,0.0,0.0,0.0,0.0,0.0,0.0,0.0,0.0,0.0,0.0,0.0,0.0,0.0,0.0,0.0,0.0,0.0,0.0,0.0,0.0,0.0,0.0,0.0,0.0,0.0,0.0,0.0,0.0,0.0,0.0,0.0,0.0,0.0,0.0,0.0,0.0,0.0,0.0,0.0,0.0,0.0,0.0,0.0,0.0,0.0,0.0,0.0,0.0,0.0,0.0,0.0,0.0,0.0,0.0,0.0,0.0,0.0,0.0,0.0,0.0,0.0,0.0,0.0,0.0,0.0,0.0,0.0,0.0,0.0,0.0,0.0,0.0,0.0,0.0,0.0,0.0,0.0,0.0,0.0,0.0,0.0,0.0,0.0,0.0,0.0,0.0,0.0,0.0,0.0,0.0,0.0,0.0,0.0,0.0,0.0,0.0,0.0,0.0,0.0,0.0,0.0,0.0,0.0,0.0,0.0,0.0,0.0,0.0,0.0,0.0,0.0,0.0,0.0,0.0,0.0,0.0,0.0,0.0,0.0,0.0,0.0,0.0,0.0,0.0,0.0,0.0,0.0,0.0,0.0,0.0,0.0,0.0,0.0,0.0,0.0,0.0,0.0,0.0,0.0,0.0,0.0,0.0,0.0,0.0,0.0,0.0,0.0,0.0,0.0,0.0,0.0,0.0,0.0,0.0,0.0,0.0,0.0,0.0,0.0,0.0,0.0,0.0,0.0,0.0,0.0,0.0,0.0,0.0,0.0,0.0,0.0,0.0,0.0,0.0,0.0,0.0,0.0,0.0,0.0,0.0,0.0,0.0,0.0,0.0,0.0,0.0,0.0,0.0,0.0,0.0,0.0,0.0,0.0,0.0,0.0,0.0,0.0,0.0,0.0,0.0,0.0,0.0,0.0,0.0,0.0,0.0,0.0,0.0,0.0,0.0,0.0,0.0,0.0,0.0,0.0,0.0,0.0,0.0,0.0,0.0,0.0,0.0,0.0,0.0,0.0,0.0,0.0,0.0,0.0,0.0,0.0,0.0,0.0,0.0,0.0,0.0,0.0,0.0,0.0,0.0,0.0,0.0,0.0,0.0,0.0,0.0,0.0,0.0,0.0,0.0,0.0,0.0,0.0,0.0,0.0,0.0,0.0,0.0,0.0,0.0,0.0,0.0,0.0,0.0,0.0,0.0,0.0,0.0,0.0,0.0,0.0,0.0,0.0,0.0,0.0,0.0,0.0,0.0,0.0,0.0,0.0,0.0,0.0,0.0,0.0,0.0,0.0,0.0,0.0,0.0,0.0,0.0,0.0,0.0,0.0,0.0,0.0,0.0,0.0,0.0,0.0,0.0,0.0,0.0,0.0,0.0,0.0,0.0,0.0,0.0,0.0,0.0,0.0,0.0,0.0,0.0,0.0,0.0,0.0,0.0,0.0,0.0,0.0,0.0,0.0,0.0,0.0,0.0,0.0,0.0,0.0,0.0,0.0,0.0,0.0,0.0,0.0,0.0,0.0,0.0,0.0,0.0,0.0,0.0,0.0,0.0,0.0,0.0,0.0,0.0,0.0,0.0,0.0,0.0,0.0,0.0,0.0,0.0,0.0,0.0,0.0,0.0,0.0,0.0,0.0,0.0,0.0,0.0,0.0,0.0,0.0,0.0,0.0,0.0,0.0,0.0,0.0,0.0,0.0,0.0,0.0,0.0,0.0,0.0,0.0,0.0,0.0,0.0,0.0,0.0,0.0,0.0,0.0,0.0,0.0,0.0,0.0,0.0,0.0,0.0,0.0,0.0,0.0,0.0,0.0,0.0,0.0,0.0,0.0,0.0,0.0,0.0,0.0,0.0,0.0,0.0,0.0,0.0,0.0,0.0,0.0,0.0,0.0,0.0,0.0,0.0,0.0,0.0,0.0,0.0,0.0,0.0,0.0,0.0,0.0,0.0,0.0,0.0,0.0,0.0,0.0,0.0,0.0,0.0,0.0,0.0,0.0,0.0,0.0,0.0,0.0,0.0,0.0,0.0,0.0,0.0,0.0,0.0,0.0,0.0,0.0,0.0,0.0,0.0,0.0,0.0,0.0,0.0,0.0,0.0,0.0,0.0,0.0,0.0,0.0,0.0,0.0,0.0,0.0,0.0,0.0,0.0,0.0,0.0,0.0,0.0,0.0,0.0,0.0,0.0,0.0,0.0,0.0,0.0,0.0,0.0,0.0,0.0,0.0,0.0,0.0,0.0,0.0,0.0,0.0,0.0,0.0,0.0,0.0,0.0,0.0,0.0,0.0,0.0,0.0,0.0,0.0,0.0,0.0,0.0,0.0,0.0,0.0,0.0,0.0,0.0,0.0,0.0,0.0,0.0,0.0,0.0,0.0,0.0,0.0,0.0,0.0,0.0,0.0,0.0,0.0,0.0,0.0,0.0,0.0,0.0,0.0,0.0,0.0,0.0,0.0,0.0,0.0,0.0,0.0,0.0,0.0,0.0,0.0,0.0,0.0,0.0,0.0,0.0,0.0,0.0,0.0,0.0,0.0,0.0,0.0,0.0,0.0,0.0,0.0,0.0,0.0,0.0,0.0,0.0,0.0,0.0,0.0,0.0,0.0,0.0,0.0,0.0,0.0,0.0,0.0,0.0,0.0,0.0,0.0,0.0,0.0,0.0,0.0,0.0,0.0,0.0,0.0,0.0,0.0,0.0,0.0,0.0,0.0,0.0,0.0,0.0,0.0,0.0,0.0,0.0,0.0,0.0,0.0,0.0,0.0,0.0,0.0,0.0,0.0,0.0,0.0,0.0,0.0,0.0,0.0,0.0,0.0,0.0,0.0,0.0,0.0,0.0,0.0,0.0,0.0,0.0,0.0,0.0,0.0,0.0,0.0,0.0,0.0,0.0,0.0,0.0,0.0,0.0,0.0,0.0,0.0,0.0,0.0,0.0,0.0,0.0,0.0,0.0,0.0,0.0,0.0,0.0,0.0,0.0,0.0,0.0,0.0,0.0,0.0,0.0,0.0,0.0,0.0,0.0,0.0,0.0,0.0,0.0,0.0,0.0,0.0,0.0,0.0,0.0,0.0,0.0,0.0,0.0,0.0,0.0,0.0,0.0,0.0,-3.1066,0.0,0.0,0.0,0.0,0.0,0.0,0.0,0.0,0.0,0.0,0.0,0.0,0.0,0.0,0.0,0.0,0.0,0.0,0.0,0.0,0.0,0.0,0.0,0.0,0.0,0.0,0.0,0.0,0.0,0.0,0.0,0.0,0.0,0.0,0.0,0.0,0.0,0.0,0.0,0.0,0.0,0.0,0.0,0.0,0.0,0.0,0.0,0.0,0.0,0.0,0.0,0.0,0.0,0.0,0.0,0.0,0.0,0.0,0.0,0.0,0.0,0.0,0.0,0.0,0.0,0.0,0.0,0.0,0.0,0.0,0.0,0.0,0.0,0.0,0.0,0.0,0.0,0.0,0.0,0.0,0.0,0.0,0.0,0.0,0.0,0.0,0.0,0.0,0.0,0.0,0.0,0.0,0.0,0.0,0.0,0.0,0.0,0.0,0.0,0.0,0.0,0.0,0.0,0.0,0.0,0.0,0.0,0.0,0.0,0.0,-3.2925,-3.2902,-3.242,-3.2053,-3.18,0.0,0.0,0.0,0.0,0.0,0.0,0.0,0.0,0.0,0.0,0.0,0.0,0.0,0.0,0.0,0.0,0.0,0.0,0.0,0.0,0.0,0.0,0.0,0.0,0.0,0.0,0.0,0.0,0.0,0.0,0.0,0.0,0.0,0.0,0.0,0.0,0.0,0.0,0.0,0.0,0.0,0.0,0.0,0.0,0.0,0.0,0.0,0.0,0.0,0.0,0.0,0.0,0.0,0.0,0.0,0.0,0.0,0.0,0.0,0.0,0.0,0.0,0.0,0.0,0.0,0.0,0.0,0.0,0.0,0.0,0.0,0.0,0.0,0.0,0.0,0.0,0.0,0.0,0.0,0.0,0.0,0.0,0.0,0.0,0.0,0.0,0.0,0.0,0.0,0.0,0.0,0.0,0.0,0.0,0.0,0.0,0.0,0.0,0.0,0.0,0.0,0.0,0.0,0.0,0.0,0.0,0.0,0.0,0.0,0.0,0.0,0.0,-3.2879,-3.2558,-3.2305,0.0,0.0,0.0,0.0,0.0,0.0,0.0,0.0,0.0,0.0,0.0,0.0,0.0,0.0,0.0,0.0,0.0,0.0,0.0,0.0,0.0,0.0,0.0,0.0,0.0,0.0,0.0,0.0,0.0,0.0,0.0,0.0,0.0,0.0,0.0,0.0,0.0,0.0,0.0,0.0,0.0,0.0,0.0,0.0,0.0,0.0,0.0,0.0,0.0,0.0,0.0,0.0,0.0,0.0,0.0,0.0,0.0,0.0,0.0,0.0,0.0,0.0,0.0,0.0,0.0,0.0,0.0,0.0,0.0,0.0,0.0,0.0,0.0,0.0,0.0,0.0,0.0,0.0,0.0,0.0,0.0,0.0,0.0,0.0,0.0,0.0,0.0,0.0,0.0,0.0,0.0,0.0,0.0,0.0,0.0,0.0,0.0,0.0,0.0,0.0,0.0,0.0,0.0,0.0,0.0,0.0,0.0,0.0,0.0,0.0,-3.3292,-3.3292,-3.3273,0.0,-3.1798,0.0,0.0,0.0,0.0,0.0,0.0,0.0,0.0,0.0,0.0,0.0,0.0,0.0,0.0,0.0,0.0,0.0,0.0,0.0,0.0,0.0,0.0,0.0,0.0,0.0,0.0,0.0,0.0,0.0,0.0,0.0,0.0,0.0,0.0,0.0,0.0,0.0,0.0,0.0,0.0,0.0,0.0,0.0,0.0,0.0,0.0,0.0,0.0,0.0,0.0,0.0,0.0,0.0,0.0,0.0,0.0,0.0,0.0,0.0,0.0,0.0,0.0,0.0,0.0,0.0,0.0,0.0,0.0,0.0,0.0,0.0,0.0,0.0,0.0,0.0,0.0,0.0,0.0,0.0,0.0,0.0,0.0,0.0,0.0,0.0,0.0,0.0,0.0,0.0,0.0,0.0,0.0,0.0,0.0,0.0,0.0,0.0,0.0,0.0,0.0,0.0,0.0,0.0,0.0,0.0,0.0,0.0,0.0,0.0,0.0,-3.3641,-3.379,-3.3767,-3.318,0.0,0.0,0.0,0.0,0.0,0.0,0.0,0.0,0.0,0.0,0.0,0.0,0.0,0.0,0.0,0.0,0.0,0.0,0.0,0.0,0.0,0.0,0.0,0.0,0.0,0.0,0.0,0.0,0.0,0.0,0.0,0.0,0.0,0.0,0.0,0.0,0.0,0.0,0.0,0.0,0.0,0.0,0.0,0.0,0.0,0.0,0.0,0.0,0.0,0.0,0.0,0.0,0.0,0.0,0.0,0.0,0.0,0.0,0.0,0.0,0.0,0.0,0.0,0.0,0.0,0.0,0.0,0.0,0.0,0.0,0.0,0.0,0.0,0.0,0.0,0.0,0.0,0.0,0.0,0.0,0.0,0.0,0.0,0.0,0.0,0.0,0.0,0.0,0.0,0.0,0.0,0.0,0.0,0.0,0.0,0.0,0.0,0.0,0.0,0.0,0.0,0.0,0.0,0.0,0.0,0.0,0.0,0.0,0.0,0.0,-3.3767,-3.3866,-3.4087,-3.4064,-3.3473,-3.2252,0.0,0.0,0.0,0.0,0.0,0.0,0.0,0.0,0.0,0.0,0.0,0.0,0.0,0.0,0.0,0.0,0.0,0.0,0.0,0.0,0.0,0.0,0.0,0.0,0.0,0.0,0.0,0.0,0.0,0.0,0.0,0.0,0.0,0.0,0.0,0.0,0.0,0.0,0.0,0.0,0.0,0.0,0.0,0.0,0.0,0.0,0.0,0.0,0.0,0.0,0.0,0.0,0.0,0.0,0.0,0.0,0.0,0.0,0.0,0.0,0.0,0.0,0.0,0.0,0.0,0.0,0.0,0.0,0.0,0.0,0.0,0.0,0.0,0.0,0.0,0.0,0.0,0.0,0.0,0.0,0.0,0.0,0.0,0.0,0.0,0.0,0.0,0.0,0.0,0.0,0.0,0.0,0.0,0.0,0.0,0.0,0.0,0.0,0.0,0.0,0.0,0.0,0.0,0.0,0.0,0.0,0.0,0.0,-3.3717,-3.3965,-3.4087,-3.4113,-3.4064,-3.357,0.0,0.0,0.0,0.0,0.0,0.0,0.0,0.0,0.0,0.0,0.0,0.0,0.0,0.0,0.0,0.0,0.0,0.0,0.0,0.0,0.0,0.0,0.0,0.0,0.0,0.0,0.0,0.0,0.0,0.0,0.0,0.0,0.0,0.0,0.0,0.0,0.0,0.0,0.0,0.0,0.0,0.0,0.0,0.0,0.0,0.0,0.0,0.0,0.0,0.0,0.0,0.0,0.0,0.0,0.0,0.0,0.0,0.0,0.0,0.0,0.0,0.0,0.0,0.0,0.0,0.0,0.0,0.0,0.0,0.0,0.0,0.0,0.0,0.0,0.0,0.0,0.0,0.0,0.0,0.0,0.0,0.0,0.0,0.0,0.0,0.0,0.0,0.0,0.0,0.0,0.0,0.0,0.0,0.0,0.0,0.0,0.0,0.0,0.0,0.0,0.0,0.0,0.0,0.0,0.0,0.0,0.0,0.0,0.0,-3.3965,-3.4359,-3.4555,-3.4531,-3.4555,-3.4149,0.0,0.0,0.0,0.0,0.0,0.0,0.0,0.0,0.0,0.0,0.0,0.0,0.0,0.0,0.0,0.0,0.0,0.0,0.0,0.0,0.0,0.0,0.0,0.0,0.0,0.0,0.0,0.0,0.0,0.0,0.0,0.0,0.0,0.0,0.0,0.0,0.0,0.0,0.0,0.0,0.0,0.0,0.0,0.0,0.0,0.0,0.0,0.0,0.0,0.0,0.0,0.0,0.0,0.0,0.0,0.0,0.0,0.0,0.0,0.0,0.0,0.0,0.0,0.0,0.0,0.0,0.0,0.0,0.0,0.0,0.0,0.0,0.0,0.0,0.0,0.0,0.0,0.0,0.0,0.0,0.0,0.0,0.0,0.0,0.0,0.0,0.0,0.0,0.0,0.0,0.0,0.0,0.0,0.0,0.0,0.0,0.0,0.0,0.0,0.0,0.0,0.0,0.0,0.0,0.0,0.0,0.0,0.0,0.0,-3.431,0.0,-3.4775,-3.4775,-3.4775,-3.4486,0.0,0.0,0.0,0.0,0.0,0.0,0.0,0.0,0.0,0.0,0.0,0.0,0.0,0.0,0.0,0.0,0.0,0.0,0.0,0.0,0.0,0.0,0.0,0.0,0.0,0.0,0.0,0.0,0.0,0.0,0.0,0.0,0.0,0.0,0.0,0.0,0.0,0.0,0.0,0.0,0.0,0.0,0.0,0.0,0.0,0.0,0.0,0.0,0.0,0.0,0.0,0.0,0.0,0.0,0.0,0.0,0.0,0.0,0.0,0.0,0.0,0.0,0.0,0.0,0.0,0.0,0.0,0.0,0.0,0.0,0.0,0.0,0.0,0.0,0.0,0.0,0.0,0.0,0.0,0.0,0.0,0.0,0.0,0.0,0.0,0.0,0.0,0.0,0.0,0.0,0.0,0.0,0.0,0.0,0.0,0.0,0.0,0.0,0.0,0.0,0.0,0.0,0.0,0.0,0.0,0.0,0.0,0.0,-3.431,-3.4799,-3.4823,-3.4798,-3.4799,-3.4823,-3.4558,0.0,0.0,0.0,0.0,0.0,0.0,0.0,0.0,0.0,0.0,0.0,0.0,0.0,0.0,0.0,0.0,0.0,0.0,0.0,0.0,0.0,0.0,0.0,0.0,0.0,0.0,0.0,0.0,0.0,0.0,0.0,0.0,0.0,0.0,0.0,0.0,0.0,0.0,0.0,0.0,0.0,0.0,0.0,0.0,0.0,0.0,0.0,0.0,0.0,0.0,0.0,0.0,0.0,0.0,0.0,0.0,0.0,0.0,0.0,0.0,0.0,0.0,0.0,0.0,0.0,0.0,0.0,0.0,0.0,0.0,0.0,0.0,0.0,0.0,0.0,0.0,0.0,0.0,0.0,0.0,0.0,0.0,0.0,0.0,0.0,0.0,0.0,0.0,0.0,0.0,0.0,0.0,0.0,0.0,0.0,0.0,0.0,0.0,0.0,0.0,0.0,0.0,0.0,0.0,0.0,0.0,0.0,0.0,0.0,-3.5079,-3.5236,-3.5348,-3.5324,-3.517,-3.5008,0.0,0.0,0.0,0.0,0.0,0.0,0.0,0.0,0.0,0.0,0.0,0.0,0.0,0.0,0.0,0.0,0.0,0.0,0.0,0.0,0.0,0.0,0.0,0.0,0.0,0.0,0.0,0.0,0.0,0.0,0.0,0.0,0.0,0.0,0.0,0.0,0.0,0.0,0.0,0.0,0.0,0.0,0.0,0.0,0.0,0.0,0.0,0.0,0.0,0.0,0.0,0.0,0.0,0.0,0.0,0.0,0.0,0.0,0.0,0.0,0.0,0.0,0.0,0.0,0.0,0.0,0.0,0.0,0.0,0.0,0.0,0.0,0.0,0.0,0.0,0.0,0.0,0.0,0.0,0.0,0.0,0.0,0.0,0.0,0.0,0.0,0.0,0.0,0.0,0.0,0.0,0.0,0.0,0.0,0.0,0.0,0.0,0.0,0.0,0.0,0.0,0.0,0.0,0.0,0.0,0.0,0.0,0.0,0.0,-3.5631,-3.566,-3.5689,-3.5689,-3.5493,-3.5345,-3.5218,0.0,0.0,0.0,0.0,0.0,0.0,0.0,0.0,0.0,0.0,0.0,0.0,0.0,0.0,0.0,0.0,0.0,0.0,0.0,0.0,0.0,0.0,0.0,0.0,0.0,0.0,0.0,0.0,0.0,0.0,0.0,0.0,0.0,0.0,0.0,0.0,0.0,0.0,0.0,0.0,0.0,0.0,0.0,0.0,0.0,0.0,0.0,0.0,0.0,0.0,0.0,0.0,0.0,0.0,0.0,0.0,0.0,0.0,0.0,0.0,0.0,0.0,0.0,0.0,0.0,0.0,0.0,0.0,0.0,0.0,0.0,0.0,0.0,0.0,0.0,0.0,0.0,0.0,0.0,0.0,0.0,0.0,0.0,0.0,0.0,0.0,0.0,0.0,0.0,0.0,0.0,0.0,0.0,0.0,0.0,0.0,0.0,0.0,0.0,0.0,0.0,0.0,0.0,0.0,0.0,0.0,0.0,0.0,-3.641,-3.61,-3.5887,-3.5894,-3.5878,-3.5608,0.0,0.0,0.0,0.0,0.0,0.0,0.0,0.0,0.0,0.0,0.0,0.0,0.0,0.0,0.0,0.0,0.0,0.0,0.0,0.0,0.0,0.0,0.0,0.0,0.0,0.0,0.0,0.0,0.0,0.0,0.0,0.0,0.0,0.0,0.0,0.0,0.0,0.0,0.0,0.0,0.0,0.0,0.0,0.0,0.0,0.0,0.0,0.0,0.0,0.0,0.0,0.0,0.0,0.0,0.0,0.0,0.0,0.0,0.0,0.0,0.0,0.0,0.0,0.0,0.0,0.0,0.0,0.0,0.0,0.0,0.0,0.0,0.0,0.0,0.0,0.0,0.0,0.0,0.0,0.0,0.0,0.0,0.0,0.0,0.0,0.0,0.0,0.0,0.0,0.0,0.0,0.0,0.0,0.0,0.0,0.0,0.0,0.0,0.0,0.0,0.0,0.0,0.0,0.0,0.0,0.0,0.0,0.0,0.0,-3.68,-3.7192,-3.7222,-3.6719,-3.6398,-3.5977,0.0,0.0,0.0,0.0,0.0,0.0,0.0,0.0,0.0,0.0,0.0,0.0,0.0,0.0,0.0,0.0,0.0,0.0,0.0,0.0,0.0,0.0,0.0,0.0,0.0,0.0,0.0,0.0,0.0,0.0,0.0,0.0,0.0,0.0,0.0,0.0,0.0,0.0,0.0,0.0,0.0,0.0,0.0,0.0,0.0,0.0,0.0,0.0,0.0,0.0,0.0,0.0,0.0,0.0,0.0,0.0,0.0,0.0,0.0,0.0,0.0,0.0,0.0,0.0,0.0,0.0,0.0,0.0,0.0,0.0,0.0,0.0,0.0,0.0,0.0,0.0,0.0,0.0,0.0,0.0,0.0,0.0,0.0,0.0,0.0,0.0,0.0,0.0,0.0,0.0,0.0,0.0,0.0,0.0,0.0,0.0,0.0,0.0,0.0,0.0,0.0,0.0,0.0,0.0,0.0,0.0,0.0,0.0,-3.7001,-3.7488,-3.8032,-3.8143,-3.7687,-3.7286,-3.6757,0.0,0.0,0.0,0.0,0.0,0.0,0.0,0.0,0.0,0.0,0.0,0.0,0.0,0.0,0.0,0.0,0.0,0.0,0.0,0.0,0.0,0.0,0.0,0.0,0.0,0.0,0.0,0.0,0.0,0.0,0.0,0.0,0.0,0.0,0.0,0.0,0.0,0.0,0.0,0.0,0.0,0.0,0.0,0.0,0.0,0.0,0.0,0.0,0.0,0.0,0.0,0.0,0.0,0.0,0.0,0.0,0.0,0.0,0.0,0.0,0.0,0.0,0.0,0.0,0.0,0.0,0.0,0.0,0.0,0.0,0.0,0.0,0.0,0.0,0.0,0.0,0.0,0.0,0.0,0.0,0.0,0.0,0.0,0.0,0.0,0.0,0.0,0.0,0.0,0.0,0.0,0.0,0.0,0.0,0.0,0.0,0.0,0.0,0.0,0.0,0.0,0.0,0.0,0.0,0.0,0.0,0.0,0.0,-3.7786,-3.8187,-3.8606,-3.8846,-3.8762,-3.8294,-3.7626,0.0,0.0,0.0,0.0,0.0,0.0,0.0,0.0,0.0,0.0,0.0,0.0,0.0,0.0,0.0,0.0,0.0,0.0,0.0,0.0,0.0,0.0,0.0,0.0,0.0,0.0,0.0,0.0,0.0,0.0,0.0,0.0,0.0,0.0,0.0,0.0,0.0,0.0,0.0,0.0,0.0,0.0,0.0,0.0,0.0,0.0,0.0,0.0,0.0,0.0,0.0,0.0,0.0,0.0,0.0,0.0,0.0,0.0,0.0,0.0,0.0,0.0,0.0,0.0,0.0,0.0,0.0,0.0,0.0,0.0,0.0,0.0,0.0,0.0,0.0,0.0,0.0,0.0,0.0,0.0,0.0,0.0,0.0,0.0,0.0,0.0,0.0,0.0,0.0,0.0,0.0,0.0,0.0,0.0,0.0,0.0,0.0,0.0,0.0,0.0,0.0,0.0,0.0,0.0,0.0,0.0,0.0,0.0,-3.8313,-3.8273,-3.9276,-3.9668,-3.9316,-3.8549,-3.7584,0.0,0.0,0.0,0.0,0.0,0.0,0.0,0.0,0.0,0.0,0.0,0.0,0.0,0.0,0.0,0.0,0.0,0.0,0.0,0.0,0.0,0.0,0.0,0.0,0.0,0.0,0.0,0.0,0.0,0.0,0.0,0.0,0.0,0.0,0.0,0.0,0.0,0.0,0.0,0.0,0.0,0.0,0.0,0.0,0.0,0.0,0.0,0.0,-3.9981,0.0,0.0,0.0,0.0,0.0,0.0,0.0,0.0,0.0,0.0,0.0,0.0,0.0,0.0,0.0,0.0,0.0,0.0,0.0,0.0,0.0,0.0,0.0,0.0,0.0,0.0,0.0,0.0,0.0,0.0,0.0,0.0,0.0,0.0,0.0,0.0,0.0,0.0,0.0,0.0,0.0,0.0,0.0,0.0,0.0,0.0,0.0,0.0,0.0,0.0,0.0,0.0,0.0,0.0,0.0,0.0,0.0,0.0,0.0,-3.855,-3.9066,-3.9806,-4.0124,-3.9857,-3.9285,-3.8466,0.0,0.0,0.0,0.0,0.0,0.0,0.0,0.0,0.0,0.0,0.0,0.0,0.0,0.0,0.0,0.0,0.0,0.0,0.0,0.0,0.0,0.0,0.0,0.0,0.0,0.0,0.0,0.0,0.0,0.0,0.0,0.0,0.0,0.0,0.0,0.0,0.0,0.0,0.0,0.0,0.0,0.0,0.0,0.0,0.0,0.0,0.0,0.0,0.0,0.0,0.0,0.0,0.0,0.0,0.0,0.0,0.0,0.0,0.0,0.0,0.0,0.0,0.0,0.0,0.0,0.0,0.0,0.0,0.0,0.0,0.0,0.0,0.0,0.0,0.0,0.0,0.0,0.0,0.0,0.0,0.0,0.0,0.0,0.0,0.0,0.0,0.0,0.0,0.0,0.0,0.0,0.0,0.0,0.0,0.0,0.0,0.0,0.0,0.0,0.0,0.0,0.0,0.0,0.0,0.0,0.0,0.0,-3.8106,-3.8846,-3.9765,-4.0146,-4.0349,-4.034,-4.0108,-3.9587,-3.8525,0.0,0.0,0.0,0.0,0.0,0.0,0.0,0.0,0.0,0.0,0.0,0.0,0.0,0.0,0.0,0.0,0.0,0.0,0.0,0.0,0.0,0.0,0.0,0.0,0.0,0.0,0.0,0.0,0.0,0.0,0.0,0.0,0.0,0.0,0.0,0.0,0.0,0.0,-4.2507,-4.3925,0.0,0.0,0.0,0.0,0.0,0.0,0.0,0.0,-4.09,0.0,0.0,0.0,0.0,0.0,0.0,0.0,0.0,0.0,0.0,0.0,0.0,0.0,0.0,0.0,0.0,0.0,0.0,0.0,0.0,0.0,0.0,0.0,0.0,0.0,0.0,0.0,0.0,0.0,0.0,0.0,0.0,0.0,0.0,0.0,0.0,0.0,0.0,0.0,0.0,0.0,0.0,0.0,0.0,0.0,0.0,0.0,0.0,0.0,0.0,0.0,0.0,0.0,0.0,0.0,0.0,-3.7768,-3.8529,-3.9076,-3.9543,-4.0104,-4.0364,-4.0351,-4.0494,-4.0108,-3.9171,0.0,0.0,0.0,0.0,0.0,0.0,0.0,0.0,0.0,0.0,0.0,0.0,0.0,0.0,0.0,0.0,0.0,0.0,0.0,0.0,0.0,0.0,0.0,0.0,0.0,0.0,0.0,0.0,0.0,0.0,0.0,0.0,0.0,0.0,0.0,0.0,0.0,0.0,0.0,-4.5605,-4.6013,0.0,0.0,0.0,0.0,0.0,0.0,0.0,0.0,-4.2424,0.0,0.0,0.0,0.0,0.0,0.0,0.0,0.0,0.0,0.0,0.0,0.0,0.0,0.0,0.0,0.0,0.0,0.0,0.0,0.0,0.0,0.0,0.0,0.0,0.0,0.0,0.0,0.0,0.0,0.0,0.0,0.0,0.0,0.0,0.0,0.0,0.0,0.0,0.0,0.0,0.0,0.0,0.0,0.0,0.0,0.0,0.0,0.0,0.0,0.0,0.0,0.0,0.0,0.0,0.0,-3.8262,-3.8872,-3.9494,-4.0197,-4.0378,-4.0514,-4.074,-4.0729,-4.0375,0.0,0.0,0.0,0.0,0.0,0.0,0.0,0.0,0.0,0.0,0.0,0.0,0.0,0.0,0.0,0.0,0.0,0.0,0.0,0.0,0.0,0.0,0.0,0.0,0.0,0.0,0.0,0.0,0.0,0.0,0.0,0.0,0.0,0.0,0.0,0.0,0.0,0.0,0.0,0.0,-4.6821,-4.7185,-4.725,0.0,0.0,0.0,0.0,0.0,0.0,-4.3075,-4.2918,0.0,0.0,0.0,0.0,0.0,0.0,0.0,0.0,0.0,0.0,0.0,0.0,0.0,0.0,0.0,0.0,0.0,0.0,0.0,0.0,0.0,0.0,0.0,0.0,0.0,0.0,0.0,0.0,0.0,0.0,0.0,0.0,0.0,0.0,0.0,0.0,0.0,0.0,0.0,0.0,0.0,0.0,0.0,0.0,0.0,0.0,0.0,0.0,0.0,0.0,0.0,0.0,0.0,0.0,0.0,-3.8543,-3.903,-3.9688,-4.0683,-4.0529,-4.0619,-4.0988,-4.0779,-4.0501,0.0,0.0,0.0,0.0,0.0,0.0,0.0,0.0,0.0,0.0,0.0,0.0,0.0,0.0,0.0,0.0,0.0,0.0,0.0,0.0,0.0,0.0,0.0,0.0,0.0,0.0,0.0,0.0,0.0,0.0,0.0,0.0,0.0,0.0,0.0,0.0,0.0,0.0,0.0,0.0,0.0,-4.8361,-4.8342,-4.7763,0.0,0.0,0.0,0.0,-4.3861,-4.3729,0.0,0.0,0.0,0.0,0.0,0.0,0.0,0.0,0.0,0.0,0.0,0.0,0.0,0.0,0.0,0.0,0.0,0.0,0.0,0.0,0.0,0.0,0.0,0.0,0.0,0.0,0.0,0.0,0.0,0.0,0.0,0.0,0.0,0.0,0.0,0.0,0.0,0.0,0.0,0.0,0.0,0.0,0.0,0.0,0.0,0.0,0.0,0.0,0.0,0.0,0.0,0.0,0.0,0.0,0.0,0.0,-3.8207,-3.8678,-3.9364,-4.0358,-4.0472,-4.0633,-4.0988,-4.0779,-4.0362,0.0,0.0,0.0,0.0,0.0,0.0,0.0,0.0,0.0,0.0,0.0,0.0,0.0,0.0,0.0,0.0,0.0,0.0,0.0,0.0,0.0,0.0,0.0,0.0,0.0,0.0,0.0,0.0,0.0,0.0,0.0,0.0,0.0,0.0,0.0,0.0,0.0,0.0,0.0,0.0,0.0,-4.95,-4.9303,-4.9001,-4.8619,0.0,0.0,-4.6857,-4.65,-4.6248,0.0,0.0,0.0,0.0,0.0,0.0,0.0,0.0,0.0,0.0,0.0,0.0,0.0,0.0,0.0,0.0,0.0,0.0,0.0,0.0,0.0,0.0,0.0,0.0,0.0,0.0,0.0,0.0,0.0,0.0,0.0,0.0,0.0,0.0,0.0,0.0,0.0,0.0,0.0,0.0,0.0,0.0,0.0,0.0,0.0,0.0,0.0,0.0,0.0,0.0,0.0,0.0,0.0,0.0,0.0,-3.7811,-3.8657,-3.9013,-3.9718,-4.0666,-4.0574,-4.0693,-4.1008,-4.0852,-4.0362,0.0,0.0,0.0,0.0,0.0,0.0,0.0,0.0,0.0,0.0,0.0,0.0,0.0,0.0,0.0,0.0,0.0,0.0,0.0,0.0,0.0,0.0,0.0,0.0,0.0,0.0,0.0,0.0,0.0,0.0,0.0,0.0,0.0,0.0,0.0,0.0,0.0,0.0,0.0,0.0,0.0,0.0,-4.916,-4.8961,0.0,0.0,0.0,-4.7122,-4.6499,0.0,0.0,0.0,0.0,0.0,0.0,0.0,0.0,0.0,0.0,0.0,0.0,0.0,0.0,0.0,0.0,0.0,0.0,0.0,0.0,0.0,0.0,0.0,0.0,0.0,0.0,0.0,0.0,0.0,0.0,0.0,0.0,0.0,0.0,0.0,0.0,0.0,0.0,0.0,0.0,0.0,0.0,0.0,0.0,0.0,0.0,0.0,0.0,0.0,0.0,0.0,0.0,0.0,0.0,0.0,0.0,0.0,-3.8991,-3.9322,-3.9959,-4.0798,-4.0715,-4.0811,-4.1008,-4.0809,0.0,0.0,0.0,0.0,0.0,0.0,0.0,0.0,0.0,0.0,0.0,0.0,0.0,0.0,0.0,0.0,0.0,0.0,0.0,0.0,0.0,0.0,0.0,0.0,0.0,0.0,0.0,-3.403,0.0,0.0,0.0,0.0,0.0,0.0,0.0,0.0,0.0,0.0,0.0,0.0,0.0,0.0,-4.9178,-4.8945,-4.8897,-4.8704,0.0,0.0,-4.7548,-4.6688,-4.6947,-4.6817,0.0,0.0,0.0,0.0,0.0,0.0,0.0,0.0,0.0,0.0,0.0,0.0,0.0,0.0,0.0,0.0,0.0,0.0,0.0,0.0,0.0,0.0,0.0,0.0,0.0,0.0,0.0,0.0,0.0,0.0,0.0,0.0,0.0,0.0,0.0,0.0,0.0,0.0,0.0,0.0,0.0,0.0,0.0,0.0,0.0,0.0,0.0,0.0,0.0,0.0,0.0,0.0,0.0,0.0,-3.7636,-3.8636,-3.9301,-3.9918,-4.0425,-4.0914,-4.1107,-4.1028,-4.0967,-4.0563,0.0,0.0,0.0,0.0,0.0,0.0,0.0,0.0,0.0,0.0,0.0,0.0,0.0,0.0,0.0,0.0,0.0,0.0,0.0,0.0,0.0,0.0,0.0,0.0,0.0,0.0,0.0,0.0,0.0,0.0,0.0,0.0,0.0,0.0,0.0,0.0,0.0,0.0,0.0,0.0,0.0,-4.8947,-4.8678,-4.9322,-4.959,0.0,-4.9109,-4.8954,-4.812,-4.8163,-4.8066,-4.6953,0.0,0.0,0.0,0.0,0.0,0.0,0.0,0.0,0.0,0.0,0.0,0.0,0.0,0.0,0.0,0.0,0.0,0.0,0.0,0.0,0.0,0.0,0.0,0.0,0.0,0.0,0.0,0.0,0.0,0.0,0.0,0.0,0.0,0.0,0.0,0.0,0.0,0.0,0.0,0.0,0.0,0.0,0.0,0.0,0.0,0.0,0.0,0.0,0.0,0.0,0.0,0.0,0.0,-3.7847,-3.857,-3.9342,-3.9958,-4.0369,-4.0953,-4.0973,-4.0634,-4.0841,-4.034,0.0,0.0,0.0,0.0,0.0,0.0,0.0,0.0,0.0,0.0,0.0,0.0,0.0,0.0,0.0,0.0,0.0,0.0,0.0,0.0,0.0,0.0,0.0,0.0,0.0,0.0,0.0,0.0,-3.7087,-3.8617,-4.0074,0.0,0.0,0.0,0.0,0.0,0.0,0.0,0.0,0.0,0.0,-4.8054,-4.8321,-4.8758,0.0,0.0,-4.9029,-4.8942,-4.7962,-4.8298,-4.8283,-4.6817,-4.6809,0.0,0.0,0.0,0.0,0.0,0.0,0.0,0.0,0.0,0.0,0.0,0.0,0.0,0.0,0.0,0.0,0.0,0.0,0.0,0.0,0.0,0.0,0.0,0.0,0.0,0.0,-3.1269,-3.1269,0.0,0.0,0.0,0.0,0.0,0.0,0.0,0.0,0.0,0.0,0.0,0.0,0.0,0.0,0.0,0.0,0.0,0.0,0.0,0.0,0.0,0.0,0.0,0.0,-3.8057,-3.8491,-3.9262,-3.9885,-4.0219,-4.0876,-4.0973,-4.0409,-4.0592,-4.0187,0.0,0.0,0.0,0.0,0.0,0.0,0.0,0.0,0.0,0.0,0.0,0.0,0.0,0.0,0.0,0.0,0.0,0.0,0.0,0.0,0.0,0.0,0.0,0.0,0.0,0.0,0.0,0.0,-3.791,-3.9474,-4.0995,0.0,0.0,0.0,0.0,0.0,0.0,0.0,0.0,0.0,0.0,-4.7404,-4.777,-4.8198,-4.8489,-4.8489,-4.888,-4.8849,-4.7973,-4.8329,-4.8205,-4.6872,0.0,0.0,0.0,0.0,0.0,0.0,0.0,0.0,0.0,0.0,0.0,0.0,0.0,0.0,0.0,0.0,0.0,0.0,0.0,0.0,0.0,0.0,0.0,0.0,0.0,0.0,0.0,-3.2148,0.0,0.0,-3.2129,0.0,0.0,0.0,0.0,0.0,0.0,0.0,0.0,0.0,0.0,0.0,0.0,0.0,0.0,0.0,0.0,0.0,0.0,0.0,0.0,0.0,0.0,-3.7945,-3.8248,-3.9212,-3.9758,-3.9958,-4.0723,-4.0896,-4.0409,-4.0444,-4.0124,-3.9488,0.0,0.0,0.0,0.0,0.0,0.0,0.0,0.0,0.0,0.0,0.0,0.0,0.0,0.0,0.0,0.0,0.0,0.0,0.0,0.0,0.0,0.0,0.0,0.0,0.0,0.0,-3.7539,-3.8843,-4.0027,0.0,0.0,0.0,0.0,0.0,0.0,0.0,0.0,0.0,-4.6053,-4.6773,-4.7195,-4.6875,-4.77,-4.8353,-4.8353,-4.8861,-4.8976,-4.8455,-4.8253,-4.7897,0.0,0.0,0.0,0.0,0.0,0.0,0.0,0.0,0.0,0.0,0.0,0.0,0.0,0.0,0.0,0.0,0.0,0.0,0.0,0.0,0.0,0.0,0.0,0.0,0.0,0.0,0.0,-3.2883,-3.2695,0.0,0.0,0.0,0.0,0.0,0.0,0.0,0.0,0.0,0.0,0.0,-3.6674,-3.6833,0.0,0.0,0.0,0.0,0.0,0.0,0.0,0.0,0.0,0.0,0.0,0.0,-3.8238,-3.8221,-3.9423,-4.0037,-3.9883,-4.0742,-4.0839,-4.0053,-4.0314,-3.9858,-3.8644,0.0,0.0,0.0,0.0,0.0,0.0,0.0,0.0,0.0,0.0,0.0,0.0,0.0,0.0,0.0,0.0,0.0,0.0,0.0,0.0,0.0,0.0,0.0,0.0,0.0,-3.8006,0.0,0.0,0.0,0.0,0.0,0.0,0.0,0.0,0.0,0.0,-4.5183,-4.5573,-4.669,-4.6559,-4.6481,-4.6747,-4.7227,-4.7652,0.0,0.0,0.0,0.0,0.0,0.0,0.0,0.0,0.0,0.0,0.0,0.0,0.0,0.0,-4.7247,-4.6942,-4.6922,-4.6898,-4.7045,0.0,0.0,0.0,0.0,0.0,0.0,0.0,0.0,0.0,0.0,0.0,0.0,0.0,0.0,-3.3992,-3.3796,-3.3707,0.0,0.0,0.0,0.0,0.0,0.0,0.0,0.0,-3.6121,-3.6701,-3.7249,-3.7473,-3.7598,-3.7572,-3.7358,-3.6981,0.0,0.0,0.0,0.0,0.0,0.0,0.0,0.0,-3.852,-3.8552,-3.9654,-4.0256,-4.0098,-4.082,-4.084,-4.0117,-3.9884,-3.9102,-3.794,-3.7069,-3.6516,0.0,0.0,0.0,0.0,0.0,0.0,0.0,0.0,0.0,0.0,0.0,0.0,0.0,0.0,0.0,0.0,0.0,0.0,0.0,0.0,0.0,0.0,0.0,-3.9473,0.0,0.0,0.0,0.0,0.0,0.0,0.0,0.0,0.0,-4.5713,-4.5566,-4.5831,-4.6835,-4.6506,-4.6315,-4.6576,0.0,0.0,0.0,0.0,0.0,0.0,0.0,-4.7641,-4.7163,-4.6874,-4.6636,-4.6481,-4.6446,-4.6601,-4.6993,0.0,0.0,-4.7064,-4.7105,-4.7166,-4.7013,-4.7129,-4.7245,-4.7033,-4.7174,-4.734,0.0,0.0,0.0,0.0,-3.6094,0.0,0.0,0.0,-3.5664,-3.5459,0.0,-3.4611,0.0,0.0,0.0,0.0,-3.4805,-3.5234,0.0,0.0,-3.6953,-3.7365,-3.7398,-3.8166,-3.8135,-3.7366,-3.7366,-3.7158,-3.6758,-3.6649,-3.6804,0.0,0.0,0.0,0.0,0.0,-3.8807,-3.8999,-3.983,-4.034,-4.0488,-4.0957,-4.0957,-4.0469,-3.9234,-3.8094,-3.7252,-3.6648,-3.6234,-3.6079,-3.6414,0.0,0.0,0.0,0.0,0.0,0.0,0.0,0.0,0.0,0.0,0.0,0.0,0.0,0.0,0.0,0.0,0.0,0.0,0.0,0.0,-3.9633,0.0,0.0,0.0,0.0,0.0,0.0,0.0,0.0,0.0,-4.6113,-4.6175,-4.6564,-4.6779,-4.6513,0.0,0.0,0.0,0.0,-4.7592,-4.7567,-4.8086,-4.8326,-4.8111,-4.759,-4.7112,-4.6866,0.0,0.0,-4.5817,-4.5817,-4.6059,-4.6686,-4.6806,-4.69,-4.7146,-4.7365,-4.7412,-4.6656,-4.6959,-4.7122,-4.6656,-4.6942,-4.7307,-3.9726,0.0,0.0,0.0,0.0,-3.7851,-3.7708,-3.7422,-3.7297,-3.6747,-3.5961,-3.5991,0.0,0.0,0.0,0.0,0.0,0.0,-3.6855,-3.7832,-3.8105,-3.8375,-3.8646,-3.867,-3.833,-3.7839,-3.7536,-3.7481,-3.7633,-3.7302,-3.7164,-3.7177,0.0,0.0,0.0,0.0,-3.9314,-3.9553,-4.0051,-4.0393,-4.0508,-4.0957,-4.082,-4.0098,-3.9131,-3.8132,-3.7289,-3.6487,-3.6098,-3.6149,-3.639,0.0,0.0,0.0,0.0,0.0,0.0,0.0,0.0,0.0,0.0,0.0,0.0,0.0,0.0,0.0,0.0,0.0,0.0,0.0,-3.8642,-4.0305,-4.1654,0.0,0.0,0.0,0.0,0.0,0.0,0.0,0.0,0.0,-4.7991,-4.7667,-4.7529,0.0,0.0,-4.7392,-4.6954,-4.709,-4.7162,-4.7085,-4.7214,0.0,-4.7462,-4.7181,-4.69,-4.6806,-4.6446,-4.618,-4.612,-4.618,-4.6205,-4.6421,-4.6626,-4.6746,-4.6576,-4.6993,-4.7213,-4.7059,-4.7093,-4.7159,-4.7062,-4.7127,-4.736,-4.1738,-4.043,-3.9844,-3.9609,-3.959,-3.9414,-3.9207,-3.8983,-3.8511,-3.7836,-3.7146,-3.6735,-3.6232,-3.589,-3.6348,0.0,0.0,0.0,-3.793,-3.8848,-3.918,-3.9385,-3.949,-3.9299,-3.8913,-3.8527,-3.7896,-3.7822,-3.8284,-3.801,-3.8032,-3.8196,0.0,-3.8506,-3.8664,-3.9187,-3.9577,-3.9798,-4.036,-4.0712,-4.0781,-4.1035,-4.0762,-3.9922,-3.9199,-3.834,-3.7324,-3.6414,-3.5904,-3.601,-3.6269,-3.6738,0.0,0.0,0.0,0.0,0.0,0.0,0.0,0.0,0.0,0.0,0.0,-3.6138,-3.5982,0.0,0.0,0.0,-3.7562,-3.8453,-3.9577,-4.1115,0.0,0.0,0.0,0.0,0.0,0.0,0.0,-4.776,-4.8227,-4.8625,-4.8957,-4.8658,-4.837,-4.8368,-4.7918,-4.7481,-4.7179,0.0,-4.692,-4.6797,-4.69,-4.7019,-4.7053,-4.69,-4.6746,-4.6446,-4.624,-4.612,-4.612,-4.612,-4.6145,-4.6301,-4.6506,-4.6566,-4.6301,-4.6601,-4.6874,-4.6874,-4.6934,-4.7053,-4.7053,-4.7112,-4.7324,-4.3301,-4.2519,-4.1699,-4.1328,-4.123,-4.084,-4.0568,-4.0432,-3.9357,-3.8842,-3.8633,-3.7128,-3.6868,-3.7533,-3.7493,0.0,-3.8105,-3.8496,-3.8906,-3.9336,-4.0156,-4.0297,-3.9952,-3.9966,-3.9745,-3.9333,-3.8568,-3.8383,-3.8772,-3.8822,-3.9146,-3.9863,-3.859,-3.8136,-3.8618,-3.9381,-3.9785,-3.9909,-4.0627,-4.1107,-4.123,-4.1152,-4.0723,-3.9922,-3.9414,-3.8627,-3.7414,-3.6502,-3.5944,-3.5751,-3.6165,-3.6667,-3.7352,0.0,0.0,0.0,0.0,0.0,0.0,0.0,0.0,0.0,0.0,0.0,0.0,0.0,0.0,-3.7335,-3.907,0.0,-4.0701,-4.1905,0.0,0.0,0.0,-4.5355,-4.6686,-4.7138,-4.7726,-4.8748,0.0,0.0,-4.9254,-4.9455,-4.9316,-4.8508,-4.7767,-4.7255,-4.7205,-4.6995,-4.6797,-4.6771,-4.6934,-4.7027,-4.6679,-4.6569,-4.6314,-4.5775,-4.5693,-4.5704,-4.5778,-4.5778,-4.5924,-4.624,-4.6326,-4.6301,-4.6326,-4.6301,-4.6301,-4.6301,-4.6541,-4.6721,-4.6806,-4.6934,-4.7087,-4.4121,-4.3887,-4.332,-4.2734,-4.2129,-4.2031,-4.1639,-4.1013,-4.074,-4.0103,-3.9107,-3.8745,-3.8652,-3.8895,-3.8834,-3.9019,-3.9434,-3.9531,-3.9805,-4.0215,-4.043,-4.0453,-4.0356,-4.0393,-4.0118,-3.9745,-3.9572,-3.9516,-3.9594,-3.9643,-3.974,-3.9855,-3.9554,-3.9722,-4.0385,-4.027,-4.044,-4.0801,-4.0715,-4.0819,-4.1152,-4.084,-4.043,-3.9902,-3.9416,-3.8714,-3.7676,-3.712,-3.6642,-3.618,-3.6182,-3.6392,-3.695,-3.7163,0.0,0.0,0.0,0.0,0.0,0.0,0.0,0.0,0.0,-3.5482,-3.5672,0.0,-3.6749,0.0,-3.8364,-3.9379,-3.9961,-4.1676,0.0,0.0,-4.5404,-4.6576,-4.7246,-4.7933,-4.8535,-4.8787,-4.9254,-4.9517,-4.9517,-4.9579,-4.9339,-4.8787,-4.8523,-4.8234,-4.7807,-4.7341,-4.6899,-4.6522,-4.6456,-4.633,-4.5926,-4.5414,-4.5104,-4.4903,-4.4903,-4.5053,-4.5479,-4.5554,-4.5764,-4.62,-4.6326,-4.6326,-4.6326,-4.6326,-4.6301,-4.6326,-4.6386,-4.6421,-4.6446,-4.6481,-4.6601,-4.457,-4.4355,-4.3906,-4.3437,-4.2988,-4.2793,-4.23,-4.1732,-4.1399,-4.07,-3.9834,-3.9643,-3.951,-3.9278,-3.9505,-3.9754,-4.0176,-4.0176,-4.041,-4.0801,-4.082,-4.086,-4.0821,-4.0588,-4.0353,-4.0137,-3.9981,-3.9981,-4.0118,-4.0123,-4.0241,-4.0492,-4.049,-4.0698,-4.1059,-4.0633,-4.0577,-4.0813,-4.078,-4.0937,-4.1152,-4.0896,-4.0541,-4.0089,-3.9632,-3.8974,-3.8097,-3.7405,-3.6876,-3.633,-3.6179,-3.6269,-3.6667,-3.6818,-3.6971,0.0,0.0,0.0,0.0,0.0,0.0,0.0,0.0,0.0,0.0,0.0,-3.7018,-3.7678,-3.8809,-3.9713,-4.0312,-4.1946,-4.3345,-4.4452,-4.5803,-4.6988,-4.7742,-4.8396,-4.8862,-4.9113,-4.9414,-4.959,-4.959,-4.959,-4.9389,-4.8837,-4.8535,-4.8184,-4.7631,-4.7104,-4.6577,-4.605,-4.5949,-4.5748,-4.5196,-4.4844,-4.4618,-4.4618,-4.4618,-4.4744,-4.5045,-4.5321,-4.5598,-4.5899,-4.615,-4.6326,-4.6301,-4.61,-4.5949,-4.5899,-4.5723,-4.5773,-4.62,-4.6326,-4.6361,-4.4785,-4.4355,-4.3887,-4.3672,-4.3594,-4.3223,-4.2832,-4.2303,-4.1575,-4.0992,-4.0568,-4.0202,-3.9855,-3.9584,-3.9907,-4.0254,-4.0605,-4.0605,-4.082,-4.1152,-4.1172,-4.1172,-4.1172,-4.0763,-4.0588,-4.0588,-4.0216,-4.0216,-4.0588,-4.0588,-4.0841,-4.1172,-4.1172,-4.1172,-4.1152,-4.0801,-4.0605,-4.0605,-4.0976,-4.1152,-4.1094,-4.1028,-4.0821,-4.0365,-3.9858,-3.9282,-3.8496,-3.7698,-3.7009,-3.6395,-3.6284,-3.6269,-3.6383,-3.6561,-3.6703,0.0,-3.6369,0.0,0.0,0.0,0.0,0.0,0.0,0.0,0.0,-3.681,-3.7424,-3.8335,-3.9512,-4.038,-4.0867,-4.226,-4.3636,-4.4711,-4.5821,-4.7027,-4.8199,-4.8696,-4.9063,-4.954,-4.959,-4.9565,-4.949,-4.949,-4.9289,-4.8586,-4.8008,-4.7456,-4.7004,-4.6502,-4.605,-4.5547,-4.5347,-4.502,-4.4618,-4.4418,-4.4342,-4.4392,-4.4317,-4.4443,-4.4493,-4.492,-4.5271,-4.5397,-4.5723,-4.6024,-4.61,-4.5673,-4.5397,-4.5372,-4.502,-4.4995,-4.5748,-4.5999,-4.61,-4.4785,-4.4355,-4.3906,-4.3516,-4.3203,-4.3105,-4.2832,-4.2402,-4.1893,-4.1484,-4.1094,-4.0996,-4.0938,-4.0841,-4.0937,-4.0976,-4.1055,-4.1055,-4.1094,-4.1172,-4.1172,-4.1172,-4.1172,-4.1094,-4.1094,-4.1094,-4.1016,-4.1016,-4.1094,-4.1094,-4.1094,-4.1172,-4.1172,-4.1172,-4.1172,0.0,0.0,0.0,-4.1133,-4.0996,-4.0644,-4.0594,-4.0365,-3.9929,-3.9403,0.0,-3.8893,-3.8309,-3.7625,-3.6802,-3.6914,0.0,0.0,0.0,0.0,0.0,0.0,0.0,0.0,0.0,0.0,0.0,-3.517,-3.5356,-3.6081,-3.6614,-3.7184,-3.7719,-3.859,-3.9509,-4.0535,-4.2034,-4.3579,-4.4917,-4.6394,-4.7652,-4.8428,-4.9053,-4.949,-4.9565,-4.959,-4.9414,-4.9012,-4.8937,-4.856,-4.7631,-4.6979,-4.6426,-4.5899,-4.5723,-4.5598,-4.5447,-4.4719,-4.4116,-4.3991,-4.3589,-4.3388,-4.3288,-4.3288,-4.3489,-4.3865,-4.4041,-4.4317,-4.4694,-4.4869,-4.497,-4.497,-4.4844,-4.4794,-4.4794,-4.4669,-4.4694,-4.4895,-4.4945,-4.4945,-4.459,-4.4355,-4.3906,-4.3457,0.0,-4.2851,-4.2519,-4.209,-4.1894,-4.1562,-4.1172,-4.1172,-4.1172,-4.1172,-4.1172,-4.1172,-4.1172,-4.1172,-4.1172,-4.1172,-4.1172,-4.1172,-4.1172,-4.1172,-4.1172,-4.1172,-4.1172,-4.1172,-4.1172,-4.1172,-4.1172,-4.1172,-4.1172,-4.1172,-4.1172,-4.1172,-4.1172,-4.1172,-4.1172,-4.0957,-4.0527,-4.0456,-4.0221,-3.9732,-3.9222,0.0,0.0,0.0,0.0,0.0,0.0,0.0,0.0,-3.6857,-3.7032,-3.7374,-3.7214,-3.6972,-3.6667,-3.6361,-3.5911,-3.5418,-3.5393,-3.5506,-3.5922,-3.6562,-3.7104,-3.7327,-3.8296,-3.9322,-4.0206,-4.1975,-4.3664,-4.5047,-4.6398,-4.7588,-4.8445,-4.9032,-4.9296,-4.9238,-4.9188,-4.8987,-4.8435,-4.8335,-4.7908,-4.6928,-4.6502,-4.5974,-4.5246,-4.507,-4.4995,-4.4694,-4.3966,-4.3413,-4.3388,-4.3187,-4.2986,-4.2986,-4.2986,-4.3087,-4.3338,-4.3614,-4.3915,-4.4192,-4.4418,-4.4618,-4.4593,-4.4418,-4.4217,-4.4192,-4.4016,-4.3815,-4.384,-4.4242,-4.4618,-4.4355,-4.4238,-4.3789,-4.334,-4.293,-4.25,-4.209,-4.1699,-4.168,0.0,0.0,-4.1172,-4.1172,-4.1172,-4.1172,-4.1172,-4.1172,-4.1172,-4.1172,-4.1172,-4.1172,-4.1172,-4.1172,-4.1172,-4.1172,-4.1172,-4.1172,-4.1172,-4.1172,-4.1172,-4.1172,-4.1172,-4.1172,-4.1172,-4.1172,-4.1094,-4.1055,-4.1055,-4.1055,-4.082,-4.0312,-4.0298,-4.0003,-3.951,-3.9131,-3.8828,-3.865,-3.8285,-3.7897,-3.7443,-3.7395,-3.7318,-3.7105,-3.7071,-3.724,-3.7456,-3.7275,-3.7115,-3.6972,-3.6423,-3.5891,-3.5397,-3.5628,-3.5751,-3.5706,-3.6509,-3.7011,-3.7079,-3.8247,-3.924,-4.0114,-4.1908,-4.3631,-4.5073,-4.6154,-4.7263,-4.8175,-4.8605,-4.8768,-4.8648,-4.8611,-4.841,-4.7857,-4.7682,-4.728,-4.6376,-4.5899,-4.5522,-4.4618,-4.4418,-4.4292,-4.3765,-4.3313,-4.3011,-4.2986,-4.2986,-4.2986,-4.2986,-4.2986,-4.2986,-4.3062,-4.3363,-4.3614,-4.3639,-4.4041,-4.4242,-4.4292,-4.394,-4.3639,-4.3514,-4.3162,-4.2785,-4.2785,-4.3388,-4.394,-4.416,-4.3769,-4.334,-4.291,-4.248,-4.207,-4.1641,-4.1269,-4.125,-4.123,-4.1172,-4.1172,-4.1172,-4.1172,-4.1172,-4.1172,-4.1172,-4.1172,-4.1172,-4.1172,-4.1172,-4.1172,-4.1172,-4.1172,-4.1172,-4.1172,-4.1172,-4.1172,-4.1172,-4.1172,-4.1172,-4.1172,-4.1172,-4.1172,-4.1133,-4.0801,-4.0605,-4.0605,-4.0625,-4.0215,-3.9414,-3.9707,-3.9493,-3.8712,-3.8548,-3.8344,-3.7968,-3.7793,-3.7478,-3.7028,-3.7556,-3.7655,-3.7126,-3.7619,-3.7894,-3.7862,-3.8081,-3.7938,-3.7396,-3.695,-3.6326,-3.5283,-3.5534,-3.5621,-3.5315,-3.609,-3.6722,-3.7119,-3.7952,-3.9101,-4.0541,-4.2094,-4.3432,-4.4525,-4.5615,-4.6525,-4.717,-4.7541,-4.7807,-4.7996,-4.8033,-4.7807,-4.728,-4.6803,-4.6301,-4.5623,-4.4844,-4.3966,-4.3564,-4.3614,-4.3664,-4.3237,-4.3037,-4.2986,-4.2986,-4.2986,-4.2986,-4.2986,-4.2986,-4.2986,-4.2986,-4.3062,-4.3162,-4.3112,-4.3263,-4.3288,-4.3288,-4.3162,-4.2936,-4.2665,-4.2439,-4.2213,-4.1781,-4.1827,-4.2057,-4.3906,-4.3652,-4.3242,-4.2832,-4.2383,-4.1738,-4.1367,-4.1172,-4.1172,-4.1172,-4.1172,-4.1172,-4.1172,-4.1172,-4.1172,-4.1172,-4.1172,-4.1172,-4.1172,-4.1172,-4.1172,-4.1172,-4.1172,-4.1172,-4.1172,-4.1172,-4.1172,-4.1172,-4.1172,-4.1172,-4.1172,-4.1172,-4.1172,-4.1172,-4.1133,-4.0742,-4.041,-4.0195,-4.0176,-3.9863,-3.9219,-3.9347,-3.9076,-3.8133,-3.8087,-3.7877,-3.7421,-3.7402,-3.7313,-3.7243,-3.7546,-3.763,-3.7508,-3.7711,-3.7837,-3.7923,-3.8058,-3.8058,-3.7938,-3.7132,-3.6347,-3.5681,-3.5703,-3.5786,-3.5896,-3.6095,-3.6403,-3.6761,-3.7614,-3.8595,-3.9913,-4.1395,-4.2858,-4.3976,-4.4968,-4.5875,-4.6749,-4.7055,-4.7246,-4.7407,-4.7205,-4.6828,-4.6301,-4.5748,-4.5196,-4.4618,-4.3815,-4.3263,-4.3037,-4.3187,-4.3288,-4.3037,-4.2986,-4.2986,-4.2986,-4.2986,-4.2986,-4.2986,-4.2986,-4.2986,-4.2986,-4.2986,-4.2986,-4.2986,-4.2986,-4.2986,-4.2986,-4.2766,-4.2489,-4.2288,-4.1882,-4.1605,-4.1326,-4.1075,-4.1103,-4.3691,-4.3672,-4.3144,-4.2617,-4.209,-4.1465,-4.1172,-4.1172,-4.1172,-4.1172,-4.1172,-4.1172,-4.1172,-4.1172,-4.1172,-4.1172,-4.1172,-4.1172,-4.1172,-4.1172,-4.1172,-4.1172,-4.1172,-4.1172,-4.1172,-4.1172,-4.1172,-4.1172,-4.1172,-4.1172,-4.1172,-4.1172,-4.1172,-4.1172,-4.1172,-4.0644,-4.0215,-3.9902,-3.9707,-3.9434,-3.9082,-3.9062,-3.8681,-3.7893,-3.7696,-3.749,-3.7009,-3.6984,-3.7079,-3.7327,-3.7401,-3.7556,-3.7698,-3.7739,-3.7826,-3.7918,-3.8043,-3.8118,-3.8201,-3.7362,-3.6618,-3.6309,-3.6231,-3.6289,-3.6535,-3.636,-3.6423,-3.6781,-3.7549,-3.8446,-3.9525,-4.0967,-4.2327,-4.3474,-4.4258,-4.5086,-4.6123,-4.6388,-4.6377,-4.6445,-4.62,-4.5748,-4.5321,-4.4794,-4.4267,-4.3714,-4.3237,-4.3011,-4.2986,-4.2986,-4.2986,-4.2986,-4.2986,-4.2986,-4.2986,-4.2986,-4.2986,-4.2986,-4.2986,-4.2986,-4.2986,-4.2986,-4.2986,-4.2986,-4.2986,-4.2986,-4.2936,-4.259,-4.2238,-4.1957,-4.1505,-4.1103,-4.0824,-4.0601,-4.045,-4.3691,-4.3574,-4.2832,-4.2031,-4.1328,-4.1211,-4.1172,-4.1172,-4.1172,-4.1172,-4.1172,-4.1172,-4.1172,-4.1172,-4.1172,-4.1172,-4.1172,-4.1172,-4.1172,-4.1172,-4.1172,-4.1172,-4.1172,-4.1172,-4.1172,-4.1172,-4.1172,-4.1172,-4.1172,-4.1172,-4.1172,-4.1172,-4.1172,-4.1172,-4.1094,-4.0371,-3.9941,-3.9883,-3.9101,-3.8672,-3.8633,-3.8633,-3.8398,-3.7891,-3.7571,-3.716,-3.674,-3.6621,-3.6586,-3.6654,-3.722,-3.755,-3.747,-3.7933,-3.8157,-3.8113,-3.8462,-3.8514,-3.8021,-3.7994,-3.7606,-3.6829,-3.7071,-3.7197,-3.7092,-3.7038,-3.7146,-3.7543,-3.8227,-3.8948,-3.982,-4.117,-4.2238,-4.2906,-4.3636,-4.4349,-4.4695,-4.4741,-4.4759,-4.4803,-4.4861,-4.4711,-4.4669,-4.4217,-4.3689,-4.3212,-4.3062,-4.2986,-4.2986,-4.2986,-4.2986,-4.2986,-4.2986,-4.2986,-4.2986,-4.2986,-4.2986,-4.2986,-4.2986,-4.2986,-4.2986,-4.2986,-4.2986,-4.2986,-4.2986,-4.2986,-4.2861,-4.259,-4.1982,-4.1555,-4.1053,-4.045,-4.0023,-3.9873,-3.9898,-4.3691,-4.3633,-4.2793,-4.1953,-4.123,-4.1172,-4.1172,-4.1172,-4.1172,-4.1172,-4.1172,-4.1172,-4.1172,-4.1172,-4.1172,-4.1172,-4.1172,-4.1172,-4.1172,-4.1172,-4.1172,-4.1172,-4.1172,-4.1172,-4.1172,-4.1172,-4.1172,-4.1172,-4.1172,-4.1172,-4.1172,-4.1172,-4.1172,-4.1172,-4.1113,-4.0332,-3.9883,-3.9863,-3.9023,-3.8574,-3.8574,-3.8574,-3.8359,-3.7969,-3.7754,-3.7344,-3.6808,-3.6622,-3.6612,-3.6559,-3.6789,-3.7058,-3.7357,-3.7419,-3.7614,-3.8055,-3.8544,-3.8514,-3.7938,-3.8221,-3.8065,-3.7424,-3.7607,-3.7805,-3.7775,-3.777,-3.7904,-3.8171,-3.8403,-3.8796,-3.9661,-4.054,-4.1417,-4.2165,-4.2639,-4.3145,-4.3844,-4.3986,-4.4107,-4.4294,-4.4227,-4.4141,-4.4066,-4.3664,-4.3263,-4.3011,-4.2986,-4.2986,-4.2986,-4.2986,-4.2986,-4.2986,-4.2986,-4.2986,-4.2986,-4.2986,-4.2986,-4.2986,-4.2986,-4.2986,-4.2986,-4.2986,-4.2986,-4.2986,-4.2986,-4.2986,-4.2986,-4.2233,-4.1555,-4.11,-4.0576,-3.9948,-3.9722,-3.9697,-3.9697,-4.3691,-4.3574,-4.2793,-4.1953,-4.1191,-4.1172,-4.1172,-4.1172,-4.1172,-4.1172,-4.1172,-4.1172,-4.1172,-4.1172,-4.1172,-4.1172,-4.1172,-4.1172,-4.1172,-4.1172,-4.1172,-4.1172,-4.1172,-4.1172,-4.1172,-4.1172,-4.1172,-4.1172,-4.1172,-4.1172,-4.1172,-4.1172,-4.1172,-4.1172,-4.1094,-4.043,-4.0019,-3.9844,-3.9121,-3.8691,-3.8594,-3.8574,-3.8418,-3.8125,-3.7988,-3.7578,-3.6875,-3.6738,-3.6602,-3.6355,-3.6451,-3.6716,-3.7126,-3.692,-3.7108,-3.7841,-3.8236,-3.8276,-3.7938,-3.8454,-3.8528,-3.789,-3.8101,-3.8259,-3.8221,-3.8191,-3.837,-3.8615,-3.8503,-3.8723,-3.956,-4.0084,-4.0603,-4.1411,-4.1702,-4.2233,-4.2831,-4.3093,-4.3321,-4.3556,-4.339,-4.3362,-4.3425,-4.3181,-4.3011,-4.2986,-4.2986,-4.2986,-4.2986,-4.2986,-4.2986,-4.2986,-4.2986,-4.2986,-4.2986,-4.2986,-4.2986,-4.2986,-4.2986,-4.2986,-4.2986,-4.2986,-4.2986,-4.2986,-4.2986,-4.2936,-4.2861,-4.2158,-4.11,-4.0827,-4.0275,-3.9722,-3.9697,-3.9697,-3.9697,-4.3691,-4.3574,-4.2773,-4.1953,-4.1191,-4.1172,-4.1172,-4.1172,-4.1172,-4.1172,-4.1172,-4.1172,-4.1172,-4.1172,-4.1172,-4.1172,-4.1172,-4.1172,-4.1172,-4.1172,-4.1172,-4.1172,-4.1172,-4.1172,-4.1172,-4.1172,-4.1172,-4.1172,-4.1172,-4.1172,-4.1172,-4.1172,-4.1172,-4.1172,-4.1113,-4.0703,-4.0293,-3.9883,-3.9394,-3.8965,-3.8633,-3.8574,-3.8555,-3.8476,-3.8144,-3.7754,-3.7285,-3.6894,-3.6484,-3.6035,-3.6336,-3.6499,-3.6555,-3.6738,-3.6981,-3.7327,-3.7456,-3.7637,-3.7907,-3.8658,-3.8772,-3.8061,-3.8505,-3.8859,-3.8304,-3.8191,-3.837,-3.8681,-3.8615,-3.888,-3.9495,-3.9866,-4.0233,-4.0625,-4.1206,-4.1445,-4.1627,-4.191,-4.2064,-4.2209,-4.2315,-4.246,-4.2587,-4.2818,-4.293,-4.2986,-4.2986,-4.2986,-4.2986,-4.2986,-4.2986,-4.2986,-4.2986,-4.2986,-4.2986,-4.2986,-4.2986,-4.2986,-4.2986,-4.2986,-4.2986,-4.2986,-4.2986,-4.2986,-4.2986,-4.2911,-4.276,-4.2082,-4.1028,-4.0425,-4.0049,-3.9697,-3.9697,-3.9697,-3.9697,-4.3808,-4.3262,-4.2676,-4.209,-4.1562,-4.1289,-4.1172,-4.1172,-4.1172,-4.1172,-4.1172,-4.1172,-4.1172,-4.1172,-4.1172,-4.1172,-4.1172,-4.1172,-4.1172,-4.1172,-4.1172,-4.1172,-4.1172,-4.1172,-4.1172,-4.1172,-4.1172,-4.1172,-4.1172,-4.1172,-4.1172,-4.1172,-4.1172,-4.1172,-4.1094,-4.0742,-4.0312,-3.9902,-3.9434,-3.9004,-3.8613,-3.8574,-3.8574,-3.8574,-3.8437,-3.8144,-3.7715,-3.7285,-3.6875,-3.6445,-3.6308,-3.6268,-3.6507,-3.6693,-3.6581,-3.6243,-3.6707,-3.7011,-3.7079,-3.8022,-3.8312,-3.7699,-3.8373,-3.8681,-3.8304,-3.8191,-3.837,-3.8549,-3.8482,-3.8531,-3.8565,-3.8958,-3.9347,-3.977,-3.9784,-3.9991,-4.0449,-4.0775,-4.1017,-4.145,-4.1826,-4.2199,-4.2425,-4.2625,-4.2762,-4.2986,-4.2986,-4.2986,-4.2986,-4.2986,-4.2986,-4.2986,-4.2986,-4.2986,-4.2986,-4.2986,-4.2986,-4.2986,-4.2986,-4.2986,-4.2986,-4.2986,-4.2986,-4.2986,-4.2986,-4.2861,-4.266,-4.1932,-4.0877,-4.0074,-3.9697,-3.9697,-3.9697,-3.9697,-3.9697,-4.3867,-4.3086,-4.2754,-4.2305,-4.1777,-4.1504,-4.1289,-4.1191,-4.1172,-4.1172,-4.1172,-4.1172,-4.1172,-4.1172,-4.1172,-4.1172,-4.1172,-4.1172,-4.1172,-4.1172,-4.1172,-4.1172,-4.1172,-4.1172,-4.1172,-4.1172,-4.1172,-4.1172,-4.1172,-4.1172,-4.1172,-4.1172,-4.1172,-4.1172,-4.1113,-4.0879,-4.0469,-3.9941,-3.959,-3.916,-3.8672,-3.8574,-3.8574,-3.8574,-3.8574,-3.8359,-3.7949,-3.7519,-3.7109,-3.668,-3.625,-3.6093,-3.6281,-3.6284,-3.607,-3.5749,-3.6118,-3.6462,-3.6508,-3.7333,-3.772,-3.7402,-3.7879,-3.8183,-3.7996,-3.776,-3.7744,-3.7856,-3.7645,-3.7373,-3.7301,-3.7374,-3.7719,-3.8358,-3.8404,-3.8581,-3.9273,-3.9633,-4.0153,-4.0908,-4.1483,-4.194,-4.2312,-4.24,-4.2625,-4.2986,-4.2986,-4.2986,-4.2986,-4.2986,-4.2986,-4.2986,-4.2986,-4.2986,-4.2986,-4.2986,-4.2986,-4.2986,-4.2986,-4.2986,-4.2986,-4.2986,-4.2986,-4.2986,-4.2911,-4.276,-4.2333,-4.1656,-4.0827,-3.9923,-3.9697,-3.9697,-3.9697,-3.9697,-3.9697,-4.3887,-4.3164,-4.3066,-4.2598,-4.1953,-4.1836,-4.1582,-4.1308,-4.125,-4.1308,-4.1348,-4.123,-4.125,-4.1211,-4.1191,-4.1172,-4.1172,-4.1172,-4.1172,-4.1172,-4.1172,-4.1172,-4.1172,-4.1172,-4.1172,-4.1172,-4.1172,-4.1172,-4.1172,-4.1172,-4.1172,-4.1172,-4.1172,-4.1172,-4.1172,-4.1094,-4.0723,-4.0059,-3.9844,-3.9434,-3.8691,-3.8574,-3.8574,-3.8574,-3.8574,-3.8398,-3.7969,-3.7559,-3.7148,-3.6738,-3.6309,-3.5975,-3.585,-3.5554,-3.5465,-3.5765,-3.5604,-3.5747,-3.6281,-3.6788,-3.7129,-3.7168,-3.7411,-3.7579,-3.7514,-3.6983,-3.6628,-3.6633,-3.633,-3.5941,-3.586,-3.5642,-3.5781,-3.6478,-3.7207,-3.7609,-3.7973,-3.8477,-3.9285,-4.0421,-4.1,-4.1426,-4.1972,-4.2312,-4.2594,-4.2874,-4.2986,-4.2986,-4.2986,-4.2986,-4.2986,-4.2986,-4.2986,-4.2986,-4.2986,-4.2986,-4.2986,-4.2986,-4.2986,-4.2986,-4.2986,-4.2986,-4.2986,-4.2961,-4.2816,-4.264,-4.1882,-4.115,-4.0626,-3.9898,-3.9823,-3.9697,-3.9697,-3.9697,-3.9697,-4.4043,-4.3496,-4.3183,-4.293,-4.2637,-4.2363,-4.2148,-4.2031,-4.2031,-4.2031,-4.1992,-4.1738,-4.1601,-4.1523,-4.1308,-4.1172,-4.1172,-4.1172,-4.1172,-4.1172,-4.1172,-4.1172,-4.1172,-4.1172,-4.1172,-4.1172,-4.1172,-4.1172,-4.1172,-4.1172,-4.1172,-4.1172,-4.1172,-4.1172,-4.1172,-4.1152,-4.0742,-4.0,-3.9883,-3.9473,-3.8672,-3.8574,-3.8574,-3.8574,-3.8574,-3.8496,-3.8359,-3.7949,-3.7539,-3.7109,-3.6699,-3.6221,-3.5689,-3.5337,-3.5162,-3.5043,-3.4853,-3.4735,-3.5086,-3.5806,-3.6234,-3.6391,-3.6851,-3.7212,-3.7199,-3.6723,-3.6415,-3.6354,-3.6012,-3.5606,-3.5091,-3.506,-3.5385,-3.6143,-3.6185,-3.647,-3.7236,-3.8156,-3.9108,-3.9931,-4.0537,-4.1172,-4.1883,-4.2224,-4.2481,-4.293,-4.2986,-4.2986,-4.2986,-4.2986,-4.2986,-4.2986,-4.2986,-4.2986,-4.2986,-4.2986,-4.2986,-4.2986,-4.2986,-4.2986,-4.2986,-4.2986,-4.2986,-4.2861,-4.269,-4.2183,-4.148,-4.0827,-4.0249,-3.9923,-3.9747,-3.9697,-3.9697,-3.9697,-3.9697,-4.4375,-4.3926,-4.3496,-4.3223,-4.3066,-4.2773,-4.2578,-4.2441,-4.2422,-4.2422,-4.2344,-4.2148,-4.1933,-4.1777,-4.1504,-4.1308,-4.1191,-4.1172,-4.1172,-4.1172,-4.1172,-4.1172,-4.1172,-4.1172,-4.1172,-4.1172,-4.1172,-4.1172,-4.1172,-4.1172,-4.1172,-4.1172,-4.1172,-4.1172,-4.1172,-4.1152,-4.0742,-4.0019,-3.9883,-3.9473,-3.8769,-3.8574,-3.8574,-3.8574,-3.8574,-3.8574,-3.8555,-3.8301,-3.7891,-3.7305,-3.6758,-3.6172,-3.5644,-3.5414,-3.5218,-3.5072,-3.4887,-3.4799,-3.4923,-3.5493,-3.5851,-3.6073,-3.6403,-3.6716,-3.6696,-3.629,-3.5778,-3.5719,-3.5201,-3.47,-3.427,-3.4465,-3.4909,-3.5413,-3.5355,-3.5726,-3.6746,-3.7916,-3.893,-3.972,-4.0363,-4.1115,-4.1826,-4.2224,-4.2425,-4.2874,-4.2986,-4.2986,-4.2986,-4.2986,-4.3011,-4.3011,-4.2986,-4.2986,-4.2986,-4.2986,-4.2986,-4.2986,-4.2986,-4.2986,-4.2986,-4.2986,-4.2986,-4.271,-4.2484,-4.1932,-4.12,-4.0551,-3.9948,-3.9823,-3.9798,-3.9697,-3.9697,-3.9697,-3.9697,-4.4805,-4.4355,-4.3926,-4.3516,-4.3164,-4.3125,-4.291,-4.2578,-4.2558,-4.2578,-4.2558,-4.2422,-4.2187,-4.1894,-4.1719,-4.1445,-4.123,-4.1172,-4.1172,-4.1172,-4.1172,-4.1172,-4.1172,-4.1172,-4.1172,-4.1172,-4.1172,-4.1172,-4.1172,-4.1172,-4.1172,-4.1172,-4.1172,-4.1172,-4.1172,-4.1172,-4.0742,-4.0019,-3.9883,-3.9453,-3.8633,-3.8574,-3.8574,-3.8574,-3.8574,-3.8574,-3.8574,-3.8379,-3.8027,-3.7324,-3.6523,-3.6055,-3.5937,-3.5605,-3.5532,-3.5653,-3.5383,-3.5321,-3.5496,-3.5576,-3.5796,-3.6116,-3.6117,-3.6036,-3.6313,-3.5606,-3.5048,-3.4923,-3.428,-3.3686,-3.3666,-3.3855,-3.4233,-3.4506,-3.4942,-3.5665,-3.6767,-3.7818,-3.8775,-3.9638,-4.0339,-4.1091,-4.1972,-4.2312,-4.2619,-4.2975,-4.3112,-4.3162,-4.3288,-4.3363,-4.3162,-4.3212,-4.3388,-4.3288,-4.3363,-4.3288,-4.3237,-4.2986,-4.2986,-4.2986,-4.2986,-4.2986,-4.2986,-4.271,-4.2308,-4.1731,-4.1254,-4.0727,-4.03,-4.0224,-4.0099,-3.9823,-3.9873,-4.0049,-3.9973,-4.5078,-4.4394,-4.4258,-4.3965,-4.3574,-4.3535,-4.3476,-4.3359,-4.3359,-4.3301,-4.3242,-4.2695,-4.2383,-4.2187,-4.1601,-4.1269,-4.1191,-4.1172,-4.1172,-4.1172,-4.1172,-4.1172,-4.1172,-4.1172,-4.1172,-4.1172,-4.1172,-4.1172,-4.1172,-4.1172,-4.1172,-4.1172,-4.1172,-4.1172,-4.1172,-4.1172,-4.0723,-4.0019,-3.9883,-3.9473,-3.873,-3.8574,-3.8574,-3.8574,-3.8574,-3.8574,-3.8496,-3.7949,-3.7578,-3.7285,-3.6484,-3.6035,-3.5996,-3.5644,-3.5497,-3.5505,-3.5152,-3.4923,-3.5048,-3.5369,-3.5586,-3.5638,-3.5933,-3.6034,-3.6093,-3.5461,-3.5093,-3.4942,-3.4521,-3.411,-3.4173,-3.4255,-3.4568,-3.5046,-3.5624,-3.622,-3.7071,-3.7894,-3.8693,-3.9638,-4.0537,-4.1393,-4.1964,-4.2468,-4.2874,-4.3432,-4.3614,-4.3689,-4.3865,-4.3991,-4.3915,-4.4116,-4.4217,-4.394,-4.3765,-4.3664,-4.3463,-4.3087,-4.2986,-4.2986,-4.2986,-4.2986,-4.2986,-4.2886,-4.2409,-4.1856,-4.1706,-4.1404,-4.1103,-4.0651,-4.0701,-4.0626,-4.0802,-4.0899,-4.0626,-4.5371,-4.4902,-4.4551,-4.4238,-4.3984,-4.3789,-4.3691,-4.3691,-4.3691,-4.3691,-4.3555,-4.3008,-4.2598,-4.2363,-4.1738,-4.1328,-4.1191,-4.1172,-4.1172,-4.1172,-4.1172,-4.1172,-4.1172,-4.1172,-4.1172,-4.1172,-4.1172,-4.1172,-4.1172,-4.1172,-4.1172,-4.1172,-4.1172,-4.1172,-4.1172,-4.1152,-4.0859,-4.0254,-3.998,-3.9531,-3.8906,-3.8652,-3.8574,-3.8574,-3.8574,-3.8574,-3.8476,-3.8073,-3.7642,-3.7258,-3.6523,-3.6035,-3.6016,-3.5801,-3.5644,-3.5644,-3.5391,-3.5273,-3.5293,-3.5527,-3.5644,-3.5751,-3.6034,-3.6161,-3.615,-3.5884,-3.5731,-3.5626,-3.5214,-3.4936,-3.4921,-3.5272,-3.5977,-3.6789,-3.7307,-3.7566,-3.7703,-3.8276,-3.9085,-4.0095,-4.1051,-4.1971,-4.2569,-4.3059,-4.3562,-4.3984,-4.4141,-4.4292,-4.4468,-4.4593,-4.4694,-4.4769,-4.4744,-4.4443,-4.4141,-4.3991,-4.3664,-4.3288,-4.2986,-4.2986,-4.2986,-4.2986,-4.2986,-4.2861,-4.2489,-4.2187,-4.2032,-4.1831,-4.1379,-4.1075,-4.125,-4.1326,-4.1351,-4.1455,-4.1153,-4.5723,-4.5605,-4.4805,-4.4433,-4.4316,-4.3906,-4.3691,-4.3691,-4.3691,-4.3652,-4.3516,-4.3183,-4.2656,-4.2344,-4.1797,-4.1504,-4.1172,-4.1172,-4.1172,-4.1172,-4.1172,-4.1172,-4.1172,-4.1172,-4.1172,-4.1172,-4.1172,-4.1172,-4.1172,-4.1172,-4.1172,-4.1172,-4.1172,-4.1172,-4.1172,-4.1172,-4.0937,-4.0508,-4.0176,-3.9805,-3.9336,-3.9023,-3.8848,-3.8711,-3.8739,-3.8812,-3.8767,-3.8556,-3.8252,-3.7524,-3.6612,-3.6221,-3.6123,-3.5996,-3.5996,-3.5976,-3.5918,-3.5898,-3.5976,-3.5918,-3.6044,-3.6093,-3.6364,-3.6586,-3.6642,-3.6549,-3.6542,-3.6647,-3.6134,-3.6059,-3.6123,-3.6851,-3.7773,-3.8616,-3.9477,-3.9405,-3.8882,-3.909,-3.9977,-4.0819,-4.1948,-4.2781,-4.3441,-4.4061,-4.4618,-4.4611,-4.4744,-4.4895,-4.507,-4.5221,-4.5196,-4.5121,-4.502,-4.4869,-4.4568,-4.4292,-4.3915,-4.3514,-4.3112,-4.2986,-4.2986,-4.2986,-4.2986,-4.2836,-4.2665,-4.2514,-4.2414,-4.2032,-4.1681,-4.1626,-4.1932,-4.1781,-4.1605,-4.1656,-4.1505,-4.5976,-4.5625,-4.5117,-4.4687,-4.4355,-4.3906,-4.3691,-4.3691,-4.3691,-4.3496,-4.3164,-4.2754,-4.2344,-4.1933,-4.1543,-4.125,-4.1172,-4.1172,-4.1172,-4.1172,-4.1172,-4.1172,-4.1172,-4.1172,-4.1172,-4.1172,-4.1172,-4.1172,-4.1172,-4.1172,-4.1172,-4.1172,-4.1172,-4.1172,-4.1172,-4.1152,-4.0957,-4.0586,-4.041,-4.0156,-3.9824,-3.9684,-3.9449,-3.9156,-3.9135,-3.9248,-3.9346,-3.9149,-3.8888,-3.8467,-3.7709,-3.6975,-3.6522,-3.6219,-3.6084,-3.6084,-3.6084,-3.6016,-3.6084,-3.6268,-3.6384,-3.6451,-3.6809,-3.7079,-3.7307,-3.736,-3.7532,-3.7843,-3.7891,-3.7866,-3.8114,-3.8825,-3.9437,-4.0006,-4.0831,-4.1448,-4.1372,-4.1458,-4.1745,-4.2351,-4.312,-4.3887,-4.4004,-4.4419,-4.4836,-4.5196,-4.5372,-4.5522,-4.5648,-4.5773,-4.5698,-4.5573,-4.5598,-4.5472,-4.5146,-4.4719,-4.4066,-4.3639,-4.3237,-4.2986,-4.2986,-4.2986,-4.2986,-4.2961,-4.2967,-4.2816,-4.269,-4.2685,-4.2409,-4.2509,-4.2509,-4.2384,-4.2258,-4.2133,-4.1731,-4.6172,-4.5898,-4.5293,-4.4902,-4.4609,-4.3984,-4.3691,-4.3652,-4.3476,-4.3301,-4.2969,-4.2441,-4.2012,-4.1777,-4.1387,-4.1172,-4.1172,-4.1172,-4.1172,-4.1172,-4.1172,-4.1172,-4.1172,-4.1172,-4.1172,-4.1172,-4.1172,-4.1172,-4.1172,-4.1172,-4.1172,-4.1172,-4.1172,-4.1172,-4.1172,-4.1172,-4.1074,-4.084,-4.0605,-4.0391,-4.0215,-4.0207,-4.0275,-4.0088,-4.0078,-4.0129,-4.0234,-4.0259,-4.0073,-3.9786,-3.9216,-3.83,-3.7237,-3.6726,-3.6559,-3.6491,-3.6491,-3.6559,-3.6606,-3.6674,-3.6876,-3.6991,-3.7348,-3.7816,-3.8262,-3.8429,-3.885,-3.9302,-3.9509,-3.9607,-4.011,-4.0773,-4.1152,-4.1653,-4.2541,-4.3275,-4.3385,-4.3048,-4.2974,-4.3403,-4.4082,-4.4525,-4.4811,-4.5028,-4.5338,-4.5799,-4.5824,-4.5949,-4.5974,-4.61,-4.615,-4.61,-4.6175,-4.6075,-4.5748,-4.5146,-4.4267,-4.3765,-4.3263,-4.3062,-4.2986,-4.2986,-4.2986,-4.2961,-4.2961,-4.2961,-4.2861,-4.2986,-4.2986,-4.2861,-4.2811,-4.2936,-4.2785,-4.2333,-4.1856,-4.6367,-4.623,-4.5371,-4.5039,-4.4883,-4.4082,-4.3652,-4.3535,-4.3242,-4.3008,-4.2773,-4.209,-4.1797,-4.1621,-4.1348,-4.1191,-4.1172,-4.1172,-4.1172,-4.1172,-4.1172,-4.1172,-4.1172,-4.1172,-4.1172,-4.1172,-4.1172,-4.1172,-4.1172,-4.1172,-4.1172,-4.1172,-4.1172,-4.1172,-4.1172,-4.1172,-4.1152,-4.1055,-4.084,-4.0684,-4.0682,-4.0693,-4.0968,-4.1326,-4.133,-4.1389,-4.1462,-4.1582,-4.1559,-4.1186,-4.1059,-4.0111,-3.889,-3.7746,-3.7415,-3.7368,-3.73,-3.7192,-3.7172,-3.7294,-3.7415,-3.775,-3.8217,-3.8769,-3.9407,-3.9801,-4.0211,-4.0717,-4.1108,-4.1422,-4.1985,-4.2544,-4.3042,-4.3488,-4.4374,-4.4853,-4.4829,-4.417,-4.421,-4.4363,-4.4898,-4.5335,-4.5604,-4.5824,-4.61,-4.6326,-4.6326,-4.6326,-4.6326,-4.6326,-4.6326,-4.6326,-4.6326,-4.6075,-4.5748,-4.5522,-4.4669,-4.3991,-4.3438,-4.3212,-4.3087,-4.2986,-4.2986,-4.2986,-4.2986,-4.2986,-4.2986,-4.2986,-4.2986,-4.2986,-4.2986,-4.2986,-4.276,-4.2434,-4.1932,-4.6621,-4.623,-4.5371,-4.5039,-4.4883,-4.4082,-4.3516,-4.3203,-4.3105,-4.2656,-4.2051,-4.1855,-4.1582,-4.1348,-4.123,-4.1172,-4.1172,-4.1172,-4.1172,-4.1172,-4.1172,-4.1172,-4.1172,-4.1172,-4.1172,-4.1172,-4.1172,-4.1172,-4.1172,-4.1172,-4.1172,-4.1172,-4.1172,-4.1172,-4.1172,-4.1172,-4.1172,-4.1172,-4.1055,-4.0996,-4.1034,-4.1418,-4.1963,-4.2508,-4.2594,-4.2804,-4.297,-4.3228,-4.323,-4.2753,-4.2319,-4.199,-4.1229,-3.9819,-3.8924,-3.8555,-3.8125,-3.7915,-3.7895,-3.7948,-3.8166,-3.8549,-3.9163,-3.9996,-4.0713,-4.1057,-4.1591,-4.2241,-4.2864,-4.3325,-4.3784,-4.4082,-4.4339,-4.473,-4.5172,-4.5624,-4.5635,-4.5633,-4.5604,-4.5629,-4.591,-4.598,-4.6065,-4.615,-4.6225,-4.6326,-4.6326,-4.6326,-4.6326,-4.6326,-4.6326,-4.6326,-4.6326,-4.5999,-4.5623,-4.5497,-4.5045,-4.4342,-4.3815,-4.3489,-4.3313,-4.3062,-4.2986,-4.2986,-4.2986,-4.2986,-4.2986,-4.2986,-4.2986,-4.2986,-4.2986,-4.2986,-4.271,-4.2384,-4.1756,-4.668,-4.623,-4.5391,-4.5039,-4.4863,-4.4082,-4.3476,-4.3086,-4.2832,-4.2383,-4.1875,-4.1582,-4.1367,-4.1211,-4.1172,-4.1172,-4.1172,-4.1172,-4.1172,-4.1172,-4.1172,-4.1172,-4.1172,-4.1172,-4.1172,-4.1172,-4.1172,-4.1172,-4.1172,-4.1172,-4.1172,-4.1172,-4.1172,-4.1172,-4.1172,-4.1172,-4.1172,-4.1172,-4.1172,-4.1172,-4.1327,-4.1947,-4.2841,-4.3598,-4.4113,-4.4408,-4.487,-4.4701,-4.4738,-4.4542,-4.4001,-4.3709,-4.3095,-4.2094,-4.0667,-3.9923,-3.9241,-3.9,-3.898,-3.9182,-3.9525,-4.0222,-4.0757,-4.1507,-4.2314,-4.2784,-4.3125,-4.371,-4.4199,-4.4631,-4.473,-4.5147,-4.5306,-4.5477,-4.598,-4.6398,-4.6534,-4.6856,-4.6845,-4.6709,-4.6481,-4.6341,-4.619,-4.6276,-4.6301,-4.6326,-4.6351,-4.6376,-4.6426,-4.6476,-4.6527,-4.6476,-4.6502,-4.6276,-4.5924,-4.5673,-4.5447,-4.4769,-4.4267,-4.3966,-4.3614,-4.3413,-4.3162,-4.3011,-4.2986,-4.2986,-4.2986,-4.2986,-4.2986,-4.2986,-4.2986,-4.2936,-4.2685,-4.2308,-4.1706,-4.6641,-4.6113,-4.5351,-4.498,-4.4766,-4.3945,-4.332,-4.291,-4.248,-4.2051,-4.166,-4.1348,-4.1191,-4.1172,-4.1172,-4.1172,-4.1172,-4.1172,-4.1172,-4.1172,-4.1172,-4.1172,-4.1172,-4.1172,-4.1172,-4.1172,-4.1172,-4.1172,-4.1172,-4.1172,-4.1172,-4.1172,-4.1172,-4.1172,-4.1172,-4.1172,-4.1172,-4.1172,-4.1172,-4.125,-4.1695,-4.2467,-4.3615,-4.4805,-4.5335,-4.5903,-4.6411,-4.632,-4.6169,-4.6012,-4.5599,-4.5096,-4.4799,-4.3972,-4.2631,-4.1225,-4.0552,-4.0303,-4.0192,-4.0251,-4.0601,-4.1435,-4.2238,-4.3148,-4.3979,-4.4448,-4.4864,-4.5291,-4.5552,-4.581,-4.5983,-4.6129,-4.6251,-4.6387,-4.6809,-4.7244,-4.7319,-4.7506,-4.7657,-4.7369,-4.6954,-4.6853,-4.6903,-4.6878,-4.7004,-4.7004,-4.7029,-4.7004,-4.7029,-4.6928,-4.6928,-4.6803,-4.6728,-4.6602,-4.6326,-4.5999,-4.5723,-4.5271,-4.4869,-4.4593,-4.4192,-4.384,-4.3539,-4.3237,-4.2986,-4.2986,-4.2986,-4.2986,-4.2986,-4.2986,-4.2986,-4.2911,-4.2785,-4.2359,-4.1756,-4.6465,-4.5703,-4.5234,-4.4824,-4.4375,-4.3574,-4.293,-4.25,-4.2109,-4.1641,-4.1289,-4.1211,-4.1172,-4.1172,-4.1172,-4.1172,-4.1172,-4.1172,-4.1172,-4.1172,-4.1172,-4.1172,-4.1172,-4.1172,-4.1172,-4.125,-4.125,-4.1172,-4.125,-4.125,-4.125,-4.1327,-4.1327,-4.125,-4.1327,-4.1327,-4.1172,-4.1172,-4.1172,-4.154,-4.2139,-4.2774,-4.3843,-4.5084,-4.5967,-4.6748,-4.7375,-4.7438,-4.7561,-4.7144,-4.675,-4.6174,-4.5482,-4.4682,-4.358,-4.2462,-4.1438,-4.0696,-4.0772,-4.0907,-4.1399,-4.2301,-4.3173,-4.4117,-4.5096,-4.5998,-4.6528,-4.7183,-4.7184,-4.7147,-4.7196,-4.7507,-4.762,-4.7595,-4.762,-4.7807,-4.7883,-4.8159,-4.8284,-4.8234,-4.7883,-4.7807,-4.7807,-4.7757,-4.7757,-4.7732,-4.7682,-4.7631,-4.7556,-4.7431,-4.738,-4.728,-4.7154,-4.7054,-4.6878,-4.6527,-4.6175,-4.5773,-4.5472,-4.5171,-4.4719,-4.4292,-4.389,-4.3589,-4.3263,-4.2986,-4.2986,-4.2986,-4.2986,-4.2986,-4.2986,-4.2986,-4.2961,-4.2434,-4.1831,-4.623,-4.5644,-4.5195,-4.4785,-4.4336,-4.3691,-4.3047,-4.248,-4.2226,-4.1777,-4.1269,-4.1172,-4.1172,-4.1172,-4.1172,-4.1172,-4.1172,-4.1172,-4.1172,-4.1172,-4.1172,-4.1172,-4.1172,-4.1172,-4.1172,-4.125,-4.1405,-4.156,-4.154,-4.1618,-4.1618,-4.185,-4.185,-4.1773,-4.156,-4.156,-4.1405,-4.125,-4.125,-4.1618,-4.239,-4.3081,-4.3995,-4.533,-4.6374,-4.7198,-4.7816,-4.8069,-4.8262,-4.7889,-4.7353,-4.668,-4.6007,-4.4967,-4.3697,-4.3067,-4.1834,-4.127,-4.1207,-4.1507,-4.2141,-4.3034,-4.4097,-4.5189,-4.6203,-4.6987,-4.7351,-4.7394,-4.762,-4.7833,-4.7895,-4.7908,-4.7908,-4.7983,-4.8259,-4.8297,-4.8422,-4.8786,-4.8962,-4.8887,-4.8812,-4.8686,-4.8485,-4.8259,-4.8134,-4.8058,-4.8008,-4.7958,-4.7857,-4.7757,-4.7757,-4.7782,-4.7682,-4.7581,-4.738,-4.7129,-4.6853,-4.6476,-4.6125,-4.5748,-4.5196,-4.4744,-4.4342,-4.379,-4.3338,-4.3112,-4.3037,-4.2986,-4.2986,-4.2986,-4.2986,-4.2986,-4.2936,-4.2509,-4.1932,-4.5898,-4.5488,-4.5156,-4.4726,-4.4199,-4.375,-4.3105,-4.2461,-4.2285,-4.1836,-4.1328,-4.1172,-4.1172,-4.1172,-4.1172,-4.1172,-4.1172,-4.1172,-4.1172,-4.1172,-4.1172,-4.1172,-4.1172,-4.1172,-4.125,-4.1327,-4.1638,-4.2005,-4.2236,-4.2313,-4.239,-4.2447,-4.2293,-4.2082,-4.185,-4.1695,-4.154,-4.125,-4.1172,-4.1618,-4.237,-4.3081,-4.405,-4.5181,-4.6299,-4.7281,-4.7945,-4.8151,-4.8256,-4.814,-4.7298,-4.6527,-4.6033,-4.4821,-4.3522,-4.2821,-4.1909,-4.1414,-4.1473,-4.17,-4.2651,-4.3697,-4.5051,-4.6123,-4.6968,-4.7613,-4.7863,-4.7838,-4.8106,-4.8246,-4.8209,-4.8322,-4.8485,-4.8636,-4.8698,-4.8823,-4.8885,-4.8932,-4.9082,-4.9071,-4.9046,-4.93,-4.9049,-4.8711,-4.851,-4.841,-4.8335,-4.8284,-4.8284,-4.8259,-4.836,-4.846,-4.8234,-4.8159,-4.7983,-4.7757,-4.7481,-4.7043,-4.6728,-4.6301,-4.5723,-4.5196,-4.4744,-4.4141,-4.3564,-4.3212,-4.3087,-4.3037,-4.2986,-4.2986,-4.2986,-4.2986,-4.2836,-4.2514,-4.2187,-4.5469,-4.5058,-4.5019,-4.4531,-4.375,-4.3301,-4.2871,-4.2461,-4.2051,-4.1641,-4.1211,-4.1172,-4.1172,-4.1172,-4.1172,-4.1172,-4.1172,-4.1172,-4.1172,-4.1172,-4.1172,-4.125,-4.1327,-4.1327,-4.1483,-4.1695,-4.2005,-4.2621,-4.3254,-4.3392,-4.3045,-4.2524,-4.2774,-4.2313,-4.2084,-4.2106,-4.1776,-4.1367,-4.1269,-4.16,-4.2256,-4.2927,-4.3615,-4.473,-4.563,-4.6448,-4.7208,-4.7535,-4.7636,-4.7686,-4.6843,-4.6184,-4.5587,-4.4489,-4.3397,-4.2562,-4.2135,-4.1596,-4.1253,-4.1778,-4.2861,-4.4021,-4.5324,-4.665,-4.7239,-4.8084,-4.8387,-4.837,-4.8457,-4.8814,-4.9017,-4.9182,-4.9021,-4.906,-4.8957,-4.8814,-4.8824,-4.8704,-4.8828,-4.9047,-4.9202,-4.9332,-4.9461,-4.9074,-4.9038,-4.8962,-4.8987,-4.8937,-4.9063,-4.9088,-4.9213,-4.9213,-4.8912,-4.8736,-4.8636,-4.8335,-4.7883,-4.7456,-4.7054,-4.6677,-4.6225,-4.5698,-4.5045,-4.4669,-4.4141,-4.3639,-4.3237,-4.3413,-4.3413,-4.3112,-4.2986,-4.2986,-4.2911,-4.269,-4.2464,-4.543,-4.5,-4.4766,-4.4277,-4.3691,-4.3535,-4.3223,-4.2793,-4.2363,-4.1777,-4.1172,-4.1172,-4.1172,-4.1172,-4.1172,-4.1172,-4.1172,-4.1172,-4.125,-4.1327,-4.1405,-4.154,-4.1618,-4.187,-4.2005,-4.2333,-4.2621,-4.2984,-4.3539,-4.4419,-4.4621,-4.4273,-4.3877,-4.3536,-4.3274,-4.2739,-4.221,-4.1719,-4.1582,-4.1758,-4.2024,-4.2697,-4.331,-4.3974,-4.5181,-4.5704,-4.6151,-4.6448,-4.667,-4.6551,-4.608,-4.5644,-4.5187,-4.4261,-4.3373,-4.2679,-4.2418,-4.1845,-4.1317,-4.1925,-4.2791,-4.4228,-4.5392,-4.6294,-4.7032,-4.7654,-4.805,-4.8223,-4.8576,-4.8837,-4.9072,-4.9007,-4.8893,-4.9072,-4.9057,-4.8886,-4.869,-4.8518,-4.851,-4.8616,-4.8942,-4.9137,-4.9332,-4.9411,-4.9475,-4.954,-4.9565,-4.959,-4.959,-4.959,-4.959,-4.959,-4.9289,-4.9213,-4.9113,-4.8711,-4.8234,-4.7807,-4.7405,-4.6954,-4.6527,-4.5849,-4.5271,-4.497,-4.4719,-4.4267,-4.4016,-4.4016,-4.3815,-4.3438,-4.3162,-4.2986,-4.2861,-4.2816,-4.2715,-4.5234,-4.4805,-4.4375,-4.4004,-4.3711,-4.3691,-4.3398,-4.2891,-4.2558,-4.1953,-4.1191,-4.1172,-4.1172,-4.1172,-4.1172,-4.1172,-4.125,-4.1327,-4.1405,-4.156,-4.1773,-4.2005,-4.2276,-4.2588,-4.2941,-4.3208,-4.3967,-4.4531,-4.5108,-4.5822,-4.6289,-4.6225,-4.5574,-4.5145,-4.423,-4.3575,-4.2704,-4.1974,-4.1837,-4.1817,-4.191,-4.2313,-4.2774,-4.3233,-4.4125,-4.4504,-4.4805,-4.5106,-4.548,-4.5405,-4.5234,-4.5084,-4.4677,-4.4208,-4.3527,-4.3094,-4.277,-4.2322,-4.1991,-4.2145,-4.2953,-4.4319,-4.5051,-4.5822,-4.6496,-4.7098,-4.7497,-4.7696,-4.8116,-4.8559,-4.896,-4.9002,-4.9199,-4.943,-4.8771,-4.8548,-4.836,-4.8203,-4.8123,-4.8182,-4.8551,-4.8942,-4.9267,-4.9396,-4.9525,-4.959,-4.959,-4.959,-4.959,-4.959,-4.959,-4.959,-4.954,-4.954,-4.954,-4.9163,-4.8761,-4.8284,-4.7832,-4.7255,-4.6728,-4.61,-4.5598,-4.5296,-4.507,-4.4844,-4.4618,-4.4392,-4.4066,-4.3689,-4.3463,-4.3263,-4.2961,-4.2861,-4.2911,-4.4805,-4.4375,-4.3926,-4.373,-4.3652,-4.3691,-4.3242,-4.2617,-4.2402,-4.1914,-4.1211,-4.1172,-4.1172,-4.1172,-4.1172,-4.125,-4.1405,-4.1618,-4.1773,-4.1927,-4.2393,-4.2661,-4.3208,-4.3623,-4.4334,-4.4999,-4.5762,-4.6526,-4.7193,-4.7608,-4.811,-4.8078,-4.7422,-4.6322,-4.5018,-4.3777,-4.2704,-4.1974,-4.1894,-4.1857,-4.1873,-4.191,-4.2236,-4.2524,-4.306,-4.3386,-4.3691,-4.4071,-4.4352,-4.4428,-4.4449,-4.4352,-4.431,-4.4008,-4.3421,-4.2885,-4.2973,-4.2758,-4.247,-4.255,-4.3359,-4.4383,-4.5141,-4.5689,-4.6095,-4.661,-4.7218,-4.7556,-4.7913,-4.8349,-4.8743,-4.912,-4.9407,-4.9389,-4.87,-4.8267,-4.8147,-4.794,-4.7935,-4.801,-4.837,-4.8731,-4.9097,-4.9396,-4.9525,-4.959,-4.959,-4.959,-4.959,-4.959,-4.959,-4.959,-4.959,-4.959,-4.959,-4.959,-4.9289,-4.8812,-4.8259,-4.7682,-4.7154,-4.6602,-4.6125,-4.5698,-4.5497,-4.5397,-4.5045,-4.4611,-4.4543,-4.4418,-4.389,-4.3589,-4.3237,-4.2986,-4.2986,-4.4531,-4.4355,-4.3906,-4.3535,-4.332,-4.3281,-4.3105,-4.2793,-4.2266,-4.168,-4.125,-4.1172,-4.1172,-4.1172,-4.125,-4.1405,-4.1618,-4.1695,-4.1927,-4.2661,-4.3326,-4.4085,-4.4712,-4.5468,-4.6108,-4.6689,-4.7477,-4.8024,-4.8218,-4.9032,-4.9364,-4.9333,-4.8432,-4.6932,-4.5502,-4.4402,-4.3816,-4.2837,-4.2383,-4.2091,-4.1837,-4.1796,-4.185,-4.2082,-4.2467,-4.2697,-4.2948,-4.3386,-4.3615,-4.3843,-4.3919,-4.4071,-4.4201,-4.405,-4.4063,-4.3895,-4.4175,-4.4209,-4.4132,-4.4257,-4.4359,-4.5006,-4.5411,-4.5944,-4.6674,-4.6946,-4.7353,-4.7829,-4.8334,-4.8869,-4.9315,-4.916,-4.9281,-4.9121,-4.8659,-4.8341,-4.8064,-4.788,-4.7854,-4.7997,-4.8227,-4.8912,-4.9376,-4.9546,-4.9676,-4.969,-4.969,-4.9615,-4.9615,-4.959,-4.959,-4.959,-4.959,-4.959,-4.959,-4.959,-4.9439,-4.8962,-4.8535,-4.8109,-4.7581,-4.7104,-4.6702,-4.6301,-4.6125,-4.5949,-4.5723,-4.5522,-4.5447,-4.5221,-4.4593,-4.4041,-4.3689,-4.3288,-4.2986,-4.4219,-4.3906,-4.3613,-4.3242,-4.291,-4.3008,-4.293,-4.2558,-4.1894,-4.1426,-4.1211,-4.1172,-4.1327,-4.1385,-4.1463,-4.1773,-4.2159,-4.239,-4.309,-4.3842,-4.4628,-4.5605,-4.6572,-4.7422,-4.8025,-4.8628,-4.9319,-4.9867,-5.0034,-5.059,-5.0628,-5.0049,-4.9025,-4.7416,-4.5995,-4.5028,-4.4255,-4.3232,-4.2598,-4.2187,-4.1856,-4.168,-4.1638,-4.185,-4.2082,-4.237,-4.2774,-4.3081,-4.331,-4.3615,-4.3919,-4.4222,-4.4504,-4.4654,-4.4805,-4.5106,-4.5362,-4.5531,-4.55,-4.6055,-4.6317,-4.6653,-4.63,-4.6565,-4.728,-4.7669,-4.8011,-4.8471,-4.9033,-4.9431,-4.9781,-4.9531,-4.9466,-4.9328,-4.8913,-4.8565,-4.8192,-4.8006,-4.7979,-4.813,-4.8754,-4.933,-4.9756,-4.9786,-4.9916,-4.9841,-4.9766,-4.9741,-4.9715,-4.9741,-4.9715,-4.9665,-4.964,-4.964,-4.9615,-4.959,-4.9414,-4.9113,-4.8786,-4.846,-4.8159,-4.7707,-4.728,-4.6979,-4.6928,-4.6828,-4.6577,-4.6376,-4.6075,-4.5673,-4.5146,-4.4618,-4.4166,-4.374,-4.3288,-4.3848,-4.3125,-4.3047,-4.2812,-4.2519,-4.2734,-4.248,-4.1777,-4.1367,-4.1191,-4.1172,-4.125,-4.1385,-4.1695,-4.185,-4.2313,-4.3065,-4.3427,-4.4495,-4.5498,-4.6268,-4.7421,-4.8481,-4.9288,-4.9972,-5.0788,-5.1407,-5.1728,-5.2007,-5.1838,-5.1501,-5.0543,-4.9236,-4.7608,-4.6324,-4.5251,-4.4335,-4.3428,-4.2695,-4.2384,-4.2092,-4.1582,-4.1677,-4.185,-4.2082,-4.239,-4.2851,-4.3289,-4.3691,-4.4071,-4.4449,-4.4955,-4.533,-4.548,-4.5704,-4.6077,-4.6522,-4.6625,-4.6876,-4.7568,-4.8098,-4.8203,-4.772,-4.7702,-4.7981,-4.8489,-4.8903,-4.9294,-4.983,-5.0141,-5.0336,-5.0343,-5.0256,-4.9837,-4.9345,-4.8921,-4.8497,-4.8334,-4.8263,-4.8651,-4.949,-5.0122,-5.0372,-5.0419,-5.0368,-5.0318,-5.0293,-5.0268,-5.0218,-5.0092,-5.0042,-4.9816,-4.9766,-4.969,-4.9665,-4.9615,-4.954,-4.9314,-4.9113,-4.8812,-4.8535,-4.8234,-4.7857,-4.7631,-4.7782,-4.7657,-4.723,-4.6828,-4.6451,-4.6024,-4.5698,-4.5221,-4.4769,-4.4217,-4.3815,-4.3125,-4.2617,-4.2617,-4.2363,-4.1992,-4.1797,-4.1562,-4.1348,-4.1211,-4.1172,-4.1172,-4.1463,-4.1773,-4.185,-4.241,-4.3081,-4.3871,-4.4744,-4.5998,-4.7027,-4.8097,-4.9314,-5.0361,-5.1215,-5.1903,-5.24,-5.2897,-5.3143,-5.2968,-5.2764,-5.1362,-4.9886,-4.8965,-4.7512,-4.6306,-4.5291,-4.4435,-4.3687,-4.2893,-4.2682,-4.2447,-4.2033,-4.2086,-4.2159,-4.2544,-4.2851,-4.3386,-4.4125,-4.4579,-4.4955,-4.5405,-4.5928,-4.6596,-4.6743,-4.6891,-4.7648,-4.7868,-4.8013,-4.8259,-4.8572,-4.9078,-4.9747,-4.9582,-4.9462,-4.9503,-4.9568,-4.9845,-5.0332,-5.0685,-5.1023,-5.1146,-5.1104,-5.0828,-5.0313,-4.9818,-4.9487,-4.9085,-4.9015,-4.9015,-4.9638,-5.0479,-5.0709,-5.0989,-5.1021,-5.0971,-5.0896,-5.0845,-5.082,-5.0745,-5.0619,-5.0444,-5.0243,-5.0142,-5.0117,-4.9766,-4.9665,-4.9615,-4.954,-4.9339,-4.9113,-4.8862,-4.8586,-4.8309,-4.8184,-4.8184,-4.8008,-4.7757,-4.733,-4.6903,-4.6702,-4.6401,-4.5874,-4.5347,-4.4794,-4.4392,-4.2558,-4.2187,-4.2168,-4.1933,-4.1543,-4.1503,-4.1385,-4.1385,-4.1385,-4.1385,-4.1483,-4.185,-4.2236,-4.2621,-4.3233,-4.4071,-4.5224,-4.6235,-4.7392,-4.8892,-4.9935,-5.1059,-5.2189,-5.293,-5.3425,-5.3822,-5.3972,-5.3972,-5.3596,-5.2612,-5.1231,-4.9886,-4.8785,-4.7352,-4.6225,-4.5535,-4.4964,-4.4214,-4.3593,-4.3239,-4.2942,-4.2721,-4.2672,-4.2891,-4.3351,-4.3808,-4.4395,-4.5224,-4.5801,-4.6247,-4.6596,-4.7186,-4.7918,-4.8136,-4.8427,-4.9029,-4.9029,-4.9005,-4.9126,-4.9485,-5.0009,-5.0577,-5.1025,-5.1066,-5.0895,-5.0888,-5.1097,-5.1423,-5.1713,-5.2005,-5.1935,-5.1796,-5.1282,-5.0789,-5.0435,-5.008,-4.9914,-4.9842,-5.029,-5.0819,-5.1196,-5.1426,-5.159,-5.1582,-5.1498,-5.1297,-5.1348,-5.1523,-5.1373,-5.1147,-5.0996,-5.0795,-5.0695,-5.0619,-5.0218,-4.9891,-4.9866,-4.9791,-4.954,-4.9339,-4.9113,-4.9038,-4.8912,-4.8686,-4.846,-4.8335,-4.8259,-4.7782,-4.738,-4.7205,-4.6954,-4.6451,-4.5924,-4.5372,-4.507,-4.2129,-4.1758,-4.1738,-4.1621,-4.1347,-4.1695,-4.185,-4.1927,-4.2005,-4.1927,-4.2005,-4.2313,-4.3004,-4.3615,-4.4277,-4.533,-4.6572,-4.7716,-4.9084,-5.0662,-5.1643,-5.2692,-5.3555,-5.4272,-5.4421,-5.4645,-5.457,-5.4197,-5.3648,-5.236,-5.0844,-4.9964,-4.8547,-4.7192,-4.6165,-4.5617,-4.5291,-4.5108,-4.4542,-4.4161,-4.3878,-4.3571,-4.3457,-4.394,-4.4411,-4.4921,-4.5803,-4.6676,-4.7445,-4.7739,-4.8155,-4.8783,-4.9221,-4.9723,-5.0104,-5.0175,-5.0246,-5.0104,-5.0151,-5.0435,-5.0718,-5.1165,-5.1446,-5.1841,-5.1882,-5.1693,-5.1877,-5.2084,-5.2327,-5.2446,-5.2377,-5.2169,-5.1796,-5.1376,-5.1025,-5.0718,-5.0577,-5.0648,-5.1138,-5.1689,-5.1916,-5.2172,-5.2116,-5.2176,-5.2126,-5.18,-5.1825,-5.2126,-5.2051,-5.1774,-5.1548,-5.1373,-5.1297,-5.1147,-5.0745,-5.0444,-5.0268,-5.0092,-4.9866,-4.9741,-4.9665,-4.9615,-4.9565,-4.9264,-4.8937,-4.8887,-4.8736,-4.8309,-4.7908,-4.7657,-4.7355,-4.6979,-4.6476,-4.5999,-4.5723,-4.1699,-4.1406,-4.1698,-4.1717,-4.1695,-4.2062,-4.2467,-4.2697,-4.3081,-4.3004,-4.2851,-4.3233,-4.3822,-4.4654,-4.5555,-4.6596,-4.7733,-4.9329,-5.0775,-5.2009,-5.3101,-5.3856,-5.462,-5.4942,-5.5164,-5.5041,-5.4719,-5.3972,-5.2664,-5.1285,-4.9964,-4.8626,-4.7512,-4.6548,-4.5921,-4.5535,-4.5434,-4.582,-4.5676,-4.539,-4.518,-4.5006,-4.4925,-4.5749,-4.6419,-4.6963,-4.7795,-4.8666,-4.9227,-4.963,-5.0071,-5.0412,-5.0672,-5.1095,-5.1306,-5.1376,-5.133,-5.1165,-5.1165,-5.1306,-5.1516,-5.1866,-5.2144,-5.2446,-5.2491,-5.2352,-5.2352,-5.2654,-5.2792,-5.2723,-5.2723,-5.2515,-5.2308,-5.1935,-5.1656,-5.1446,-5.1165,-5.1586,-5.2005,-5.2377,-5.2654,-5.2717,-5.266,-5.2678,-5.2653,-5.2628,-5.2628,-5.2729,-5.2653,-5.2477,-5.2176,-5.2,-5.1925,-5.1724,-5.1297,-5.1021,-5.0845,-5.067,-5.0469,-5.0343,-5.0193,-4.9866,-4.959,-4.959,-4.9439,-4.9314,-4.9138,-4.8887,-4.851,-4.8159,-4.7883,-4.7531,-4.7205,-4.6753,-4.6476,-4.1387,-4.125,-4.1618,-4.2005,-4.239,-4.2774,-4.3213,-4.3843,-4.4201,-4.4579,-4.473,-4.4654,-4.4955,-4.5779,-4.6743,-4.7868,-4.8925,-5.0736,-5.1872,-5.2987,-5.4108,-5.477,-5.5337,-5.5485,-5.5411,-5.5263,-5.4347,-5.3195,-5.1516,-5.0355,-4.9179,-4.7832,-4.679,-4.6246,-4.5779,-4.5617,-4.5861,-4.6569,-4.6569,-4.6643,-4.6531,-4.6332,-4.6223,-4.7091,-4.775,-4.8459,-4.9397,-5.022,-5.0872,-5.1247,-5.1514,-5.158,-5.1709,-5.1866,-5.203,-5.2005,-5.203,-5.203,-5.196,-5.2005,-5.2169,-5.2377,-5.2585,-5.2723,-5.2792,-5.2654,-5.2654,-5.2861,-5.2861,-5.2861,-5.2861,-5.2723,-5.2515,-5.2213,-5.2074,-5.1935,-5.1866,-5.2005,-5.2352,-5.2629,-5.2792,-5.2767,-5.2829,-5.2829,-5.2804,-5.2804,-5.2904,-5.2929,-5.2861,-5.2861,-5.2703,-5.2553,-5.2402,-5.2176,-5.1774,-5.1574,-5.1448,-5.1272,-5.1071,-5.0695,-5.0393,-4.9916,-4.959,-4.959,-4.959,-4.9565,-4.9389,-4.9188,-4.8937,-4.8586,-4.836,-4.8134,-4.7807,-4.7456,-4.7154,-4.1269,-4.1327,-4.185,-4.2467,-4.3157,-4.3691,-4.4352,-4.5106,-4.548,-4.6299,-4.7112,-4.6352,-4.667,-4.7332,-4.7941,-4.9124,-5.0389,-5.1898,-5.2888,-5.3739,-5.4965,-5.5361,-5.5485,-5.5485,-5.5164,-5.4496,-5.3497,-5.2107,-5.0565,-4.9494,-4.8389,-4.7213,-4.6649,-4.6347,-4.6044,-4.6104,-4.6509,-4.6993,-4.7213,-4.7635,-4.7682,-4.7626,-4.7631,-4.7948,-4.8539,-4.9299,-5.0428,-5.1396,-5.2305,-5.2502,-5.2641,-5.2576,-5.2511,-5.2546,-5.2446,-5.2446,-5.2446,-5.2308,-5.2144,-5.2308,-5.2446,-5.2585,-5.2792,-5.2861,-5.2861,-5.2861,-5.2861,-5.2861,-5.2861,-5.2861,-5.2861,-5.2861,-5.2654,-5.2585,-5.2515,-5.2446,-5.2446,-5.2421,-5.2629,-5.2861,-5.2861,-5.2861,-5.2861,-5.2861,-5.2861,-5.2861,-5.2861,-5.2861,-5.2861,-5.2861,-5.2829,-5.2779,-5.2729,-5.2477,-5.2226,-5.2126,-5.2026,-5.1875,-5.1624,-5.1096,-5.0594,-5.0167,-4.9816,-4.959,-4.959,-4.959,-4.959,-4.9464,-4.9213,-4.8962,-4.8887,-4.8711,-4.8284,-4.7983,-4.7732,-4.1405,-4.1773,-4.2774,-4.3539,-4.405,-4.473,-4.5704,-4.667,-4.6817,-4.7457,-4.8404,-4.8789,-4.8933,-4.9054,-4.9509,-5.0389,-5.1559,-5.2908,-5.3833,-5.469,-5.5455,-5.5679,-5.5485,-5.509,-5.4248,-5.3271,-5.2207,-5.103,-4.955,-4.8468,-4.7432,-4.6387,-4.5617,-4.5535,-4.5861,-4.6104,-4.6569,-4.7132,-4.7693,-4.8034,-4.8352,-4.846,-4.8855,-4.9273,-4.9874,-5.0856,-5.1851,-5.2608,-5.3269,-5.3571,-5.3579,-5.3437,-5.3178,-5.2903,-5.2823,-5.2723,-5.2723,-5.2654,-5.2585,-5.2654,-5.2723,-5.2723,-5.2861,-5.2861,-5.2861,-5.2861,-5.2861,-5.2861,-5.2861,-5.2861,-5.2861,-5.2861,-5.2792,-5.2792,-5.2723,-5.2723,-5.2723,-5.2723,-5.2792,-5.2861,-5.2861,-5.2861,-5.2861,-5.2861,-5.2861,-5.2861,-5.2861,-5.2861,-5.2861,-5.2861,-5.2861,-5.2861,-5.2861,-5.2861,-5.2754,-5.2653,-5.2553,-5.2427,-5.2126,-5.1523,-5.0996,-5.0494,-5.0167,-4.9891,-4.9665,-4.959,-4.959,-4.959,-4.954,-4.9339,-4.9414,-4.9289,-4.8837,-4.851,-4.8309]},{"header":{"parameterUnit":"m.s-1","parameterCategory":1,"la1":31.0,"la2":29.5877,"lo1":-88.7671,"lo2":-86.6584,"dy":0.0162,"dx":0.0185,"nx":115,"ny":88,"refTime":"2023-06-18T18:00:00:Z","depth":0,"parameterNumber":3,"parameterNumberName":"V-component_of_WINDS"},"data":[0.0,0.0,0.0,0.0,0.0,0.0,0.0,0.0,0.0,0.0,0.0,0.0,0.0,0.0,0.0,0.0,0.0,0.0,0.0,0.0,0.0,0.0,0.0,0.0,0.0,0.0,0.0,0.0,0.0,0.0,0.0,0.0,0.0,0.0,0.0,0.0,0.0,0.0,0.0,0.0,0.0,0.0,0.0,0.0,0.0,0.0,0.0,0.0,0.0,0.0,0.0,0.0,0.0,0.0,0.0,0.0,0.0,0.0,0.0,0.0,0.0,0.0,0.0,0.0,0.0,0.0,0.0,0.0,0.0,0.0,0.0,0.0,0.0,0.0,0.0,0.0,0.0,0.0,0.0,0.0,0.0,0.0,0.0,0.0,0.0,0.0,0.0,0.0,0.0,0.0,0.0,0.0,0.0,0.0,0.0,0.0,0.0,0.0,0.0,0.0,0.0,0.0,0.0,0.0,0.0,0.0,0.0,0.0,0.0,0.0,0.0,0.0,0.0,0.0,0.0,0.0,0.0,0.0,0.0,0.0,0.0,0.0,0.0,0.0,0.0,0.0,0.0,0.0,0.0,0.0,0.0,0.0,0.0,0.0,0.0,0.0,0.0,0.0,0.0,0.0,0.0,0.0,0.0,0.0,0.0,0.0,0.0,0.0,0.0,0.0,0.0,0.0,0.0,0.0,0.0,0.0,0.0,0.0,0.0,0.0,0.0,0.0,0.0,0.0,0.0,0.0,0.0,0.0,0.0,0.0,0.0,0.0,0.0,0.0,0.0,0.0,0.0,0.0,0.0,0.0,0.0,0.0,0.0,0.0,0.0,0.0,0.0,0.0,0.0,0.0,0.0,0.0,0.0,0.0,0.0,0.0,0.0,0.0,0.0,0.0,0.0,0.0,0.0,0.0,0.0,0.0,0.0,0.0,0.0,0.0,0.0,0.0,0.0,0.0,0.0,0.0,0.0,0.0,0.0,0.0,0.0,0.0,0.0,0.0,0.0,0.0,0.0,0.0,0.0,0.0,0.0,0.0,0.0,0.0,0.0,0.0,0.0,0.0,0.0,0.0,0.0,0.0,0.0,0.0,0.0,0.0,0.0,0.0,0.0,0.0,0.0,0.0,0.0,0.0,0.0,0.0,0.0,0.0,0.0,0.0,0.0,0.0,0.0,0.0,0.0,0.0,0.0,0.0,0.0,0.0,0.0,0.0,0.0,0.0,0.0,0.0,0.0,0.0,0.0,0.0,0.0,0.0,0.0,0.0,0.0,0.0,0.0,0.0,0.0,0.0,0.0,0.0,0.0,0.0,0.0,0.0,0.0,0.0,0.0,0.0,0.0,0.0,0.0,0.0,0.0,0.0,0.0,0.0,0.0,0.0,0.0,0.0,0.0,0.0,0.0,0.0,0.0,0.0,0.0,0.0,0.0,0.0,0.0,0.0,0.0,0.0,0.0,0.0,0.0,0.0,0.0,0.0,0.0,0.0,0.0,0.0,0.0,0.0,0.0,0.0,0.0,0.0,0.0,0.0,0.0,0.0,0.0,0.0,0.0,0.0,0.0,0.0,0.0,0.0,0.0,0.0,0.0,0.0,0.0,0.0,0.0,0.0,0.0,0.0,0.0,0.0,0.0,0.0,0.0,0.0,0.0,0.0,0.0,0.0,0.0,0.0,0.0,0.0,0.0,0.0,0.0,0.0,0.0,0.0,0.0,0.0,0.0,0.0,0.0,0.0,0.0,0.0,0.0,0.0,0.0,0.0,0.0,0.0,0.0,0.0,0.0,0.0,0.0,0.0,0.0,0.0,0.0,0.0,0.0,0.0,0.0,0.0,0.0,0.0,0.0,0.0,0.0,0.0,0.0,0.0,0.0,0.0,0.0,0.0,0.0,0.0,0.0,0.0,0.0,0.0,0.0,0.0,0.0,0.0,0.0,0.0,0.0,0.0,0.0,0.0,0.0,0.0,0.0,0.0,0.0,0.0,0.0,0.0,0.0,0.0,0.0,0.0,0.0,0.0,0.0,0.0,0.0,0.0,0.0,0.0,0.0,0.0,0.0,0.0,0.0,0.0,0.0,0.0,0.0,0.0,0.0,0.0,0.0,0.0,0.0,0.0,0.0,0.0,0.0,0.0,0.0,0.0,0.0,0.0,0.0,0.0,0.0,0.0,0.0,0.0,0.0,0.0,0.0,0.0,0.0,0.0,0.0,0.0,0.0,0.0,0.0,0.0,0.0,0.0,0.0,0.0,0.0,0.0,0.0,0.0,0.0,0.0,0.0,0.0,0.0,0.0,0.0,0.0,0.0,0.0,0.0,0.0,0.0,0.0,0.0,0.0,0.0,0.0,0.0,0.0,0.0,0.0,0.0,0.0,0.0,0.0,0.0,0.0,0.0,0.0,0.0,0.0,0.0,0.0,0.0,0.0,0.0,0.0,0.0,0.0,0.0,0.0,0.0,0.0,0.0,0.0,0.0,0.0,0.0,0.0,0.0,0.0,0.0,0.0,0.0,0.0,0.0,0.0,0.0,0.0,0.0,0.0,0.0,0.0,0.0,0.0,0.0,0.0,0.0,0.0,0.0,0.0,0.0,0.0,0.0,0.0,0.0,0.0,0.0,0.0,0.0,0.0,0.0,0.0,0.0,0.0,0.0,0.0,0.0,0.0,0.0,0.0,0.0,0.0,0.0,0.0,0.0,0.0,0.0,0.0,0.0,0.0,0.0,0.0,0.0,0.0,0.0,0.0,0.0,0.0,0.0,0.0,0.0,0.0,0.0,0.0,0.0,0.0,0.0,0.0,0.0,0.0,0.0,0.0,0.0,0.0,0.0,0.0,0.0,0.0,0.0,0.0,0.0,0.0,0.0,0.0,0.0,0.0,0.0,0.0,0.0,0.0,0.0,0.0,0.0,0.0,0.0,0.0,0.0,0.0,0.0,0.0,0.0,0.0,0.0,0.0,0.0,0.0,0.0,0.0,0.0,0.0,0.0,0.0,0.0,0.0,0.0,0.0,0.0,0.0,0.0,0.0,0.0,0.0,0.0,0.0,0.0,0.0,0.0,0.0,0.0,0.0,0.0,0.0,0.0,0.0,0.0,0.0,0.0,0.0,0.0,0.0,0.0,0.0,0.0,0.0,0.0,0.0,0.0,0.0,0.0,0.0,0.0,0.0,0.0,0.0,0.0,0.0,0.0,0.0,0.0,0.0,0.0,0.0,0.0,0.0,0.0,0.0,0.0,0.0,0.0,0.0,0.0,0.0,0.0,0.0,0.0,0.0,0.0,0.0,0.0,0.0,0.0,0.0,0.0,0.0,0.0,0.0,0.0,0.0,0.0,0.0,0.0,0.0,0.0,0.0,0.0,0.0,0.0,0.0,0.0,0.0,0.0,0.0,0.0,0.0,0.0,0.0,0.0,0.0,0.0,0.0,0.0,0.0,0.0,0.0,0.0,0.0,0.0,0.0,0.0,0.0,0.0,0.0,0.0,0.0,0.0,0.0,0.0,0.0,0.0,0.0,0.0,0.0,0.0,0.0,0.0,0.0,0.0,0.0,0.0,0.0,0.0,0.0,0.0,0.0,0.0,0.0,0.0,0.0,0.0,0.0,0.0,0.0,0.0,0.0,0.0,0.0,0.0,0.0,0.0,0.0,0.0,0.0,0.0,0.0,0.0,0.0,0.0,0.0,0.0,0.0,0.0,0.0,0.0,0.0,0.0,0.0,0.0,0.0,0.0,0.0,0.0,0.0,0.0,0.0,0.0,0.0,0.0,0.0,0.0,0.0,0.0,0.0,0.0,0.0,0.0,0.0,0.0,0.0,0.0,0.0,0.0,0.0,0.0,0.0,0.0,0.0,0.0,0.0,0.0,0.0,0.0,0.0,0.0,0.0,0.0,0.0,0.0,0.0,0.0,0.0,0.0,0.0,0.0,0.0,0.0,0.0,0.0,0.0,0.0,0.0,0.0,0.0,0.0,0.0,0.0,0.0,0.0,0.0,0.0,0.0,0.0,0.0,0.0,0.0,0.0,0.0,0.0,0.0,0.0,0.0,0.0,0.0,0.0,0.0,0.0,0.0,0.0,0.0,0.0,0.0,0.0,0.0,0.0,0.0,0.0,0.0,0.0,0.0,0.0,0.0,0.0,0.0,0.0,0.0,0.0,0.0,0.0,0.0,0.0,0.0,0.0,0.0,0.0,0.0,0.0,0.0,0.0,0.0,0.0,0.0,0.0,0.0,0.0,0.0,0.0,0.0,0.0,0.0,0.0,0.0,0.0,0.0,0.0,0.0,-4.2661,0.0,0.0,0.0,0.0,0.0,0.0,0.0,0.0,0.0,0.0,0.0,0.0,0.0,0.0,0.0,0.0,0.0,0.0,0.0,0.0,0.0,0.0,0.0,0.0,0.0,0.0,0.0,0.0,0.0,0.0,0.0,0.0,0.0,0.0,0.0,0.0,0.0,0.0,0.0,0.0,0.0,0.0,0.0,0.0,0.0,0.0,0.0,0.0,0.0,0.0,0.0,0.0,0.0,0.0,0.0,0.0,0.0,0.0,0.0,0.0,0.0,0.0,0.0,0.0,0.0,0.0,0.0,0.0,0.0,0.0,0.0,0.0,0.0,0.0,0.0,0.0,0.0,0.0,0.0,0.0,0.0,0.0,0.0,0.0,0.0,0.0,0.0,0.0,0.0,0.0,0.0,0.0,0.0,0.0,0.0,0.0,0.0,0.0,0.0,0.0,0.0,0.0,0.0,0.0,0.0,0.0,0.0,0.0,0.0,0.0,-4.5317,-4.5286,-4.4622,-4.4117,-4.3769,0.0,0.0,0.0,0.0,0.0,0.0,0.0,0.0,0.0,0.0,0.0,0.0,0.0,0.0,0.0,0.0,0.0,0.0,0.0,0.0,0.0,0.0,0.0,0.0,0.0,0.0,0.0,0.0,0.0,0.0,0.0,0.0,0.0,0.0,0.0,0.0,0.0,0.0,0.0,0.0,0.0,0.0,0.0,0.0,0.0,0.0,0.0,0.0,0.0,0.0,0.0,0.0,0.0,0.0,0.0,0.0,0.0,0.0,0.0,0.0,0.0,0.0,0.0,0.0,0.0,0.0,0.0,0.0,0.0,0.0,0.0,0.0,0.0,0.0,0.0,0.0,0.0,0.0,0.0,0.0,0.0,0.0,0.0,0.0,0.0,0.0,0.0,0.0,0.0,0.0,0.0,0.0,0.0,0.0,0.0,0.0,0.0,0.0,0.0,0.0,0.0,0.0,0.0,0.0,0.0,0.0,0.0,0.0,0.0,0.0,0.0,0.0,-4.5254,-4.4812,-4.4464,0.0,0.0,0.0,0.0,0.0,0.0,0.0,0.0,0.0,0.0,0.0,0.0,0.0,0.0,0.0,0.0,0.0,0.0,0.0,0.0,0.0,0.0,0.0,0.0,0.0,0.0,0.0,0.0,0.0,0.0,0.0,0.0,0.0,0.0,0.0,0.0,0.0,0.0,0.0,0.0,0.0,0.0,0.0,0.0,0.0,0.0,0.0,0.0,0.0,0.0,0.0,0.0,0.0,0.0,0.0,0.0,0.0,0.0,0.0,0.0,0.0,0.0,0.0,0.0,0.0,0.0,0.0,0.0,0.0,0.0,0.0,0.0,0.0,0.0,0.0,0.0,0.0,0.0,0.0,0.0,0.0,0.0,0.0,0.0,0.0,0.0,0.0,0.0,0.0,0.0,0.0,0.0,0.0,0.0,0.0,0.0,0.0,0.0,0.0,0.0,0.0,0.0,0.0,0.0,0.0,0.0,0.0,0.0,0.0,0.0,-4.5823,-4.5823,-4.5692,0.0,-4.3867,0.0,0.0,0.0,0.0,0.0,0.0,0.0,0.0,0.0,0.0,0.0,0.0,0.0,0.0,0.0,0.0,0.0,0.0,0.0,0.0,0.0,0.0,0.0,0.0,0.0,0.0,0.0,0.0,0.0,0.0,0.0,0.0,0.0,0.0,0.0,0.0,0.0,0.0,0.0,0.0,0.0,0.0,0.0,0.0,0.0,0.0,0.0,0.0,0.0,0.0,0.0,0.0,0.0,0.0,0.0,0.0,0.0,0.0,0.0,0.0,0.0,0.0,0.0,0.0,0.0,0.0,0.0,0.0,0.0,0.0,0.0,0.0,0.0,0.0,0.0,0.0,0.0,0.0,0.0,0.0,0.0,0.0,0.0,0.0,0.0,0.0,0.0,0.0,0.0,0.0,0.0,0.0,0.0,0.0,0.0,0.0,0.0,0.0,0.0,0.0,0.0,0.0,0.0,0.0,0.0,0.0,0.0,0.0,0.0,0.0,-4.5568,-4.5457,-4.5426,-4.484,0.0,0.0,0.0,0.0,0.0,0.0,0.0,0.0,0.0,0.0,0.0,0.0,0.0,0.0,0.0,0.0,0.0,0.0,0.0,0.0,0.0,0.0,0.0,0.0,0.0,0.0,0.0,0.0,0.0,0.0,0.0,0.0,0.0,0.0,0.0,0.0,0.0,0.0,0.0,0.0,0.0,0.0,0.0,0.0,0.0,0.0,0.0,0.0,0.0,0.0,0.0,0.0,0.0,0.0,0.0,0.0,0.0,0.0,0.0,0.0,0.0,0.0,0.0,0.0,0.0,0.0,0.0,0.0,0.0,0.0,0.0,0.0,0.0,0.0,0.0,0.0,0.0,0.0,0.0,0.0,0.0,0.0,0.0,0.0,0.0,0.0,0.0,0.0,0.0,0.0,0.0,0.0,0.0,0.0,0.0,0.0,0.0,0.0,0.0,0.0,0.0,0.0,0.0,0.0,0.0,0.0,0.0,0.0,0.0,0.0,-4.5426,-4.5352,-4.5235,-4.5204,-4.4622,-4.3388,0.0,0.0,0.0,0.0,0.0,0.0,0.0,0.0,0.0,0.0,0.0,0.0,0.0,0.0,0.0,0.0,0.0,0.0,0.0,0.0,0.0,0.0,0.0,0.0,0.0,0.0,0.0,0.0,0.0,0.0,0.0,0.0,0.0,0.0,0.0,0.0,0.0,0.0,0.0,0.0,0.0,0.0,0.0,0.0,0.0,0.0,0.0,0.0,0.0,0.0,0.0,0.0,0.0,0.0,0.0,0.0,0.0,0.0,0.0,0.0,0.0,0.0,0.0,0.0,0.0,0.0,0.0,0.0,0.0,0.0,0.0,0.0,0.0,0.0,0.0,0.0,0.0,0.0,0.0,0.0,0.0,0.0,0.0,0.0,0.0,0.0,0.0,0.0,0.0,0.0,0.0,0.0,0.0,0.0,0.0,0.0,0.0,0.0,0.0,0.0,0.0,0.0,0.0,0.0,0.0,0.0,0.0,0.0,-4.5463,-4.5278,-4.5235,-4.5167,-4.5204,-4.4549,0.0,0.0,0.0,0.0,0.0,0.0,0.0,0.0,0.0,0.0,0.0,0.0,0.0,0.0,0.0,0.0,0.0,0.0,0.0,0.0,0.0,0.0,0.0,0.0,0.0,0.0,0.0,0.0,0.0,0.0,0.0,0.0,0.0,0.0,0.0,0.0,0.0,0.0,0.0,0.0,0.0,0.0,0.0,0.0,0.0,0.0,0.0,0.0,0.0,0.0,0.0,0.0,0.0,0.0,0.0,0.0,0.0,0.0,0.0,0.0,0.0,0.0,0.0,0.0,0.0,0.0,0.0,0.0,0.0,0.0,0.0,0.0,0.0,0.0,0.0,0.0,0.0,0.0,0.0,0.0,0.0,0.0,0.0,0.0,0.0,0.0,0.0,0.0,0.0,0.0,0.0,0.0,0.0,0.0,0.0,0.0,0.0,0.0,0.0,0.0,0.0,0.0,0.0,0.0,0.0,0.0,0.0,0.0,0.0,-4.5278,-4.498,-4.483,-4.4799,-4.483,-4.4403,0.0,0.0,0.0,0.0,0.0,0.0,0.0,0.0,0.0,0.0,0.0,0.0,0.0,0.0,0.0,0.0,0.0,0.0,0.0,0.0,0.0,0.0,0.0,0.0,0.0,0.0,0.0,0.0,0.0,0.0,0.0,0.0,0.0,0.0,0.0,0.0,0.0,0.0,0.0,0.0,0.0,0.0,0.0,0.0,0.0,0.0,0.0,0.0,0.0,0.0,0.0,0.0,0.0,0.0,0.0,0.0,0.0,0.0,0.0,0.0,0.0,0.0,0.0,0.0,0.0,0.0,0.0,0.0,0.0,0.0,0.0,0.0,0.0,0.0,0.0,0.0,0.0,0.0,0.0,0.0,0.0,0.0,0.0,0.0,0.0,0.0,0.0,0.0,0.0,0.0,0.0,0.0,0.0,0.0,0.0,0.0,0.0,0.0,0.0,0.0,0.0,0.0,0.0,0.0,0.0,0.0,0.0,0.0,0.0,-4.5017,0.0,-4.461,-4.461,-4.461,-4.4339,0.0,0.0,0.0,0.0,0.0,0.0,0.0,0.0,0.0,0.0,0.0,0.0,0.0,0.0,0.0,0.0,0.0,0.0,0.0,0.0,0.0,0.0,0.0,0.0,0.0,0.0,0.0,0.0,0.0,0.0,0.0,0.0,0.0,0.0,0.0,0.0,0.0,0.0,0.0,0.0,0.0,0.0,0.0,0.0,0.0,0.0,0.0,0.0,0.0,0.0,0.0,0.0,0.0,0.0,0.0,0.0,0.0,0.0,0.0,0.0,0.0,0.0,0.0,0.0,0.0,0.0,0.0,0.0,0.0,0.0,0.0,0.0,0.0,0.0,0.0,0.0,0.0,0.0,0.0,0.0,0.0,0.0,0.0,0.0,0.0,0.0,0.0,0.0,0.0,0.0,0.0,0.0,0.0,0.0,0.0,0.0,0.0,0.0,0.0,0.0,0.0,0.0,0.0,0.0,0.0,0.0,0.0,0.0,-4.5017,-4.4641,-4.4671,-4.474,-4.4641,-4.4671,-4.4332,0.0,0.0,0.0,0.0,0.0,0.0,0.0,0.0,0.0,0.0,0.0,0.0,0.0,0.0,0.0,0.0,0.0,0.0,0.0,0.0,0.0,0.0,0.0,0.0,0.0,0.0,0.0,0.0,0.0,0.0,0.0,0.0,0.0,0.0,0.0,0.0,0.0,0.0,0.0,0.0,0.0,0.0,0.0,0.0,0.0,0.0,0.0,0.0,0.0,0.0,0.0,0.0,0.0,0.0,0.0,0.0,0.0,0.0,0.0,0.0,0.0,0.0,0.0,0.0,0.0,0.0,0.0,0.0,0.0,0.0,0.0,0.0,0.0,0.0,0.0,0.0,0.0,0.0,0.0,0.0,0.0,0.0,0.0,0.0,0.0,0.0,0.0,0.0,0.0,0.0,0.0,0.0,0.0,0.0,0.0,0.0,0.0,0.0,0.0,0.0,0.0,0.0,0.0,0.0,0.0,0.0,0.0,0.0,0.0,-4.551,-4.6129,-4.6485,-4.6454,-4.5835,-4.5417,0.0,0.0,0.0,0.0,0.0,0.0,0.0,0.0,0.0,0.0,0.0,0.0,0.0,0.0,0.0,0.0,0.0,0.0,0.0,0.0,0.0,0.0,0.0,0.0,0.0,0.0,0.0,0.0,0.0,0.0,0.0,0.0,0.0,0.0,0.0,0.0,0.0,0.0,0.0,0.0,0.0,0.0,0.0,0.0,0.0,0.0,0.0,0.0,0.0,0.0,0.0,0.0,0.0,0.0,0.0,0.0,0.0,0.0,0.0,0.0,0.0,0.0,0.0,0.0,0.0,0.0,0.0,0.0,0.0,0.0,0.0,0.0,0.0,0.0,0.0,0.0,0.0,0.0,0.0,0.0,0.0,0.0,0.0,0.0,0.0,0.0,0.0,0.0,0.0,0.0,0.0,0.0,0.0,0.0,0.0,0.0,0.0,0.0,0.0,0.0,0.0,0.0,0.0,0.0,0.0,0.0,0.0,0.0,0.0,-4.7934,-4.7864,-4.7793,-4.7793,-4.7208,-4.6586,-4.5897,0.0,0.0,0.0,0.0,0.0,0.0,0.0,0.0,0.0,0.0,0.0,0.0,0.0,0.0,0.0,0.0,0.0,0.0,0.0,0.0,0.0,0.0,0.0,0.0,0.0,0.0,0.0,0.0,0.0,0.0,0.0,0.0,0.0,0.0,0.0,0.0,0.0,0.0,0.0,0.0,0.0,0.0,0.0,0.0,0.0,0.0,0.0,0.0,0.0,0.0,0.0,0.0,0.0,0.0,0.0,0.0,0.0,0.0,0.0,0.0,0.0,0.0,0.0,0.0,0.0,0.0,0.0,0.0,0.0,0.0,0.0,0.0,0.0,0.0,0.0,0.0,0.0,0.0,0.0,0.0,0.0,0.0,0.0,0.0,0.0,0.0,0.0,0.0,0.0,0.0,0.0,0.0,0.0,0.0,0.0,0.0,0.0,0.0,0.0,0.0,0.0,0.0,0.0,0.0,0.0,0.0,0.0,0.0,-5.1518,-4.9915,-4.9056,-4.8954,-4.882,-4.7903,0.0,0.0,0.0,0.0,0.0,0.0,0.0,0.0,0.0,0.0,0.0,0.0,0.0,0.0,0.0,0.0,0.0,0.0,0.0,0.0,0.0,0.0,0.0,0.0,0.0,0.0,0.0,0.0,0.0,0.0,0.0,0.0,0.0,0.0,0.0,0.0,0.0,0.0,0.0,0.0,0.0,0.0,0.0,0.0,0.0,0.0,0.0,0.0,0.0,0.0,0.0,0.0,0.0,0.0,0.0,0.0,0.0,0.0,0.0,0.0,0.0,0.0,0.0,0.0,0.0,0.0,0.0,0.0,0.0,0.0,0.0,0.0,0.0,0.0,0.0,0.0,0.0,0.0,0.0,0.0,0.0,0.0,0.0,0.0,0.0,0.0,0.0,0.0,0.0,0.0,0.0,0.0,0.0,0.0,0.0,0.0,0.0,0.0,0.0,0.0,0.0,0.0,0.0,0.0,0.0,0.0,0.0,0.0,0.0,-5.3295,-5.4115,-5.3905,-5.2685,-5.1383,-4.986,0.0,0.0,0.0,0.0,0.0,0.0,0.0,0.0,0.0,0.0,0.0,0.0,0.0,0.0,0.0,0.0,0.0,0.0,0.0,0.0,0.0,0.0,0.0,0.0,0.0,0.0,0.0,0.0,0.0,0.0,0.0,0.0,0.0,0.0,0.0,0.0,0.0,0.0,0.0,0.0,0.0,0.0,0.0,0.0,0.0,0.0,0.0,0.0,0.0,0.0,0.0,0.0,0.0,0.0,0.0,0.0,0.0,0.0,0.0,0.0,0.0,0.0,0.0,0.0,0.0,0.0,0.0,0.0,0.0,0.0,0.0,0.0,0.0,0.0,0.0,0.0,0.0,0.0,0.0,0.0,0.0,0.0,0.0,0.0,0.0,0.0,0.0,0.0,0.0,0.0,0.0,0.0,0.0,0.0,0.0,0.0,0.0,0.0,0.0,0.0,0.0,0.0,0.0,0.0,0.0,0.0,0.0,0.0,-5.2965,-5.5709,-5.746,-5.7901,-5.6939,-5.4761,-5.2373,0.0,0.0,0.0,0.0,0.0,0.0,0.0,0.0,0.0,0.0,0.0,0.0,0.0,0.0,0.0,0.0,0.0,0.0,0.0,0.0,0.0,0.0,0.0,0.0,0.0,0.0,0.0,0.0,0.0,0.0,0.0,0.0,0.0,0.0,0.0,0.0,0.0,0.0,0.0,0.0,0.0,0.0,0.0,0.0,0.0,0.0,0.0,0.0,0.0,0.0,0.0,0.0,0.0,0.0,0.0,0.0,0.0,0.0,0.0,0.0,0.0,0.0,0.0,0.0,0.0,0.0,0.0,0.0,0.0,0.0,0.0,0.0,0.0,0.0,0.0,0.0,0.0,0.0,0.0,0.0,0.0,0.0,0.0,0.0,0.0,0.0,0.0,0.0,0.0,0.0,0.0,0.0,0.0,0.0,0.0,0.0,0.0,0.0,0.0,0.0,0.0,0.0,0.0,0.0,0.0,0.0,0.0,0.0,-5.5366,-5.8106,-6.0163,-6.1122,-6.099,-5.8269,-5.5002,0.0,0.0,0.0,0.0,0.0,0.0,0.0,0.0,0.0,0.0,0.0,0.0,0.0,0.0,0.0,0.0,0.0,0.0,0.0,0.0,0.0,0.0,0.0,0.0,0.0,0.0,0.0,0.0,0.0,0.0,0.0,0.0,0.0,0.0,0.0,0.0,0.0,0.0,0.0,0.0,0.0,0.0,0.0,0.0,0.0,0.0,0.0,0.0,0.0,0.0,0.0,0.0,0.0,0.0,0.0,0.0,0.0,0.0,0.0,0.0,0.0,0.0,0.0,0.0,0.0,0.0,0.0,0.0,0.0,0.0,0.0,0.0,0.0,0.0,0.0,0.0,0.0,0.0,0.0,0.0,0.0,0.0,0.0,0.0,0.0,0.0,0.0,0.0,0.0,0.0,0.0,0.0,0.0,0.0,0.0,0.0,0.0,0.0,0.0,0.0,0.0,0.0,0.0,0.0,0.0,0.0,0.0,0.0,-5.6802,-5.9076,-6.2098,-6.3328,-6.2766,-5.9502,-5.6116,0.0,0.0,0.0,0.0,0.0,0.0,0.0,0.0,0.0,0.0,0.0,0.0,0.0,0.0,0.0,0.0,0.0,0.0,0.0,0.0,0.0,0.0,0.0,0.0,0.0,0.0,0.0,0.0,0.0,0.0,0.0,0.0,0.0,0.0,0.0,0.0,0.0,0.0,0.0,0.0,0.0,0.0,0.0,0.0,0.0,0.0,0.0,0.0,-4.6298,0.0,0.0,0.0,0.0,0.0,0.0,0.0,0.0,0.0,0.0,0.0,0.0,0.0,0.0,0.0,0.0,0.0,0.0,0.0,0.0,0.0,0.0,0.0,0.0,0.0,0.0,0.0,0.0,0.0,0.0,0.0,0.0,0.0,0.0,0.0,0.0,0.0,0.0,0.0,0.0,0.0,0.0,0.0,0.0,0.0,0.0,0.0,0.0,0.0,0.0,0.0,0.0,0.0,0.0,0.0,0.0,0.0,0.0,0.0,-5.8381,-6.1028,-6.3703,-6.4839,-6.4407,-6.1815,-5.8531,0.0,0.0,0.0,0.0,0.0,0.0,0.0,0.0,0.0,0.0,0.0,0.0,0.0,0.0,0.0,0.0,0.0,0.0,0.0,0.0,0.0,0.0,0.0,0.0,0.0,0.0,0.0,0.0,0.0,0.0,0.0,0.0,0.0,0.0,0.0,0.0,0.0,0.0,0.0,0.0,0.0,0.0,0.0,0.0,0.0,0.0,0.0,0.0,0.0,0.0,0.0,0.0,0.0,0.0,0.0,0.0,0.0,0.0,0.0,0.0,0.0,0.0,0.0,0.0,0.0,0.0,0.0,0.0,0.0,0.0,0.0,0.0,0.0,0.0,0.0,0.0,0.0,0.0,0.0,0.0,0.0,0.0,0.0,0.0,0.0,0.0,0.0,0.0,0.0,0.0,0.0,0.0,0.0,0.0,0.0,0.0,0.0,0.0,0.0,0.0,0.0,0.0,0.0,0.0,0.0,0.0,0.0,-5.6895,-5.9961,-6.3176,-6.5193,-6.6168,-6.599,-6.4343,-6.125,-5.6848,0.0,0.0,0.0,0.0,0.0,0.0,0.0,0.0,0.0,0.0,0.0,0.0,0.0,0.0,0.0,0.0,0.0,0.0,0.0,0.0,0.0,0.0,0.0,0.0,0.0,0.0,0.0,0.0,0.0,0.0,0.0,0.0,0.0,0.0,0.0,0.0,0.0,0.0,-4.3445,-4.4021,0.0,0.0,0.0,0.0,0.0,0.0,0.0,0.0,-4.6741,0.0,0.0,0.0,0.0,0.0,0.0,0.0,0.0,0.0,0.0,0.0,0.0,0.0,0.0,0.0,0.0,0.0,0.0,0.0,0.0,0.0,0.0,0.0,0.0,0.0,0.0,0.0,0.0,0.0,0.0,0.0,0.0,0.0,0.0,0.0,0.0,0.0,0.0,0.0,0.0,0.0,0.0,0.0,0.0,0.0,0.0,0.0,0.0,0.0,0.0,0.0,0.0,0.0,0.0,0.0,0.0,-5.4952,-5.8349,-6.1485,-6.4371,-6.6909,-6.7846,-6.6989,-6.5758,-6.2958,-5.8485,0.0,0.0,0.0,0.0,0.0,0.0,0.0,0.0,0.0,0.0,0.0,0.0,0.0,0.0,0.0,0.0,0.0,0.0,0.0,0.0,0.0,0.0,0.0,0.0,0.0,0.0,0.0,0.0,0.0,0.0,0.0,0.0,0.0,0.0,0.0,0.0,0.0,0.0,0.0,-4.404,-4.4629,0.0,0.0,0.0,0.0,0.0,0.0,0.0,0.0,-4.7427,0.0,0.0,0.0,0.0,0.0,0.0,0.0,0.0,0.0,0.0,0.0,0.0,0.0,0.0,0.0,0.0,0.0,0.0,0.0,0.0,0.0,0.0,0.0,0.0,0.0,0.0,0.0,0.0,0.0,0.0,0.0,0.0,0.0,0.0,0.0,0.0,0.0,0.0,0.0,0.0,0.0,0.0,0.0,0.0,0.0,0.0,0.0,0.0,0.0,0.0,0.0,0.0,0.0,0.0,0.0,-5.6459,-5.9572,-6.2746,-6.5757,-6.7701,-6.8438,-6.7803,-6.6302,-6.3529,0.0,0.0,0.0,0.0,0.0,0.0,0.0,0.0,0.0,0.0,0.0,0.0,0.0,0.0,0.0,0.0,0.0,0.0,0.0,0.0,0.0,0.0,0.0,0.0,0.0,0.0,0.0,0.0,0.0,0.0,0.0,0.0,0.0,0.0,0.0,0.0,0.0,0.0,0.0,0.0,-4.4238,-4.4875,-4.543,0.0,0.0,0.0,0.0,0.0,0.0,-4.7735,-4.7666,0.0,0.0,0.0,0.0,0.0,0.0,0.0,0.0,0.0,0.0,0.0,0.0,0.0,0.0,0.0,0.0,0.0,0.0,0.0,0.0,0.0,0.0,0.0,0.0,0.0,0.0,0.0,0.0,0.0,0.0,0.0,0.0,0.0,0.0,0.0,0.0,0.0,0.0,0.0,0.0,0.0,0.0,0.0,0.0,0.0,0.0,0.0,0.0,0.0,0.0,0.0,0.0,0.0,0.0,0.0,-5.7683,-6.068,-6.3823,-6.6879,-6.8293,-6.8785,-6.8384,-6.6546,-6.3727,0.0,0.0,0.0,0.0,0.0,0.0,0.0,0.0,0.0,0.0,0.0,0.0,0.0,0.0,0.0,0.0,0.0,0.0,0.0,0.0,0.0,0.0,0.0,0.0,0.0,0.0,0.0,0.0,0.0,0.0,0.0,0.0,0.0,0.0,0.0,0.0,0.0,0.0,0.0,0.0,0.0,-4.5394,-4.6379,-4.6528,0.0,0.0,0.0,0.0,-4.8393,-4.8566,0.0,0.0,0.0,0.0,0.0,0.0,0.0,0.0,0.0,0.0,0.0,0.0,0.0,0.0,0.0,0.0,0.0,0.0,0.0,0.0,0.0,0.0,0.0,0.0,0.0,0.0,0.0,0.0,0.0,0.0,0.0,0.0,0.0,0.0,0.0,0.0,0.0,0.0,0.0,0.0,0.0,0.0,0.0,0.0,0.0,0.0,0.0,0.0,0.0,0.0,0.0,0.0,0.0,0.0,0.0,0.0,-5.7999,-6.1598,-6.471,-6.7167,-6.9052,-6.9501,-6.8384,-6.6546,-6.3815,0.0,0.0,0.0,0.0,0.0,0.0,0.0,0.0,0.0,0.0,0.0,0.0,0.0,0.0,0.0,0.0,0.0,0.0,0.0,0.0,0.0,0.0,0.0,0.0,0.0,0.0,0.0,0.0,0.0,0.0,0.0,0.0,0.0,0.0,0.0,0.0,0.0,0.0,0.0,0.0,0.0,-4.6463,-4.6786,-4.7944,-4.8939,0.0,0.0,-5.0469,-5.0745,-5.1027,0.0,0.0,0.0,0.0,0.0,0.0,0.0,0.0,0.0,0.0,0.0,0.0,0.0,0.0,0.0,0.0,0.0,0.0,0.0,0.0,0.0,0.0,0.0,0.0,0.0,0.0,0.0,0.0,0.0,0.0,0.0,0.0,0.0,0.0,0.0,0.0,0.0,0.0,0.0,0.0,0.0,0.0,0.0,0.0,0.0,0.0,0.0,0.0,0.0,0.0,0.0,0.0,0.0,0.0,0.0,-5.6856,-5.9385,-6.2586,-6.5454,-6.7848,-6.94,-6.9602,-6.8417,-6.6501,-6.3815,0.0,0.0,0.0,0.0,0.0,0.0,0.0,0.0,0.0,0.0,0.0,0.0,0.0,0.0,0.0,0.0,0.0,0.0,0.0,0.0,0.0,0.0,0.0,0.0,0.0,0.0,0.0,0.0,0.0,0.0,0.0,0.0,0.0,0.0,0.0,0.0,0.0,0.0,0.0,0.0,0.0,0.0,-4.7163,-4.843,0.0,0.0,0.0,-5.1764,-5.1643,0.0,0.0,0.0,0.0,0.0,0.0,0.0,0.0,0.0,0.0,0.0,0.0,0.0,0.0,0.0,0.0,0.0,0.0,0.0,0.0,0.0,0.0,0.0,0.0,0.0,0.0,0.0,0.0,0.0,0.0,0.0,0.0,0.0,0.0,0.0,0.0,0.0,0.0,0.0,0.0,0.0,0.0,0.0,0.0,0.0,0.0,0.0,0.0,0.0,0.0,0.0,0.0,0.0,0.0,0.0,0.0,0.0,-6.0473,-6.3544,-6.6176,-6.8406,-6.9815,-6.9805,-6.8417,-6.6757,0.0,0.0,0.0,0.0,0.0,0.0,0.0,0.0,0.0,0.0,0.0,0.0,0.0,0.0,0.0,0.0,0.0,0.0,0.0,0.0,0.0,0.0,0.0,0.0,0.0,0.0,0.0,-4.5571,0.0,0.0,0.0,0.0,0.0,0.0,0.0,0.0,0.0,0.0,0.0,0.0,0.0,0.0,-4.7594,-4.7889,-4.9433,-5.0766,0.0,0.0,-5.3273,-5.2887,-5.318,-5.3034,0.0,0.0,0.0,0.0,0.0,0.0,0.0,0.0,0.0,0.0,0.0,0.0,0.0,0.0,0.0,0.0,0.0,0.0,0.0,0.0,0.0,0.0,0.0,0.0,0.0,0.0,0.0,0.0,0.0,0.0,0.0,0.0,0.0,0.0,0.0,0.0,0.0,0.0,0.0,0.0,0.0,0.0,0.0,0.0,0.0,0.0,0.0,0.0,0.0,0.0,0.0,0.0,0.0,0.0,-5.8372,-6.0793,-6.4291,-6.693,-6.8627,-7.0332,-7.031,-6.8451,-6.7346,-6.5072,0.0,0.0,0.0,0.0,0.0,0.0,0.0,0.0,0.0,0.0,0.0,0.0,0.0,0.0,0.0,0.0,0.0,0.0,0.0,0.0,0.0,0.0,0.0,0.0,0.0,0.0,0.0,0.0,0.0,0.0,0.0,0.0,0.0,0.0,0.0,0.0,0.0,0.0,0.0,0.0,0.0,-4.9054,-4.932,-5.1635,-5.3528,0.0,-5.5022,-5.5576,-5.5113,-5.4919,-5.4328,-5.307,0.0,0.0,0.0,0.0,0.0,0.0,0.0,0.0,0.0,0.0,0.0,0.0,0.0,0.0,0.0,0.0,0.0,0.0,0.0,0.0,0.0,0.0,0.0,0.0,0.0,0.0,0.0,0.0,0.0,0.0,0.0,0.0,0.0,0.0,0.0,0.0,0.0,0.0,0.0,0.0,0.0,0.0,0.0,0.0,0.0,0.0,0.0,0.0,0.0,0.0,0.0,0.0,0.0,-5.884,-6.0835,-6.4357,-6.6997,-6.8705,-7.04,-7.0434,-6.864,-6.7469,-6.5348,0.0,0.0,0.0,0.0,0.0,0.0,0.0,0.0,0.0,0.0,0.0,0.0,0.0,0.0,0.0,0.0,0.0,0.0,0.0,0.0,0.0,0.0,0.0,0.0,0.0,0.0,0.0,0.0,-4.6417,-4.6124,-4.5595,0.0,0.0,0.0,0.0,0.0,0.0,0.0,0.0,0.0,0.0,-5.0307,-5.0808,-5.2861,0.0,0.0,-5.603,-5.6675,-5.5663,-5.5683,-5.5178,-5.3502,-5.2676,0.0,0.0,0.0,0.0,0.0,0.0,0.0,0.0,0.0,0.0,0.0,0.0,0.0,0.0,0.0,0.0,0.0,0.0,0.0,0.0,0.0,0.0,0.0,0.0,0.0,0.0,-5.416,-5.416,0.0,0.0,0.0,0.0,0.0,0.0,0.0,0.0,0.0,0.0,0.0,0.0,0.0,0.0,0.0,0.0,0.0,0.0,0.0,0.0,0.0,0.0,0.0,0.0,-5.9308,-6.13,-6.4543,-6.704,-6.8793,-7.0445,-7.0434,-6.8772,-6.7892,-6.5901,0.0,0.0,0.0,0.0,0.0,0.0,0.0,0.0,0.0,0.0,0.0,0.0,0.0,0.0,0.0,0.0,0.0,0.0,0.0,0.0,0.0,0.0,0.0,0.0,0.0,0.0,0.0,0.0,-4.6607,-4.6218,-4.6032,0.0,0.0,0.0,0.0,0.0,0.0,0.0,0.0,0.0,0.0,-5.1506,-5.2018,-5.4002,-5.5413,-5.5413,-5.6728,-5.7321,-5.6169,-5.5966,-5.5453,-5.392,0.0,0.0,0.0,0.0,0.0,0.0,0.0,0.0,0.0,0.0,0.0,0.0,0.0,0.0,0.0,0.0,0.0,0.0,0.0,0.0,0.0,0.0,0.0,0.0,0.0,0.0,0.0,-5.5683,0.0,0.0,-5.5649,0.0,0.0,0.0,0.0,0.0,0.0,0.0,0.0,0.0,0.0,0.0,0.0,0.0,0.0,0.0,0.0,0.0,0.0,0.0,0.0,0.0,0.0,-5.9705,-6.2416,-6.4939,-6.7161,-6.9035,-7.0534,-7.0478,-6.8772,-6.8661,-6.6943,-6.3348,0.0,0.0,0.0,0.0,0.0,0.0,0.0,0.0,0.0,0.0,0.0,0.0,0.0,0.0,0.0,0.0,0.0,0.0,0.0,0.0,0.0,0.0,0.0,0.0,0.0,0.0,-4.7405,-4.6292,-4.5844,0.0,0.0,0.0,0.0,0.0,0.0,0.0,0.0,0.0,-5.0148,-5.1606,-5.2646,-5.2983,-5.5115,-5.6614,-5.6614,-5.7209,-5.747,-5.6733,-5.5877,-5.51,0.0,0.0,0.0,0.0,0.0,0.0,0.0,0.0,0.0,0.0,0.0,0.0,0.0,0.0,0.0,0.0,0.0,0.0,0.0,0.0,0.0,0.0,0.0,0.0,0.0,0.0,0.0,-5.7243,-5.735,0.0,0.0,0.0,0.0,0.0,0.0,0.0,0.0,0.0,0.0,0.0,-6.1951,-6.2219,0.0,0.0,0.0,0.0,0.0,0.0,0.0,0.0,0.0,0.0,0.0,0.0,-6.0166,-6.2524,-6.545,-6.7631,-6.9079,-7.0567,-7.0557,-6.9026,-6.8783,-6.6829,-6.2907,0.0,0.0,0.0,0.0,0.0,0.0,0.0,0.0,0.0,0.0,0.0,0.0,0.0,0.0,0.0,0.0,0.0,0.0,0.0,0.0,0.0,0.0,0.0,0.0,0.0,-4.9419,0.0,0.0,0.0,0.0,0.0,0.0,0.0,0.0,0.0,0.0,-4.8772,-4.9952,-5.1628,-5.2741,-5.3588,-5.4133,-5.5418,-5.6288,0.0,0.0,0.0,0.0,0.0,0.0,0.0,0.0,0.0,0.0,0.0,0.0,0.0,0.0,-5.2704,-5.1453,-5.1206,-5.1069,-5.056,0.0,0.0,0.0,0.0,0.0,0.0,0.0,0.0,0.0,0.0,0.0,0.0,0.0,0.0,-5.9624,-5.9735,-5.9426,0.0,0.0,0.0,0.0,0.0,0.0,0.0,0.0,-6.2094,-6.2932,-6.4194,-6.4742,-6.5121,-6.5406,-6.5529,-6.4214,0.0,0.0,0.0,0.0,0.0,0.0,0.0,0.0,-6.1051,-6.3375,-6.5995,-6.8001,-6.9451,-7.0703,-7.0737,-6.9485,-6.822,-6.6051,-6.2832,-6.0344,-5.8297,0.0,0.0,0.0,0.0,0.0,0.0,0.0,0.0,0.0,0.0,0.0,0.0,0.0,0.0,0.0,0.0,0.0,0.0,0.0,0.0,0.0,0.0,0.0,-4.9959,0.0,0.0,0.0,0.0,0.0,0.0,0.0,0.0,0.0,-4.9452,-5.0275,-5.135,-5.2705,-5.3617,-5.4348,-5.4896,0.0,0.0,0.0,0.0,0.0,0.0,0.0,-5.4805,-5.4495,-5.4641,-5.4845,-5.5027,-5.5108,-5.4926,-5.4539,0.0,0.0,-5.25,-5.2201,-5.204,-5.1757,-5.1546,-5.1334,-5.1104,-5.0921,-5.0766,0.0,0.0,0.0,0.0,-6.2516,0.0,0.0,0.0,-6.2717,-6.2833,0.0,-6.2279,0.0,0.0,0.0,0.0,-6.0283,-6.1028,0.0,0.0,-6.4005,-6.521,-6.6269,-6.763,-6.8095,-6.7585,-6.7585,-6.7208,-6.6314,-6.3639,-6.1555,0.0,0.0,0.0,0.0,0.0,-6.2255,-6.5067,-6.6618,-6.8314,-7.0128,-7.0939,-7.0939,-7.0094,-6.7107,-6.4832,-6.3242,-6.0692,-5.884,-5.7879,-5.5672,0.0,0.0,0.0,0.0,0.0,0.0,0.0,0.0,0.0,0.0,0.0,0.0,0.0,0.0,0.0,0.0,0.0,0.0,0.0,0.0,-5.0728,0.0,0.0,0.0,0.0,0.0,0.0,0.0,0.0,0.0,-5.1779,-5.0724,-5.2057,-5.3224,-5.3508,0.0,0.0,0.0,0.0,-5.5723,-5.5694,-5.5195,-5.4984,-5.5224,-5.4746,-5.4436,-5.4751,0.0,0.0,-5.5581,-5.5581,-5.5381,-5.4905,-5.4803,-5.4671,-5.4355,-5.4009,-5.3707,-5.3435,-5.2961,-5.2449,-5.1817,-5.1453,-5.1064,-6.8808,0.0,0.0,0.0,0.0,-6.5561,-6.5643,-6.5807,-6.5922,-6.5784,-6.5549,-6.5265,0.0,0.0,0.0,0.0,0.0,0.0,-6.3835,-6.5527,-6.6,-6.6972,-6.8481,-6.905,-6.9328,-6.933,-6.9495,-6.9392,-6.8953,-6.695,-6.4695,-6.2333,0.0,0.0,0.0,0.0,-6.3686,-6.5828,-6.7487,-6.8917,-7.0161,-7.0939,-7.0703,-6.9451,-6.7438,-6.5714,-6.4262,-6.1789,-5.9929,-5.8846,-5.6711,0.0,0.0,0.0,0.0,0.0,0.0,0.0,0.0,0.0,0.0,0.0,0.0,0.0,0.0,0.0,0.0,0.0,0.0,0.0,-5.2461,-5.1938,-5.1668,0.0,0.0,0.0,0.0,0.0,0.0,0.0,0.0,0.0,-5.4603,-5.4834,-5.516,0.0,0.0,-5.6354,-5.5957,-5.5995,-5.5833,-5.5129,-5.4916,0.0,-5.4598,-5.4635,-5.4671,-5.4803,-5.5108,-5.528,-5.533,-5.528,-5.531,-5.5078,-5.4955,-5.4854,-5.4896,-5.4539,-5.4193,-5.4016,-5.3936,-5.3774,-5.3547,-5.3385,-5.3179,-7.2293,-7.0026,-6.9011,-6.8605,-6.8571,-6.8267,-6.8251,-6.8379,-6.8242,-6.8083,-6.7884,-6.7307,-6.6558,-6.5588,-6.4574,0.0,0.0,0.0,-6.5696,-6.7286,-6.7861,-6.8735,-6.9798,-7.0354,-7.0746,-7.0957,-7.0898,-7.076,-7.0511,-6.9103,-6.7392,-6.5496,0.0,-6.2991,-6.294,-6.3948,-6.522,-6.6728,-6.8348,-6.9636,-7.0635,-7.1075,-7.0601,-6.9147,-6.7895,-6.6406,-6.4647,-6.2285,-6.05,-5.9343,-5.7206,-5.5505,0.0,0.0,0.0,0.0,0.0,0.0,0.0,0.0,0.0,0.0,0.0,-5.0897,-5.1627,0.0,0.0,0.0,-5.4145,-5.4284,-5.41,-5.3582,0.0,0.0,0.0,0.0,0.0,0.0,0.0,-5.5063,-5.5847,-5.6433,-5.6817,-5.6971,-5.7011,-5.6756,-5.6728,-5.6585,-5.6226,0.0,-5.5424,-5.4913,-5.4671,-5.4568,-5.4487,-5.4671,-5.4854,-5.5108,-5.5229,-5.533,-5.533,-5.533,-5.536,-5.5179,-5.5057,-5.5006,-5.5179,-5.4926,-5.4641,-5.4641,-5.459,-5.4487,-5.4487,-5.4436,-5.42,-7.4999,-7.3646,-7.2225,-7.1582,-7.1413,-7.0737,-7.0443,-7.0385,-7.0097,-6.9893,-6.9696,-6.8739,-6.808,-6.7537,-6.5766,0.0,-6.6,-6.6677,-6.7387,-6.8132,-6.9553,-7.0328,-7.0614,-7.1547,-7.2072,-7.2253,-7.1779,-7.1435,-7.1224,-7.0217,-6.9544,-6.9045,-6.6171,-6.458,-6.443,-6.5703,-6.6872,-6.7752,-6.9143,-7.031,-7.1233,-7.1278,-7.0534,-6.9147,-6.8267,-6.6736,-6.464,-6.2278,-6.0567,-5.9499,-5.7318,-5.5927,-5.5377,0.0,0.0,0.0,0.0,0.0,0.0,0.0,0.0,0.0,0.0,0.0,0.0,0.0,0.0,-5.5483,-5.6189,0.0,-5.6278,-5.5484,0.0,0.0,0.0,-5.3933,-5.4905,-5.4827,-5.5145,-5.6326,0.0,0.0,-5.7797,-5.8548,-5.8513,-5.7047,-5.6549,-5.6316,-5.6256,-5.5513,-5.4913,-5.4883,-5.459,-5.4458,-5.4654,-5.4645,-5.4708,-5.516,-5.543,-5.532,-5.541,-5.541,-5.5341,-5.5229,-5.5209,-5.5179,-5.5209,-5.5179,-5.5179,-5.5179,-5.4976,-5.4824,-5.4803,-5.459,-5.4406,-7.642,-7.6014,-7.5033,-7.4018,-7.2969,-7.28,-7.2485,-7.2123,-7.2008,-7.1426,-7.055,-7.0259,-6.973,-6.8923,-6.8464,-6.8269,-6.8301,-6.847,-6.8944,-6.9654,-7.0026,-7.0599,-7.1328,-7.1576,-7.182,-7.2072,-7.1944,-7.1842,-7.1798,-7.0788,-7.024,-7.0085,-6.8682,-6.7772,-6.7378,-6.7856,-6.8482,-6.9267,-6.9815,-7.0523,-7.1278,-7.0737,-7.0026,-6.9113,-6.7588,-6.6053,-6.4443,-6.2549,-6.0832,-5.9331,-5.8045,-5.685,-5.5693,-5.4325,0.0,0.0,0.0,0.0,0.0,0.0,0.0,0.0,0.0,-5.2728,-5.415,0.0,-5.5919,0.0,-5.7145,-5.7163,-5.6805,-5.6969,0.0,0.0,-5.6572,-5.6879,-5.6934,-5.7124,-5.7332,-5.763,-5.831,-5.8752,-5.8752,-5.8955,-5.88,-5.7886,-5.77,-5.7483,-5.6974,-5.6294,-5.5645,-5.5197,-5.4997,-5.4848,-5.4371,-5.3883,-5.3634,-5.3751,-5.3751,-5.3931,-5.4441,-5.453,-5.466,-5.5059,-5.5209,-5.5209,-5.5209,-5.5209,-5.5179,-5.5209,-5.5158,-5.5078,-5.5108,-5.5027,-5.4926,-7.7198,-7.6826,-7.6048,-7.5236,-7.4458,-7.4119,-7.3637,-7.3017,-7.2802,-7.2121,-7.1129,-7.0788,-7.0191,-6.9424,-6.9295,-6.9379,-6.9586,-6.9586,-6.9992,-7.0669,-7.0703,-7.095,-7.1423,-7.1556,-7.1688,-7.1854,-7.1942,-7.1942,-7.182,-7.128,-7.0944,-7.0846,-7.0307,-6.9961,-6.9704,-6.9501,-6.9579,-6.9984,-7.0455,-7.0906,-7.1278,-7.0478,-6.9691,-6.8914,-6.7281,-6.5673,-6.4195,-6.2561,-6.0919,-5.9285,-5.8322,-5.7206,-5.5927,-5.4842,-5.4172,0.0,0.0,0.0,0.0,0.0,0.0,0.0,0.0,0.0,0.0,0.0,-5.7003,-5.8019,-5.8773,-5.9015,-5.8654,-5.8942,-5.8845,-5.8062,-5.8101,-5.8155,-5.8044,-5.8061,-5.8231,-5.853,-5.889,-5.9099,-5.9099,-5.9099,-5.886,-5.8201,-5.7842,-5.7423,-5.6765,-5.6137,-5.5508,-5.488,-5.476,-5.4521,-5.3862,-5.3443,-5.3174,-5.3174,-5.3174,-5.3324,-5.3683,-5.4012,-5.4341,-5.47,-5.4999,-5.5209,-5.5179,-5.494,-5.476,-5.47,-5.4491,-5.4551,-5.5059,-5.5209,-5.5128,-7.757,-7.6826,-7.6014,-7.5642,-7.5506,-7.4864,-7.4187,-7.3455,-7.2926,-7.2269,-7.1522,-7.0876,-7.0265,-6.961,-6.9471,-6.9722,-7.0331,-7.0331,-7.0703,-7.1278,-7.1312,-7.1312,-7.1312,-7.1501,-7.1556,-7.1556,-7.181,-7.181,-7.1556,-7.1556,-7.1457,-7.1312,-7.1312,-7.1312,-7.1278,-7.0669,-7.0331,-7.0331,-7.0973,-7.1278,-7.1176,-7.0176,-6.93,-6.8526,-6.6829,-6.5216,-6.3911,-6.2431,-6.0839,-5.9245,-5.8349,-5.7344,-5.6158,-5.5107,-5.4543,0.0,-5.392,0.0,0.0,0.0,0.0,0.0,0.0,0.0,0.0,-5.7091,-5.8183,-5.9455,-6.0554,-6.1152,-6.0874,-6.0917,-6.0614,-5.9875,-5.9178,-5.8725,-5.8731,-5.8421,-5.8471,-5.9039,-5.9099,-5.9069,-5.8979,-5.8979,-5.874,-5.7902,-5.7214,-5.6555,-5.6017,-5.5418,-5.488,-5.4281,-5.4042,-5.3653,-5.3174,-5.2935,-5.2845,-5.2905,-5.2815,-5.2965,-5.3025,-5.3533,-5.3952,-5.4102,-5.4491,-5.485,-5.494,-5.4431,-5.4102,-5.4072,-5.3653,-5.3623,-5.4521,-5.482,-5.494,-7.757,-7.6826,-7.6048,-7.5371,-7.483,-7.4661,-7.4187,-7.3443,-7.2744,-7.2033,-7.1356,-7.1187,-7.1086,-7.0916,-7.0906,-7.0973,-7.1109,-7.1109,-7.1176,-7.1312,-7.1312,-7.1312,-7.1312,-7.1356,-7.1356,-7.1356,-7.1401,-7.1401,-7.1356,-7.1356,-7.1356,-7.1312,-7.1312,-7.1312,-7.1312,0.0,0.0,0.0,-7.1244,-7.1007,-7.0398,-6.9434,-6.8526,-6.7786,-6.5416,0.0,-6.3624,-6.2058,-6.0506,-5.9039,-5.8646,0.0,0.0,0.0,0.0,0.0,0.0,0.0,0.0,0.0,0.0,0.0,-5.6558,-5.6857,-5.7463,-5.888,-6.0089,-6.0953,-6.1607,-6.1719,-6.1096,-6.1736,-6.1806,-6.0841,-6.0462,-6.0175,-5.9804,-5.9242,-5.8979,-5.9069,-5.9099,-5.889,-5.8411,-5.8321,-5.7872,-5.6765,-5.5987,-5.5329,-5.47,-5.4491,-5.4341,-5.4162,-5.3294,-5.2576,-5.2426,-5.1947,-5.1708,-5.1588,-5.1588,-5.1828,-5.2276,-5.2486,-5.2815,-5.3264,-5.3473,-5.3593,-5.3593,-5.3443,-5.3384,-5.3384,-5.3234,-5.3264,-5.3503,-5.3563,-5.3563,-7.7232,-7.6826,-7.6048,-7.527,0.0,-7.4221,-7.3646,-7.2902,-7.2563,-7.1988,-7.1312,-7.1312,-7.1312,-7.1312,-7.1312,-7.1312,-7.1312,-7.1312,-7.1312,-7.1312,-7.1312,-7.1312,-7.1312,-7.1312,-7.1312,-7.1312,-7.1312,-7.1312,-7.1312,-7.1312,-7.1312,-7.1312,-7.1312,-7.1312,-7.1312,-7.1312,-7.1312,-7.1312,-7.1312,-7.0939,-7.0195,-6.9198,-6.8112,-6.6949,-6.4796,0.0,0.0,0.0,0.0,0.0,0.0,0.0,0.0,-5.6082,-5.5685,-5.5409,-5.5564,-5.5726,-5.5927,-5.6126,-5.6369,-5.668,-5.7614,-5.8369,-5.8619,-6.0104,-6.1146,-6.1513,-6.2341,-6.2623,-6.206,-6.2672,-6.2795,-6.186,-6.1294,-6.0773,-6.0092,-5.9613,-5.9141,-5.868,-5.862,-5.8381,-5.7723,-5.7603,-5.7094,-5.5927,-5.5418,-5.479,-5.3922,-5.3713,-5.3623,-5.3264,-5.2396,-5.1738,-5.1708,-5.1468,-5.1229,-5.1229,-5.1229,-5.1349,-5.1648,-5.1977,-5.2336,-5.2665,-5.2935,-5.3174,-5.3144,-5.2935,-5.2695,-5.2665,-5.2456,-5.2217,-5.2247,-5.2725,-5.3174,-7.6826,-7.6623,-7.5845,-7.5067,-7.4356,-7.3612,-7.2902,-7.2225,-7.2191,0.0,0.0,-7.1312,-7.1312,-7.1312,-7.1312,-7.1312,-7.1312,-7.1312,-7.1312,-7.1312,-7.1312,-7.1312,-7.1312,-7.1312,-7.1312,-7.1312,-7.1312,-7.1312,-7.1312,-7.1312,-7.1312,-7.1312,-7.1312,-7.1312,-7.1312,-7.1176,-7.1109,-7.1109,-7.1109,-7.0703,-6.9823,-6.8928,-6.7742,-6.6081,-6.4486,-6.3206,-6.2306,-6.1567,-6.0796,-6.0067,-5.9267,-5.8297,-5.7273,-5.6409,-5.5734,-5.5401,-5.5523,-5.5677,-5.5726,-5.6086,-5.6474,-5.6923,-5.8569,-5.9499,-5.9572,-6.0912,-6.175,-6.1709,-6.2874,-6.3411,-6.2815,-6.3467,-6.3483,-6.2323,-6.1527,-6.063,-5.9757,-5.9357,-5.8767,-5.8105,-5.7932,-5.7693,-5.7034,-5.6825,-5.6346,-5.5269,-5.47,-5.4251,-5.3174,-5.2935,-5.2785,-5.2157,-5.1618,-5.1259,-5.1229,-5.1229,-5.1229,-5.1229,-5.1229,-5.1229,-5.1319,-5.1678,-5.1977,-5.2007,-5.2486,-5.2725,-5.2785,-5.2366,-5.2007,-5.1858,-5.1439,-5.099,-5.099,-5.1708,-5.2366,-7.6487,-7.5811,-7.5067,-7.4322,-7.3578,-7.2868,-7.2124,-7.1481,-7.1447,-7.1413,-7.1312,-7.1312,-7.1312,-7.1312,-7.1312,-7.1312,-7.1312,-7.1312,-7.1312,-7.1312,-7.1312,-7.1312,-7.1312,-7.1312,-7.1312,-7.1312,-7.1312,-7.1312,-7.1312,-7.1312,-7.1312,-7.1312,-7.1312,-7.1312,-7.1244,-7.0669,-7.0331,-7.0331,-7.0364,-6.9654,-6.8267,-6.7916,-6.7045,-6.5556,-6.4472,-6.3501,-6.2724,-6.1824,-6.1009,-6.0277,-5.9811,-5.8823,-5.7306,-5.6702,-5.6048,-5.5219,-5.5021,-5.5072,-5.5442,-5.5693,-5.6474,-5.8002,-5.8992,-5.9577,-5.9804,-6.1116,-6.1877,-6.1776,-6.3007,-6.3496,-6.2727,-6.3297,-6.3194,-6.1707,-6.0808,-5.9818,-5.851,-5.8058,-5.7737,-5.7326,-5.7244,-5.6974,-5.6346,-5.5777,-5.5179,-5.4371,-5.3443,-5.2396,-5.1917,-5.1977,-5.2037,-5.1528,-5.1289,-5.1229,-5.1229,-5.1229,-5.1229,-5.1229,-5.1229,-5.1229,-5.1229,-5.1319,-5.1439,-5.1379,-5.1558,-5.1588,-5.1588,-5.1439,-5.1169,-5.0734,-5.0465,-5.0196,-4.9793,-4.9958,-5.0122,-7.6048,-7.5608,-7.4897,-7.4187,-7.3409,-7.2293,-7.165,-7.1312,-7.1312,-7.1312,-7.1312,-7.1312,-7.1312,-7.1312,-7.1312,-7.1312,-7.1312,-7.1312,-7.1312,-7.1312,-7.1312,-7.1312,-7.1312,-7.1312,-7.1312,-7.1312,-7.1312,-7.1312,-7.1312,-7.1312,-7.1312,-7.1312,-7.1312,-7.1312,-7.1244,-7.0567,-6.9992,-6.962,-6.9586,-6.9045,-6.7929,-6.7809,-6.6837,-6.4899,-6.4337,-6.3508,-6.2278,-6.1788,-6.1339,-6.0924,-6.0232,-5.921,-5.7896,-5.711,-5.6228,-5.5178,-5.4989,-5.4989,-5.5072,-5.5572,-5.6507,-5.7942,-5.8981,-5.9706,-6.0186,-6.143,-6.211,-6.1944,-6.2755,-6.2982,-6.2201,-6.2541,-6.2213,-6.0947,-6.0219,-5.9383,-5.8247,-5.7849,-5.7441,-5.6749,-5.6256,-5.5807,-5.5179,-5.4521,-5.3862,-5.3174,-5.2217,-5.1558,-5.1289,-5.1468,-5.1588,-5.1289,-5.1229,-5.1229,-5.1229,-5.1229,-5.1229,-5.1229,-5.1229,-5.1229,-5.1229,-5.1229,-5.1229,-5.1229,-5.1229,-5.1229,-5.1229,-5.0853,-5.0524,-5.0285,-4.9912,-4.9583,-4.9359,-4.906,-4.8985,-7.5676,-7.5642,-7.4728,-7.3815,-7.2902,-7.1819,-7.1312,-7.1312,-7.1312,-7.1312,-7.1312,-7.1312,-7.1312,-7.1312,-7.1312,-7.1312,-7.1312,-7.1312,-7.1312,-7.1312,-7.1312,-7.1312,-7.1312,-7.1312,-7.1312,-7.1312,-7.1312,-7.1312,-7.1312,-7.1312,-7.1312,-7.1312,-7.1312,-7.1312,-7.1312,-7.0398,-6.9654,-6.9113,-6.8774,-6.8301,-6.7692,-6.7658,-6.666,-6.4814,-6.4476,-6.3646,-6.2206,-6.1857,-6.1709,-6.1513,-6.0736,-5.9811,-5.8749,-5.7699,-5.6611,-5.556,-5.5095,-5.4948,-5.4938,-5.5653,-5.6657,-5.7965,-5.8979,-5.995,-6.0805,-6.1728,-6.2144,-6.1978,-6.2338,-6.2432,-6.1893,-6.1747,-6.1299,-6.025,-5.9676,-5.8758,-5.7597,-5.7284,-5.689,-5.572,-5.5059,-5.4521,-5.4012,-5.3384,-5.2755,-5.2097,-5.1528,-5.1259,-5.1229,-5.1229,-5.1229,-5.1229,-5.1229,-5.1229,-5.1229,-5.1229,-5.1229,-5.1229,-5.1229,-5.1229,-5.1229,-5.1229,-5.1229,-5.1229,-5.1229,-5.1229,-5.1169,-5.0644,-5.0226,-5.0002,-4.9464,-4.8985,-4.876,-4.8386,-4.8207,-7.5676,-7.5473,-7.4187,-7.28,-7.1582,-7.1379,-7.1312,-7.1312,-7.1312,-7.1312,-7.1312,-7.1312,-7.1312,-7.1312,-7.1312,-7.1312,-7.1312,-7.1312,-7.1312,-7.1312,-7.1312,-7.1312,-7.1312,-7.1312,-7.1312,-7.1312,-7.1312,-7.1312,-7.1312,-7.1312,-7.1312,-7.1312,-7.1312,-7.1312,-7.1176,-6.9925,-6.918,-6.9079,-6.7726,-6.6981,-6.6914,-6.6914,-6.6508,-6.5628,-6.4911,-6.4201,-6.3316,-6.2481,-6.1957,-6.1917,-6.1487,-6.0828,-5.9819,-5.8552,-5.7377,-5.6372,-5.5185,-5.4623,-5.5063,-5.5933,-5.7086,-5.8654,-5.947,-6.0403,-6.1428,-6.1642,-6.1669,-6.1565,-6.1925,-6.2028,-6.1611,-6.1471,-6.0885,-5.96,-5.897,-5.7797,-5.5938,-5.525,-5.4782,-5.3631,-5.3582,-5.3402,-5.3234,-5.2695,-5.2067,-5.1498,-5.1319,-5.1229,-5.1229,-5.1229,-5.1229,-5.1229,-5.1229,-5.1229,-5.1229,-5.1229,-5.1229,-5.1229,-5.1229,-5.1229,-5.1229,-5.1229,-5.1229,-5.1229,-5.1229,-5.1229,-5.1079,-5.0644,-5.0032,-4.9523,-4.8925,-4.8207,-4.7698,-4.7519,-4.7549,-7.5676,-7.5574,-7.4119,-7.2665,-7.1413,-7.1312,-7.1312,-7.1312,-7.1312,-7.1312,-7.1312,-7.1312,-7.1312,-7.1312,-7.1312,-7.1312,-7.1312,-7.1312,-7.1312,-7.1312,-7.1312,-7.1312,-7.1312,-7.1312,-7.1312,-7.1312,-7.1312,-7.1312,-7.1312,-7.1312,-7.1312,-7.1312,-7.1312,-7.1312,-7.121,-6.9857,-6.9079,-6.9045,-6.759,-6.6812,-6.6812,-6.6812,-6.644,-6.5764,-6.5392,-6.4681,-6.3592,-6.3113,-6.2622,-6.2064,-6.1837,-6.122,-6.0074,-5.902,-5.7921,-5.6552,-5.5175,-5.4623,-5.5072,-5.5873,-5.6969,-5.8462,-5.9317,-6.0208,-6.1193,-6.1334,-6.1252,-6.1086,-6.1309,-6.1339,-6.0783,-6.053,-5.9981,-5.8977,-5.8152,-5.6996,-5.5616,-5.4805,-5.4104,-5.3495,-5.2942,-5.2606,-5.2516,-5.2037,-5.1558,-5.1259,-5.1229,-5.1229,-5.1229,-5.1229,-5.1229,-5.1229,-5.1229,-5.1229,-5.1229,-5.1229,-5.1229,-5.1229,-5.1229,-5.1229,-5.1229,-5.1229,-5.1229,-5.1229,-5.1229,-5.1229,-5.1229,-5.0331,-4.9523,-4.909,-4.8356,-4.7608,-4.7339,-4.7309,-4.7309,-7.5676,-7.5473,-7.4119,-7.2665,-7.1345,-7.1312,-7.1312,-7.1312,-7.1312,-7.1312,-7.1312,-7.1312,-7.1312,-7.1312,-7.1312,-7.1312,-7.1312,-7.1312,-7.1312,-7.1312,-7.1312,-7.1312,-7.1312,-7.1312,-7.1312,-7.1312,-7.1312,-7.1312,-7.1312,-7.1312,-7.1312,-7.1312,-7.1312,-7.1312,-7.1176,-7.0026,-6.9316,-6.9011,-6.776,-6.7015,-6.6846,-6.6812,-6.6542,-6.6034,-6.5797,-6.5087,-6.3869,-6.3632,-6.3079,-6.2183,-6.2037,-6.1562,-6.0584,-5.9517,-5.8107,-5.6366,-5.5246,-5.479,-5.5072,-5.595,-5.6987,-5.8207,-5.9234,-6.0199,-6.087,-6.1119,-6.0961,-6.076,-6.0877,-6.0783,-6.0195,-5.9848,-5.9355,-5.8459,-5.753,-5.6557,-5.5317,-5.4418,-5.3736,-5.3192,-5.252,-5.2137,-5.1982,-5.1575,-5.1259,-5.1229,-5.1229,-5.1229,-5.1229,-5.1229,-5.1229,-5.1229,-5.1229,-5.1229,-5.1229,-5.1229,-5.1229,-5.1229,-5.1229,-5.1229,-5.1229,-5.1229,-5.1229,-5.1229,-5.1229,-5.1169,-5.1079,-5.0242,-4.909,-4.8656,-4.7997,-4.7339,-4.7309,-4.7309,-4.7309,-7.5676,-7.5473,-7.4086,-7.2665,-7.1345,-7.1312,-7.1312,-7.1312,-7.1312,-7.1312,-7.1312,-7.1312,-7.1312,-7.1312,-7.1312,-7.1312,-7.1312,-7.1312,-7.1312,-7.1312,-7.1312,-7.1312,-7.1312,-7.1312,-7.1312,-7.1312,-7.1312,-7.1312,-7.1312,-7.1312,-7.1312,-7.1312,-7.1312,-7.1312,-7.121,-7.05,-6.9789,-6.9079,-6.8233,-6.7489,-6.6914,-6.6812,-6.6779,-6.6643,-6.6068,-6.5392,-6.458,-6.3903,-6.3193,-6.2415,-6.215,-6.1963,-6.1749,-5.9951,-5.791,-5.5864,-5.5401,-5.5278,-5.5283,-5.6379,-5.7482,-5.8329,-5.9577,-6.0558,-6.1002,-6.1119,-6.0961,-6.0717,-6.076,-6.0591,-6.0098,-5.9805,-5.9229,-5.8153,-5.7502,-5.6266,-5.4371,-5.4005,-5.3239,-5.2474,-5.2138,-5.1969,-5.1663,-5.1369,-5.1276,-5.1229,-5.1229,-5.1229,-5.1229,-5.1229,-5.1229,-5.1229,-5.1229,-5.1229,-5.1229,-5.1229,-5.1229,-5.1229,-5.1229,-5.1229,-5.1229,-5.1229,-5.1229,-5.1229,-5.1229,-5.1139,-5.096,-5.0152,-4.8895,-4.8177,-4.7728,-4.7309,-4.7309,-4.7309,-4.7309,-7.5879,-7.4931,-7.3916,-7.2902,-7.1988,-7.1515,-7.1312,-7.1312,-7.1312,-7.1312,-7.1312,-7.1312,-7.1312,-7.1312,-7.1312,-7.1312,-7.1312,-7.1312,-7.1312,-7.1312,-7.1312,-7.1312,-7.1312,-7.1312,-7.1312,-7.1312,-7.1312,-7.1312,-7.1312,-7.1312,-7.1312,-7.1312,-7.1312,-7.1312,-7.1176,-7.0567,-6.9823,-6.9113,-6.8301,-6.7557,-6.688,-6.6812,-6.6812,-6.6812,-6.6576,-6.6068,-6.5324,-6.458,-6.3869,-6.3125,-6.2572,-6.2189,-6.1822,-6.0024,-5.8118,-5.6481,-5.5854,-5.5653,-5.5888,-5.6904,-5.7883,-5.847,-5.9802,-6.0717,-6.1002,-6.1119,-6.0961,-6.0802,-6.0844,-6.0628,-5.9957,-5.9562,-5.9166,-5.841,-5.7215,-5.6066,-5.4914,-5.3988,-5.3214,-5.2579,-5.2231,-5.188,-5.1695,-5.1479,-5.1416,-5.1229,-5.1229,-5.1229,-5.1229,-5.1229,-5.1229,-5.1229,-5.1229,-5.1229,-5.1229,-5.1229,-5.1229,-5.1229,-5.1229,-5.1229,-5.1229,-5.1229,-5.1229,-5.1229,-5.1229,-5.1079,-5.084,-4.9972,-4.8716,-4.7758,-4.7309,-4.7309,-4.7309,-4.7309,-4.7309,-7.598,-7.4627,-7.4052,-7.3274,-7.236,-7.1887,-7.1515,-7.1345,-7.1312,-7.1312,-7.1312,-7.1312,-7.1312,-7.1312,-7.1312,-7.1312,-7.1312,-7.1312,-7.1312,-7.1312,-7.1312,-7.1312,-7.1312,-7.1312,-7.1312,-7.1312,-7.1312,-7.1312,-7.1312,-7.1312,-7.1312,-7.1312,-7.1312,-7.1312,-7.121,-7.0804,-7.0094,-6.918,-6.8571,-6.7827,-6.6981,-6.6812,-6.6812,-6.6812,-6.6812,-6.644,-6.573,-6.4986,-6.4275,-6.3531,-6.2787,-6.2201,-6.1593,-6.009,-5.8574,-5.721,-5.6422,-5.6013,-5.6217,-5.7078,-5.7945,-5.8568,-5.9746,-6.0663,-6.1103,-6.1019,-6.0845,-6.073,-6.0539,-6.0248,-5.9694,-5.9234,-5.8782,-5.8228,-5.7071,-5.6005,-5.5186,-5.4301,-5.3528,-5.2953,-5.2503,-5.2139,-5.1787,-5.1665,-5.1479,-5.1229,-5.1229,-5.1229,-5.1229,-5.1229,-5.1229,-5.1229,-5.1229,-5.1229,-5.1229,-5.1229,-5.1229,-5.1229,-5.1229,-5.1229,-5.1229,-5.1229,-5.1229,-5.1229,-5.1139,-5.096,-5.0451,-4.9643,-4.8656,-4.7578,-4.7309,-4.7309,-4.7309,-4.7309,-4.7309,-7.6014,-7.4762,-7.4593,-7.3781,-7.2665,-7.2462,-7.2022,-7.1548,-7.1447,-7.1548,-7.1616,-7.1413,-7.1447,-7.1379,-7.1345,-7.1312,-7.1312,-7.1312,-7.1312,-7.1312,-7.1312,-7.1312,-7.1312,-7.1312,-7.1312,-7.1312,-7.1312,-7.1312,-7.1312,-7.1312,-7.1312,-7.1312,-7.1312,-7.1312,-7.1312,-7.1176,-7.0534,-6.9383,-6.9011,-6.8301,-6.7015,-6.6812,-6.6812,-6.6812,-6.6812,-6.6508,-6.5764,-6.5053,-6.4343,-6.3632,-6.2888,-6.1998,-6.1166,-6.0208,-5.917,-5.7936,-5.7116,-5.6519,-5.6271,-5.692,-5.7862,-5.8624,-5.958,-6.058,-6.1217,-6.0946,-6.0658,-6.0518,-6.0017,-5.9522,-5.9388,-5.8881,-5.8247,-5.7536,-5.702,-5.6286,-5.538,-5.4697,-5.4071,-5.3277,-5.2833,-5.2549,-5.2063,-5.1787,-5.1556,-5.1323,-5.1229,-5.1229,-5.1229,-5.1229,-5.1229,-5.1229,-5.1229,-5.1229,-5.1229,-5.1229,-5.1229,-5.1229,-5.1229,-5.1229,-5.1229,-5.1229,-5.1229,-5.1199,-5.0913,-5.0704,-4.9912,-4.9149,-4.8416,-4.7549,-4.7459,-4.7309,-4.7309,-4.7309,-4.7309,-7.6284,-7.5337,-7.4796,-7.4356,-7.3849,-7.3375,-7.3003,-7.28,-7.28,-7.28,-7.2732,-7.2293,-7.2056,-7.1921,-7.1548,-7.1312,-7.1312,-7.1312,-7.1312,-7.1312,-7.1312,-7.1312,-7.1312,-7.1312,-7.1312,-7.1312,-7.1312,-7.1312,-7.1312,-7.1312,-7.1312,-7.1312,-7.1312,-7.1312,-7.1312,-7.1278,-7.0567,-6.9282,-6.9079,-6.8368,-6.6981,-6.6812,-6.6812,-6.6812,-6.6812,-6.6677,-6.644,-6.573,-6.5019,-6.4275,-6.3565,-6.2578,-6.1351,-6.029,-5.9396,-5.8466,-5.7577,-5.7101,-5.7115,-5.8002,-5.884,-5.9385,-6.0431,-6.1172,-6.1454,-6.0966,-6.0604,-6.0504,-5.9935,-5.9404,-5.8983,-5.8638,-5.8169,-5.7701,-5.7074,-5.6428,-5.5596,-5.4874,-5.42,-5.3596,-5.3188,-5.2698,-5.2185,-5.191,-5.1649,-5.1276,-5.1229,-5.1229,-5.1229,-5.1229,-5.1229,-5.1229,-5.1229,-5.1229,-5.1229,-5.1229,-5.1229,-5.1229,-5.1229,-5.1229,-5.1229,-5.1229,-5.1229,-5.1079,-5.0764,-5.0272,-4.9434,-4.8656,-4.7967,-4.7578,-4.7369,-4.7309,-4.7309,-4.7309,-4.7309,-7.686,-7.6082,-7.5337,-7.4864,-7.4593,-7.4086,-7.3747,-7.351,-7.3477,-7.3477,-7.3341,-7.3003,-7.2631,-7.236,-7.1887,-7.1548,-7.1345,-7.1312,-7.1312,-7.1312,-7.1312,-7.1312,-7.1312,-7.1312,-7.1312,-7.1312,-7.1312,-7.1312,-7.1312,-7.1312,-7.1312,-7.1312,-7.1312,-7.1312,-7.1312,-7.1278,-7.0567,-6.9316,-6.9079,-6.8368,-6.7151,-6.6812,-6.6812,-6.6812,-6.6812,-6.6812,-6.6779,-6.6339,-6.5628,-6.4613,-6.3666,-6.2651,-6.1738,-6.0878,-6.0088,-5.954,-5.8786,-5.8203,-5.8265,-5.8925,-5.9667,-6.0035,-6.0885,-6.1562,-6.1528,-6.0998,-6.0438,-6.0337,-5.9463,-5.8762,-5.847,-5.8219,-5.7955,-5.7648,-5.7133,-5.6486,-5.5781,-5.504,-5.4327,-5.3801,-5.3321,-5.2743,-5.2231,-5.191,-5.1695,-5.1323,-5.1229,-5.1229,-5.1229,-5.1229,-5.1259,-5.1259,-5.1229,-5.1229,-5.1229,-5.1229,-5.1229,-5.1229,-5.1229,-5.1229,-5.1229,-5.1229,-5.1229,-5.09,-5.0631,-4.9972,-4.9209,-4.8327,-4.7608,-4.7459,-4.7429,-4.7309,-4.7309,-4.7309,-4.7309,-7.7604,-7.6826,-7.6082,-7.5371,-7.4762,-7.4695,-7.4322,-7.3747,-7.3713,-7.3747,-7.3713,-7.3477,-7.3071,-7.2563,-7.2259,-7.1785,-7.1413,-7.1312,-7.1312,-7.1312,-7.1312,-7.1312,-7.1312,-7.1312,-7.1312,-7.1312,-7.1312,-7.1312,-7.1312,-7.1312,-7.1312,-7.1312,-7.1312,-7.1312,-7.1312,-7.1312,-7.0567,-6.9316,-6.9079,-6.8335,-6.6914,-6.6812,-6.6812,-6.6812,-6.6812,-6.6812,-6.6812,-6.6474,-6.5865,-6.4647,-6.326,-6.2448,-6.2245,-6.167,-6.1081,-6.0829,-6.0218,-5.9665,-5.9515,-5.965,-6.0019,-6.0555,-6.1009,-6.1329,-6.1801,-6.0902,-6.0097,-6.0034,-5.8781,-5.7907,-5.7873,-5.7763,-5.754,-5.7285,-5.702,-5.6525,-5.5814,-5.5155,-5.4486,-5.3813,-5.329,-5.2712,-5.2063,-5.1787,-5.1586,-5.1443,-5.1379,-5.1439,-5.1588,-5.1678,-5.1439,-5.1498,-5.1708,-5.1588,-5.1678,-5.1588,-5.1528,-5.1229,-5.1229,-5.1229,-5.1229,-5.1229,-5.1229,-5.09,-5.0421,-4.9733,-4.9164,-4.8536,-4.8027,-4.7938,-4.7788,-4.7459,-4.7519,-4.7728,-4.7638,-7.8077,-7.6893,-7.6657,-7.6149,-7.5473,-7.5405,-7.5303,-7.51,-7.51,-7.4999,-7.4897,-7.395,-7.3409,-7.3071,-7.2056,-7.1481,-7.1345,-7.1312,-7.1312,-7.1312,-7.1312,-7.1312,-7.1312,-7.1312,-7.1312,-7.1312,-7.1312,-7.1312,-7.1312,-7.1312,-7.1312,-7.1312,-7.1312,-7.1312,-7.1312,-7.1312,-7.0534,-6.9316,-6.9079,-6.8368,-6.7083,-6.6812,-6.6812,-6.6812,-6.6812,-6.6812,-6.6677,-6.573,-6.5087,-6.458,-6.3193,-6.2415,-6.2347,-6.1738,-6.1327,-6.1187,-6.0579,-6.0034,-6.0097,-6.0497,-6.0868,-6.1109,-6.1616,-6.2099,-6.2201,-6.0806,-6.0025,-5.9616,-5.8459,-5.7476,-5.7439,-5.7435,-5.7248,-5.6911,-5.6735,-5.631,-5.5612,-5.5008,-5.4497,-5.3813,-5.3188,-5.2624,-5.217,-5.1862,-5.178,-5.1875,-5.1977,-5.2067,-5.2276,-5.2426,-5.2336,-5.2576,-5.2695,-5.2366,-5.2157,-5.2037,-5.1798,-5.1349,-5.1229,-5.1229,-5.1229,-5.1229,-5.1229,-5.1109,-5.0541,-4.9883,-4.9703,-4.9344,-4.8985,-4.8446,-4.8506,-4.8416,-4.8626,-4.885,-4.8416,-7.8585,-7.7773,-7.7164,-7.6623,-7.6183,-7.5845,-7.5676,-7.5676,-7.5676,-7.5676,-7.5439,-7.4492,-7.3781,-7.3375,-7.2293,-7.1582,-7.1345,-7.1312,-7.1312,-7.1312,-7.1312,-7.1312,-7.1312,-7.1312,-7.1312,-7.1312,-7.1312,-7.1312,-7.1312,-7.1312,-7.1312,-7.1312,-7.1312,-7.1312,-7.1312,-7.1278,-7.077,-6.9722,-6.9248,-6.847,-6.7387,-6.6948,-6.6812,-6.6812,-6.6812,-6.6812,-6.6643,-6.5613,-6.487,-6.437,-6.326,-6.2415,-6.2381,-6.2009,-6.1738,-6.1738,-6.1298,-6.1095,-6.1129,-6.1535,-6.1738,-6.1767,-6.2099,-6.2161,-6.1987,-6.092,-6.0058,-5.9438,-5.8318,-5.7573,-5.7125,-5.7138,-5.7159,-5.7058,-5.6768,-5.6222,-5.5375,-5.479,-5.4168,-5.3571,-5.3138,-5.2765,-5.2334,-5.2235,-5.2377,-5.2534,-5.2606,-5.2785,-5.2995,-5.3144,-5.3264,-5.3354,-5.3324,-5.2965,-5.2606,-5.2426,-5.2037,-5.1588,-5.1229,-5.1229,-5.1229,-5.1229,-5.1229,-5.1079,-5.0524,-5.0166,-5.0092,-4.9853,-4.9314,-4.906,-4.9269,-4.9359,-4.9389,-4.9404,-4.9045,-7.9194,-7.8991,-7.7604,-7.6961,-7.6758,-7.6048,-7.5676,-7.5676,-7.5676,-7.5608,-7.5371,-7.4796,-7.3883,-7.3341,-7.2394,-7.1887,-7.1312,-7.1312,-7.1312,-7.1312,-7.1312,-7.1312,-7.1312,-7.1312,-7.1312,-7.1312,-7.1312,-7.1312,-7.1312,-7.1312,-7.1312,-7.1312,-7.1312,-7.1312,-7.1312,-7.1312,-7.0906,-7.0161,-6.9586,-6.8944,-6.8132,-6.759,-6.7286,-6.7049,-6.6762,-6.672,-6.6475,-6.5783,-6.5101,-6.4667,-6.3254,-6.2578,-6.2409,-6.2347,-6.2347,-6.2313,-6.2212,-6.2178,-6.2313,-6.2212,-6.2274,-6.2201,-6.2043,-6.1957,-6.1743,-6.0979,-6.0071,-5.9365,-5.8534,-5.7707,-5.7113,-5.7018,-5.7069,-5.7116,-5.6905,-5.6146,-5.5272,-5.455,-5.3903,-5.3317,-5.3331,-5.3067,-5.2933,-5.2978,-5.3174,-5.3283,-5.3324,-5.3503,-5.3713,-5.3892,-5.3862,-5.3773,-5.3653,-5.3473,-5.3114,-5.2785,-5.2336,-5.1858,-5.1379,-5.1229,-5.1229,-5.1229,-5.1229,-5.105,-5.0734,-5.0554,-5.0435,-5.0092,-4.9673,-4.9719,-4.9972,-4.9793,-4.9583,-4.9643,-4.9464,-7.9634,-7.9025,-7.8145,-7.7401,-7.6826,-7.6048,-7.5676,-7.5676,-7.5676,-7.5337,-7.4762,-7.4052,-7.3341,-7.2631,-7.1954,-7.1447,-7.1312,-7.1312,-7.1312,-7.1312,-7.1312,-7.1312,-7.1312,-7.1312,-7.1312,-7.1312,-7.1312,-7.1312,-7.1312,-7.1312,-7.1312,-7.1312,-7.1312,-7.1312,-7.1312,-7.1278,-7.0939,-7.0297,-6.9992,-6.9553,-6.8977,-6.8562,-6.8156,-6.7649,-6.6938,-6.6464,-6.6134,-6.5478,-6.5042,-6.4657,-6.3698,-6.2771,-6.2312,-6.2263,-6.2341,-6.2341,-6.2341,-6.2381,-6.2341,-6.2189,-6.2076,-6.2037,-6.187,-6.1709,-6.148,-6.0669,-5.9919,-5.926,-5.8486,-5.7756,-5.7312,-5.7022,-5.698,-5.6869,-5.6328,-5.5632,-5.5152,-5.4892,-5.4527,-5.4206,-5.3847,-5.3476,-5.3381,-5.329,-5.3552,-5.3862,-5.4072,-5.4251,-5.4401,-5.4551,-5.4461,-5.4311,-5.4341,-5.4192,-5.3803,-5.3294,-5.2516,-5.2007,-5.1528,-5.1229,-5.1229,-5.1229,-5.1229,-5.1199,-5.1092,-5.0913,-5.0764,-5.087,-5.0541,-5.0661,-5.0661,-5.0511,-5.0361,-5.0212,-4.9733,-7.9972,-7.9498,-7.845,-7.7773,-7.7266,-7.6183,-7.5676,-7.5608,-7.5303,-7.4999,-7.4424,-7.351,-7.2766,-7.236,-7.1684,-7.1312,-7.1312,-7.1312,-7.1312,-7.1312,-7.1312,-7.1312,-7.1312,-7.1312,-7.1312,-7.1312,-7.1312,-7.1312,-7.1312,-7.1312,-7.1312,-7.1312,-7.1312,-7.1312,-7.1312,-7.1312,-7.1142,-7.0737,-7.0331,-6.9958,-6.9654,-6.9117,-6.8715,-6.8055,-6.7198,-6.6621,-6.6466,-6.5536,-6.4916,-6.4451,-6.3839,-6.3116,-6.2434,-6.2192,-6.2064,-6.2104,-6.2104,-6.2064,-6.1991,-6.1951,-6.183,-6.1716,-6.1547,-6.126,-6.0936,-6.0322,-5.9539,-5.882,-5.8163,-5.7764,-5.7416,-5.6899,-5.6771,-5.6937,-5.6326,-5.5764,-5.553,-5.5099,-5.4512,-5.4321,-5.4074,-5.4014,-5.3879,-5.3901,-5.4151,-5.4581,-5.461,-5.476,-5.479,-5.494,-5.4999,-5.494,-5.5029,-5.491,-5.4521,-5.3803,-5.2755,-5.2157,-5.1558,-5.1319,-5.1229,-5.1229,-5.1229,-5.1199,-5.1199,-5.1199,-5.1079,-5.1229,-5.1229,-5.1079,-5.102,-5.1169,-5.099,-5.0451,-4.9883,-8.031,-8.0073,-7.8585,-7.801,-7.7739,-7.6352,-7.5608,-7.5405,-7.4897,-7.4492,-7.4086,-7.2902,-7.2394,-7.209,-7.1616,-7.1345,-7.1312,-7.1312,-7.1312,-7.1312,-7.1312,-7.1312,-7.1312,-7.1312,-7.1312,-7.1312,-7.1312,-7.1312,-7.1312,-7.1312,-7.1312,-7.1312,-7.1312,-7.1312,-7.1312,-7.1312,-7.1278,-7.1109,-7.0737,-7.0466,-7.0286,-6.9602,-6.9032,-6.8271,-6.7445,-6.6721,-6.6353,-6.5585,-6.4766,-6.4031,-6.3833,-6.3419,-6.2846,-6.2356,-6.1963,-6.2037,-6.2078,-6.2051,-6.2018,-6.1762,-6.1506,-6.1301,-6.1011,-6.0708,-6.0249,-5.9849,-5.9197,-5.8421,-5.7764,-5.7539,-5.713,-5.6715,-5.6731,-5.6931,-5.6541,-5.6262,-5.5981,-5.5158,-5.4473,-5.4298,-5.4466,-5.451,-5.459,-5.461,-5.494,-5.5209,-5.5209,-5.5209,-5.5209,-5.5209,-5.5209,-5.5209,-5.5209,-5.491,-5.4521,-5.4251,-5.3234,-5.2426,-5.1768,-5.1498,-5.1349,-5.1229,-5.1229,-5.1229,-5.1229,-5.1229,-5.1229,-5.1229,-5.1229,-5.1229,-5.1229,-5.1229,-5.096,-5.0571,-4.9972,-8.075,-8.0073,-7.8585,-7.801,-7.7739,-7.6352,-7.5371,-7.483,-7.4661,-7.3883,-7.2834,-7.2496,-7.2022,-7.1616,-7.1413,-7.1312,-7.1312,-7.1312,-7.1312,-7.1312,-7.1312,-7.1312,-7.1312,-7.1312,-7.1312,-7.1312,-7.1312,-7.1312,-7.1312,-7.1312,-7.1312,-7.1312,-7.1312,-7.1312,-7.1312,-7.1312,-7.1312,-7.1312,-7.1109,-7.1007,-7.0895,-7.049,-6.9666,-6.8692,-6.7672,-6.6705,-6.5853,-6.531,-6.4699,-6.3984,-6.3334,-6.2991,-6.2885,-6.2957,-6.3055,-6.2915,-6.2674,-6.2482,-6.2448,-6.1775,-6.1227,-6.0802,-6.0594,-6.0,-5.9516,-5.9184,-5.8714,-5.8007,-5.7402,-5.7104,-5.6803,-5.6423,-5.637,-5.636,-5.6157,-5.5841,-5.5731,-5.548,-5.52,-5.523,-5.52,-5.504,-5.502,-5.4999,-5.5089,-5.5209,-5.5209,-5.5209,-5.5209,-5.5209,-5.5209,-5.5209,-5.5209,-5.482,-5.4371,-5.4221,-5.3683,-5.2845,-5.2217,-5.1828,-5.1618,-5.1319,-5.1229,-5.1229,-5.1229,-5.1229,-5.1229,-5.1229,-5.1229,-5.1229,-5.1229,-5.1229,-5.09,-5.0511,-4.9763,-8.0851,-8.0073,-7.8619,-7.801,-7.7705,-7.6352,-7.5303,-7.4627,-7.4187,-7.3409,-7.2529,-7.2022,-7.165,-7.1379,-7.1312,-7.1312,-7.1312,-7.1312,-7.1312,-7.1312,-7.1312,-7.1312,-7.1312,-7.1312,-7.1312,-7.1312,-7.1312,-7.1312,-7.1312,-7.1312,-7.1312,-7.1312,-7.1312,-7.1312,-7.1312,-7.1312,-7.1312,-7.1312,-7.1312,-7.1312,-7.1222,-7.0858,-6.991,-6.8932,-6.7766,-6.6777,-6.5901,-6.4738,-6.419,-6.3612,-6.3132,-6.286,-6.2998,-6.3297,-6.3528,-6.3122,-6.2951,-6.287,-6.2837,-6.225,-6.1893,-6.1349,-6.0854,-6.0393,-5.9734,-5.9158,-5.8279,-5.7351,-5.6827,-5.6488,-5.636,-5.6127,-5.5948,-5.591,-5.5902,-5.5912,-5.5951,-5.6089,-5.62,-5.6161,-5.564,-5.5349,-5.517,-5.5149,-5.5179,-5.5209,-5.5239,-5.5269,-5.5329,-5.5388,-5.5448,-5.5388,-5.5418,-5.5149,-5.473,-5.4431,-5.4162,-5.3354,-5.2755,-5.2396,-5.1977,-5.1738,-5.1439,-5.1259,-5.1229,-5.1229,-5.1229,-5.1229,-5.1229,-5.1229,-5.1229,-5.1169,-5.087,-5.0421,-4.9703,-8.0784,-7.987,-7.8551,-7.7908,-7.7536,-7.6115,-7.5033,-7.4322,-7.3578,-7.2834,-7.2157,-7.1616,-7.1345,-7.1312,-7.1312,-7.1312,-7.1312,-7.1312,-7.1312,-7.1312,-7.1312,-7.1312,-7.1312,-7.1312,-7.1312,-7.1312,-7.1312,-7.1312,-7.1312,-7.1312,-7.1312,-7.1312,-7.1312,-7.1312,-7.1312,-7.1312,-7.1312,-7.1312,-7.1312,-7.1267,-7.0961,-7.0502,-6.9798,-6.8994,-6.7849,-6.6946,-6.5975,-6.4938,-6.4133,-6.3621,-6.3196,-6.2932,-6.3096,-6.3533,-6.3501,-6.3028,-6.3045,-6.3111,-6.3089,-6.2727,-6.2222,-6.1575,-6.1313,-6.0771,-5.9979,-5.8851,-5.7943,-5.6812,-5.6503,-5.6445,-5.6405,-5.6083,-5.5983,-5.6022,-5.6281,-5.6428,-5.6517,-5.6615,-5.6795,-5.6577,-5.5957,-5.5837,-5.5897,-5.5867,-5.6017,-5.6017,-5.6047,-5.6017,-5.6047,-5.5927,-5.5927,-5.5777,-5.5688,-5.5538,-5.5209,-5.482,-5.4491,-5.3952,-5.3473,-5.3144,-5.2665,-5.2247,-5.1887,-5.1528,-5.1229,-5.1229,-5.1229,-5.1229,-5.1229,-5.1229,-5.1229,-5.1139,-5.099,-5.0481,-4.9763,-8.0479,-7.916,-7.8348,-7.7638,-7.686,-7.5473,-7.4356,-7.3612,-7.2935,-7.2124,-7.1515,-7.1379,-7.1312,-7.1312,-7.1312,-7.1312,-7.1312,-7.1312,-7.1312,-7.1312,-7.1312,-7.1312,-7.1312,-7.1312,-7.1312,-7.1267,-7.1267,-7.1312,-7.1267,-7.1267,-7.1267,-7.1222,-7.1222,-7.1267,-7.1222,-7.1222,-7.1312,-7.1312,-7.1312,-7.1052,-7.0654,-7.0316,-6.9655,-6.8765,-6.7989,-6.7074,-6.596,-6.5144,-6.4569,-6.4003,-6.3323,-6.3262,-6.3617,-6.337,-6.3707,-6.3849,-6.3961,-6.388,-6.3693,-6.3141,-6.2398,-6.1837,-6.1088,-6.0168,-5.9438,-5.8743,-5.7973,-5.7493,-5.7239,-5.7067,-5.6874,-5.6869,-5.6877,-5.6847,-5.6877,-5.6974,-5.7064,-5.7393,-5.7543,-5.7483,-5.7064,-5.6974,-5.6974,-5.6915,-5.6915,-5.6885,-5.6825,-5.6765,-5.6675,-5.6526,-5.6466,-5.6346,-5.6196,-5.6077,-5.5867,-5.5448,-5.5029,-5.4551,-5.4192,-5.3832,-5.3294,-5.2785,-5.2306,-5.1947,-5.1558,-5.1229,-5.1229,-5.1229,-5.1229,-5.1229,-5.1229,-5.1229,-5.1199,-5.0571,-4.9853,-8.0073,-7.9058,-7.828,-7.757,-7.6792,-7.5676,-7.4559,-7.3578,-7.3138,-7.236,-7.1481,-7.1312,-7.1312,-7.1312,-7.1312,-7.1312,-7.1312,-7.1312,-7.1312,-7.1312,-7.1312,-7.1312,-7.1312,-7.1312,-7.1312,-7.1267,-7.1176,-7.1086,-7.1052,-7.1007,-7.1007,-7.087,-7.087,-7.0916,-7.1086,-7.1086,-7.1176,-7.1267,-7.1267,-7.1007,-7.0549,-7.0129,-6.9559,-6.8649,-6.7949,-6.7093,-6.6269,-6.5408,-6.4925,-6.4424,-6.3994,-6.3956,-6.4202,-6.422,-6.4479,-6.476,-6.4728,-6.4626,-6.4527,-6.3916,-6.3218,-6.2614,-6.1822,-6.0931,-5.9672,-5.8807,-5.8213,-5.7622,-5.7385,-5.7258,-5.7206,-5.7094,-5.7094,-5.7184,-5.7513,-5.7685,-5.7835,-5.8141,-5.8351,-5.8261,-5.8171,-5.8022,-5.7782,-5.7513,-5.7363,-5.7274,-5.7214,-5.7154,-5.7034,-5.6915,-5.6915,-5.6944,-5.6825,-5.6705,-5.6466,-5.6166,-5.5837,-5.5388,-5.497,-5.4521,-5.3862,-5.3324,-5.2845,-5.2187,-5.1648,-5.1379,-5.1289,-5.1229,-5.1229,-5.1229,-5.1229,-5.1229,-5.1169,-5.0661,-4.9972,-7.9498,-7.8788,-7.8213,-7.7468,-7.6555,-7.5777,-7.4661,-7.3544,-7.324,-7.2462,-7.1582,-7.1312,-7.1312,-7.1312,-7.1312,-7.1312,-7.1312,-7.1312,-7.1312,-7.1312,-7.1312,-7.1312,-7.1312,-7.1312,-7.1267,-7.1222,-7.1041,-7.0779,-7.0641,-7.0595,-7.0549,-7.0469,-7.0561,-7.0733,-7.087,-7.0961,-7.1052,-7.1267,-7.1312,-7.1007,-7.0515,-7.0129,-6.9478,-6.8748,-6.8,-6.7368,-6.6753,-6.6122,-6.5513,-6.5356,-6.51,-6.5078,-6.5286,-6.5367,-6.5443,-6.5624,-6.5469,-6.5321,-6.5099,-6.4675,-6.4286,-6.358,-6.258,-6.1208,-6.0116,-5.9457,-5.9105,-5.842,-5.8098,-5.7881,-5.7708,-5.7715,-5.7782,-5.7962,-5.8165,-5.8314,-5.8518,-5.8834,-5.9014,-5.8871,-5.8841,-5.8883,-5.8584,-5.8052,-5.7812,-5.7693,-5.7603,-5.7543,-5.7543,-5.7513,-5.7633,-5.7752,-5.7483,-5.7393,-5.7184,-5.6915,-5.6585,-5.6188,-5.5688,-5.5179,-5.4491,-5.3862,-5.3324,-5.2606,-5.1917,-5.1498,-5.1349,-5.1289,-5.1229,-5.1229,-5.1229,-5.1229,-5.105,-5.0554,-5.0166,-7.8754,-7.8044,-7.7976,-7.713,-7.5777,-7.4999,-7.4255,-7.3544,-7.2834,-7.2124,-7.1379,-7.1312,-7.1312,-7.1312,-7.1312,-7.1312,-7.1312,-7.1312,-7.1312,-7.1312,-7.1312,-7.1267,-7.1222,-7.1222,-7.1131,-7.0961,-7.0779,-7.041,-7.0068,-7.0121,-7.0243,-7.0423,-7.0316,-7.0595,-7.0913,-7.1127,-7.1277,-7.147,-7.1481,-7.1153,-7.0675,-7.0223,-6.9798,-6.9042,-6.8451,-6.7899,-6.742,-6.695,-6.6783,-6.6699,-6.6435,-6.6419,-6.6641,-6.6582,-6.6508,-6.6489,-6.6298,-6.6085,-6.57,-6.495,-6.4146,-6.3309,-6.2383,-6.1348,-6.0599,-6.018,-5.9887,-5.9599,-5.9176,-5.9084,-5.9068,-5.9135,-5.8811,-5.8727,-5.8864,-5.9084,-5.9228,-5.9478,-5.9629,-5.9499,-5.9422,-5.9315,-5.9207,-5.8614,-5.8441,-5.8351,-5.8381,-5.8321,-5.8471,-5.8501,-5.865,-5.865,-5.8291,-5.8082,-5.7962,-5.7603,-5.7064,-5.6555,-5.6077,-5.5628,-5.5089,-5.4461,-5.3683,-5.3234,-5.2606,-5.2007,-5.1528,-5.1738,-5.1738,-5.1379,-5.1229,-5.1229,-5.1139,-5.0764,-5.0495,-7.8686,-7.7942,-7.7536,-7.669,-7.5676,-7.5405,-7.4864,-7.4119,-7.3375,-7.236,-7.1312,-7.1312,-7.1312,-7.1312,-7.1312,-7.1312,-7.1312,-7.1312,-7.1267,-7.1222,-7.1176,-7.1052,-7.1007,-7.0904,-7.0779,-7.0628,-7.041,-7.0143,-6.9846,-6.9892,-7.0041,-7.0169,-7.0048,-7.0353,-7.079,-7.166,-7.2018,-7.1897,-7.1841,-7.1604,-7.0812,-7.0363,-6.9988,-6.9526,-6.8748,-6.8401,-6.8101,-6.7899,-6.7746,-6.7733,-6.7677,-6.783,-6.7948,-6.767,-6.7593,-6.7479,-6.7229,-6.6804,-6.6121,-6.518,-6.4193,-6.3164,-6.2333,-6.1714,-6.1155,-6.0721,-6.0407,-6.0219,-5.9986,-5.9773,-5.9529,-5.9583,-5.9576,-5.9529,-5.9643,-5.9834,-5.9993,-6.0183,-6.0039,-5.9902,-5.9636,-5.9476,-5.9315,-5.9147,-5.9093,-5.9039,-5.9069,-5.9099,-5.9099,-5.9099,-5.9099,-5.9099,-5.874,-5.865,-5.853,-5.8052,-5.7483,-5.6974,-5.6496,-5.5957,-5.5448,-5.464,-5.3952,-5.3593,-5.3294,-5.2755,-5.2456,-5.2456,-5.2217,-5.1768,-5.1439,-5.1229,-5.1079,-5.0913,-5.0794,-7.8348,-7.7604,-7.686,-7.6217,-7.5709,-7.5676,-7.5168,-7.4289,-7.3713,-7.2665,-7.1345,-7.1312,-7.1312,-7.1312,-7.1312,-7.1312,-7.1267,-7.1222,-7.1176,-7.1086,-7.0916,-7.0779,-7.0708,-7.0703,-7.0764,-7.0509,-7.0361,-7.0237,-6.9961,-7.0056,-6.9935,-6.9838,-6.9844,-7.0355,-7.1301,-7.2343,-7.286,-7.2518,-7.2281,-7.1886,-7.0971,-7.0595,-7.0316,-7.0035,-6.943,-6.9188,-6.8994,-6.8797,-6.855,-6.86,-6.8666,-6.8765,-6.8797,-6.8728,-6.8653,-6.8465,-6.8115,-6.7566,-6.6713,-6.5364,-6.4132,-6.3148,-6.258,-6.2066,-6.1563,-6.1103,-6.0794,-6.0638,-6.0355,-6.01,-5.9925,-6.0243,-6.0486,-6.0499,-6.0631,-6.076,-6.066,-6.0735,-6.0499,-6.0302,-5.9955,-5.9636,-5.9369,-5.9261,-5.9153,-5.9099,-5.9099,-5.9099,-5.9099,-5.9099,-5.9099,-5.9099,-5.9039,-5.9039,-5.9039,-5.859,-5.8112,-5.7543,-5.7004,-5.6316,-5.5688,-5.494,-5.4341,-5.3982,-5.3713,-5.3443,-5.3174,-5.2905,-5.2516,-5.2067,-5.1798,-5.1558,-5.1199,-5.1079,-5.1139,-7.7604,-7.686,-7.6082,-7.5743,-7.5608,-7.5676,-7.4897,-7.3815,-7.3443,-7.2597,-7.1379,-7.1312,-7.1312,-7.1312,-7.1312,-7.1267,-7.1176,-7.1007,-7.0916,-7.0825,-7.0729,-7.0476,-7.0509,-7.0667,-7.0777,-7.0634,-7.0468,-7.0294,-7.0131,-7.0086,-6.9837,-6.9954,-7.0306,-7.0989,-7.1869,-7.2677,-7.286,-7.2518,-7.2563,-7.1953,-7.1265,-7.0971,-7.0641,-7.0423,-7.0096,-6.9941,-6.9751,-6.9511,-6.9285,-6.9237,-6.927,-6.9285,-6.922,-6.9412,-6.932,-6.8964,-6.8771,-6.8261,-6.7473,-6.5521,-6.4283,-6.3533,-6.314,-6.2455,-6.201,-6.1574,-6.1258,-6.1144,-6.0914,-6.0919,-6.1004,-6.1203,-6.1423,-6.1538,-6.1637,-6.1779,-6.1625,-6.1637,-6.1492,-6.1037,-6.0402,-5.991,-5.956,-5.9261,-5.9153,-5.9099,-5.9099,-5.9099,-5.9099,-5.9099,-5.9099,-5.9099,-5.9099,-5.9099,-5.9099,-5.9099,-5.874,-5.8171,-5.7513,-5.6825,-5.6196,-5.5538,-5.497,-5.4461,-5.4221,-5.4102,-5.3683,-5.3283,-5.3084,-5.2935,-5.2306,-5.1947,-5.1528,-5.1229,-5.1229,-7.713,-7.6826,-7.6048,-7.5405,-7.5033,-7.4965,-7.4661,-7.4119,-7.3206,-7.2191,-7.1447,-7.1312,-7.1312,-7.1312,-7.1267,-7.1176,-7.1007,-7.0961,-7.0825,-7.0476,-7.0529,-7.038,-7.0353,-7.0519,-7.0662,-7.0373,-7.0222,-7.0039,-6.9668,-6.9862,-7.0011,-7.0128,-7.1132,-7.227,-7.2995,-7.3715,-7.42,-7.3823,-7.3409,-7.272,-7.1919,-7.131,-7.087,-7.0733,-7.0502,-7.0363,-7.0256,-6.9941,-6.9798,-6.9655,-6.9607,-6.9511,-6.9382,-6.9478,-6.9331,-6.9067,-6.8842,-6.8402,-6.7474,-6.6079,-6.5304,-6.4574,-6.3811,-6.3091,-6.2504,-6.23,-6.1991,-6.1772,-6.1726,-6.1852,-6.1997,-6.2219,-6.2373,-6.2449,-6.2562,-6.2858,-6.2922,-6.2965,-6.2788,-6.1989,-6.1313,-6.0266,-5.9633,-5.9441,-5.9333,-5.9219,-5.9219,-5.9129,-5.9129,-5.9099,-5.9099,-5.9099,-5.9099,-5.9099,-5.9099,-5.9099,-5.8919,-5.8351,-5.7842,-5.7334,-5.6705,-5.6137,-5.5658,-5.5179,-5.497,-5.476,-5.4491,-5.4251,-5.4162,-5.3892,-5.3144,-5.2486,-5.2067,-5.1588,-5.1229,-7.6589,-7.6048,-7.554,-7.4897,-7.4322,-7.4492,-7.4356,-7.3713,-7.2563,-7.1751,-7.1379,-7.1312,-7.1222,-7.1143,-7.1098,-7.0916,-7.0687,-7.0549,-7.049,-7.0163,-7.0221,-7.0058,-7.0029,-7.0306,-7.0369,-7.0097,-6.9947,-6.975,-6.9822,-6.9951,-7.0165,-7.0818,-7.2004,-7.284,-7.3608,-7.4386,-7.4757,-7.4317,-7.3781,-7.3071,-7.2315,-7.1649,-7.1041,-7.087,-7.0733,-7.0515,-7.0316,-7.0129,-6.9988,-6.9798,-6.9607,-6.9415,-6.9188,-6.9091,-6.8994,-6.8797,-6.8535,-6.8141,-6.7456,-6.6699,-6.5993,-6.5708,-6.4761,-6.3798,-6.3172,-6.283,-6.2569,-6.2461,-6.2618,-6.2703,-6.2724,-6.2971,-6.3171,-6.3279,-6.3601,-6.3867,-6.3953,-6.3996,-6.3526,-6.2724,-6.1844,-6.0782,-5.9825,-5.9597,-5.9488,-5.9398,-5.9308,-5.9279,-5.9249,-5.9279,-5.9249,-5.9189,-5.9159,-5.9159,-5.9129,-5.9099,-5.889,-5.853,-5.8141,-5.7752,-5.7393,-5.6855,-5.6346,-5.5987,-5.5927,-5.5807,-5.5508,-5.5269,-5.491,-5.4431,-5.3803,-5.3174,-5.2636,-5.2127,-5.1588,-7.5946,-7.4695,-7.4559,-7.4153,-7.3646,-7.4018,-7.3578,-7.236,-7.165,-7.1345,-7.1312,-7.1267,-7.1143,-7.0961,-7.087,-7.0595,-7.0276,-7.0007,-6.9843,-6.9894,-6.9903,-6.9646,-6.9723,-7.0064,-7.0058,-6.9904,-6.979,-6.9747,-7.0124,-7.0055,-7.0399,-7.1186,-7.2144,-7.3135,-7.3955,-7.4571,-7.4892,-7.4654,-7.395,-7.3228,-7.2539,-7.1661,-7.1108,-7.087,-7.0733,-7.0549,-7.027,-6.9955,-6.9751,-6.9511,-6.927,-6.8896,-6.8649,-6.855,-6.8401,-6.8151,-6.7848,-6.7682,-6.7414,-6.6687,-6.6354,-6.5891,-6.5082,-6.4319,-6.3672,-6.3335,-6.3016,-6.281,-6.2785,-6.3036,-6.3281,-6.3574,-6.3892,-6.422,-6.4599,-6.4773,-6.4798,-6.458,-6.4047,-6.326,-6.2357,-6.1346,-6.0431,-6.0086,-6.0027,-5.9967,-5.9937,-5.9907,-5.9847,-5.9697,-5.9638,-5.9368,-5.9308,-5.9219,-5.9189,-5.9129,-5.9039,-5.877,-5.853,-5.8171,-5.7842,-5.7483,-5.7034,-5.6765,-5.6944,-5.6795,-5.6286,-5.5807,-5.5359,-5.485,-5.4461,-5.3892,-5.3354,-5.2695,-5.2217,-7.4695,-7.3815,-7.3815,-7.3375,-7.2732,-7.2394,-7.1988,-7.1616,-7.1379,-7.1312,-7.1312,-7.1098,-7.0916,-7.087,-7.0582,-7.0129,-6.9868,-6.973,-6.9332,-6.9394,-6.9656,-6.9616,-6.9635,-6.9689,-6.9665,-6.9537,-6.9406,-6.9414,-6.9499,-6.9703,-7.0694,-7.1743,-7.2422,-7.3337,-7.4105,-7.4821,-7.506,-7.4911,-7.4107,-7.3371,-7.2603,-7.1715,-7.1094,-7.0687,-7.0456,-7.027,-6.9941,-6.943,-6.914,-6.8896,-6.86,-6.8251,-6.7797,-6.7695,-6.7593,-6.7109,-6.6953,-6.6849,-6.6575,-6.6396,-6.6023,-6.5569,-6.4909,-6.446,-6.3935,-6.3587,-6.337,-6.3134,-6.3152,-6.3432,-6.3584,-6.3817,-6.4187,-6.4542,-6.4925,-6.5079,-6.5139,-6.5045,-6.4457,-6.3533,-6.2616,-6.1926,-6.1036,-6.0805,-6.0745,-6.0655,-6.0595,-6.0565,-6.0475,-6.0326,-6.0116,-5.9877,-5.9757,-5.9727,-5.9308,-5.9189,-5.9129,-5.9039,-5.88,-5.853,-5.8231,-5.7902,-5.7573,-5.7423,-5.7423,-5.7214,-5.6915,-5.6406,-5.5897,-5.5658,-5.5299,-5.467,-5.4042,-5.3384,-5.2905,-7.3713,-7.3071,-7.3037,-7.2631,-7.1954,-7.1345,-7.1143,-7.1143,-7.1143,-7.1143,-7.1131,-7.087,-7.0641,-7.041,-7.0035,-6.9511,-6.8813,-6.9033,-6.8956,-6.8861,-6.9364,-6.9318,-6.9257,-6.9135,-6.9,-6.8889,-6.8772,-6.8772,-6.9065,-6.9818,-7.0838,-7.1743,-7.2497,-7.3441,-7.4155,-7.4672,-7.5018,-7.4873,-7.4377,-7.3588,-7.272,-7.1807,-7.1017,-7.0336,-7.0054,-6.9769,-6.9351,-6.8813,-6.8384,-6.8083,-6.7797,-6.7388,-6.6869,-6.6712,-6.6501,-6.6108,-6.6108,-6.6076,-6.5938,-6.5669,-6.532,-6.4881,-6.4579,-6.4198,-6.3984,-6.369,-6.3523,-6.336,-6.3577,-6.3793,-6.3849,-6.3963,-6.4326,-6.4715,-6.4991,-6.5266,-6.5344,-6.5398,-6.4659,-6.3745,-6.294,-6.2246,-6.1755,-6.1609,-6.1373,-6.1134,-6.1194,-6.1403,-6.1224,-6.0954,-6.0775,-6.0535,-6.0416,-6.0326,-5.9847,-5.9458,-5.9428,-5.9338,-5.9039,-5.88,-5.853,-5.8441,-5.8291,-5.8022,-5.7752,-5.7603,-5.7513,-5.6944,-5.6466,-5.6256,-5.5957,-5.5359,-5.473,-5.4072,-5.3713,-7.2969,-7.2326,-7.2293,-7.1909,-7.1255,-7.0961,-7.087,-7.0825,-7.0779,-7.0825,-7.0779,-7.0595,-7.0176,-6.9798,-6.9334,-6.8649,-6.824,-6.8304,-6.834,-6.8155,-6.8689,-6.8825,-6.8701,-6.8535,-6.8417,-6.8238,-6.8298,-6.8595,-6.8976,-6.9959,-7.1116,-7.1689,-7.2656,-7.3544,-7.4239,-7.4622,-7.4821,-7.4703,-7.4314,-7.3677,-7.2845,-7.198,-7.109,-7.0148,-6.9711,-6.9337,-6.8711,-6.8073,-6.7445,-6.7237,-6.6891,-6.6532,-6.5915,-6.5538,-6.5297,-6.5242,-6.5187,-6.5297,-6.5211,-6.4991,-6.4771,-6.4468,-6.4244,-6.3876,-6.3641,-6.3694,-6.3494,-6.3324,-6.3478,-6.3481,-6.3538,-6.3709,-6.3963,-6.43,-6.4579,-6.4771,-6.4881,-6.4826,-6.429,-6.3546,-6.326,-6.2592,-6.2385,-6.2181,-6.2121,-6.1732,-6.1762,-6.2121,-6.2032,-6.1702,-6.1433,-6.1224,-6.1134,-6.0954,-6.0475,-6.0116,-5.9907,-5.9697,-5.9428,-5.9279,-5.9189,-5.9129,-5.9069,-5.871,-5.8321,-5.8261,-5.8082,-5.7573,-5.7094,-5.6795,-5.6436,-5.5987,-5.5388,-5.482,-5.4491,-7.2225,-7.1537,-7.1322,-7.1175,-7.0961,-7.0699,-7.0502,-7.0363,-7.0129,-7.0176,-7.027,-7.0035,-6.9622,-6.9091,-6.8501,-6.7797,-6.7385,-6.7584,-6.7534,-6.7626,-6.7966,-6.8316,-6.8208,-6.7999,-6.7819,-6.797,-6.8179,-6.8772,-6.9729,-7.075,-7.1689,-7.2603,-7.3337,-7.3953,-7.4389,-7.4672,-7.4688,-7.4406,-7.4173,-7.3708,-7.3011,-7.2199,-7.1374,-7.0616,-7.0131,-6.9626,-6.9058,-6.8543,-6.7755,-6.7072,-6.6597,-6.5847,-6.4857,-6.4524,-6.4356,-6.43,-6.4387,-6.4468,-6.4468,-6.4356,-6.4188,-6.3906,-6.3679,-6.3481,-6.3394,-6.3508,-6.3508,-6.3309,-6.3194,-6.3252,-6.3252,-6.3424,-6.3595,-6.3849,-6.4075,-6.4244,-6.4468,-6.4132,-6.3793,-6.3538,-6.3309,-6.3104,-6.2897,-6.278,-6.275,-6.272,-6.272,-6.2839,-6.275,-6.254,-6.2181,-6.1972,-6.1882,-6.1642,-6.1134,-6.0805,-6.0595,-6.0386,-6.0146,-5.9997,-5.9817,-5.9428,-5.9099,-5.9099,-5.8919,-5.877,-5.856,-5.8261,-5.7812,-5.7393,-5.7064,-5.6645,-5.6256,-5.5718,-5.5388,-7.1684,-7.1267,-7.1007,-7.0779,-7.0549,-7.0316,-7.0002,-6.9655,-6.9382,-6.914,-6.9042,-6.9091,-6.8896,-6.8351,-6.7695,-6.6953,-6.6573,-6.7025,-6.6843,-6.6912,-6.7417,-6.7787,-6.7729,-6.7608,-6.7669,-6.7789,-6.8476,-6.9325,-7.0582,-7.1415,-7.223,-7.3129,-7.38,-7.4188,-7.4523,-7.4622,-7.4473,-7.3986,-7.3986,-7.3569,-7.3039,-7.2378,-7.1519,-7.081,-7.0131,-6.9691,-6.8933,-6.8335,-6.7509,-6.6635,-6.6083,-6.5136,-6.4284,-6.3906,-6.3823,-6.3793,-6.3823,-6.3823,-6.388,-6.3793,-6.3709,-6.3538,-6.3367,-6.3252,-6.3194,-6.3309,-6.3309,-6.3137,-6.3137,-6.3137,-6.3137,-6.3252,-6.3424,-6.3622,-6.3736,-6.3849,-6.3906,-6.3793,-6.3508,-6.3279,-6.3194,-6.3164,-6.2959,-6.2959,-6.2929,-6.2929,-6.3049,-6.3079,-6.3137,-6.3137,-6.281,-6.263,-6.245,-6.2181,-6.1702,-6.1463,-6.1313,-6.1104,-6.0864,-6.0416,-6.0057,-5.9488,-5.9099,-5.9099,-5.9099,-5.9069,-5.886,-5.862,-5.8321,-5.7902,-5.7633,-5.7363,-5.6974,-5.6555,-5.6196,-7.13,-7.1222,-7.087,-7.0502,-7.0082,-6.9751,-6.9285,-6.8797,-6.855,-6.8,-6.7439,-6.7917,-6.7746,-6.7285,-6.6901,-6.6085,-6.5816,-6.6278,-6.6192,-6.6511,-6.7125,-6.7457,-6.7608,-6.7608,-6.7819,-6.8358,-6.9093,-7.0098,-7.1218,-7.2014,-7.2762,-7.3577,-7.3935,-7.4171,-7.4406,-7.4322,-7.407,-7.3764,-7.3577,-7.3351,-7.29,-7.247,-7.1623,-7.0752,-6.9968,-6.9435,-6.8619,-6.7897,-6.7249,-6.63,-6.5589,-6.4637,-6.3985,-6.3602,-6.3481,-6.3481,-6.3481,-6.3595,-6.3679,-6.3595,-6.3481,-6.3367,-6.3194,-6.3137,-6.3137,-6.3137,-6.3137,-6.3137,-6.3137,-6.3137,-6.3137,-6.3137,-6.3309,-6.3367,-6.3424,-6.3481,-6.3481,-6.3451,-6.3279,-6.3137,-6.3137,-6.3137,-6.3137,-6.3137,-6.3137,-6.3137,-6.3137,-6.3137,-6.3137,-6.3137,-6.2959,-6.2899,-6.2839,-6.254,-6.2241,-6.2121,-6.2002,-6.1822,-6.1523,-6.0894,-6.0296,-5.9787,-5.9368,-5.9099,-5.9099,-5.9099,-5.9099,-5.8949,-5.865,-5.8351,-5.8261,-5.8052,-5.7543,-5.7184,-5.6885,-7.1176,-7.0916,-7.0316,-6.9846,-6.9478,-6.9042,-6.8401,-6.7746,-6.7644,-6.7149,-6.647,-6.6236,-6.613,-6.5991,-6.57,-6.5373,-6.5402,-6.5775,-6.6183,-6.6492,-6.6974,-6.7245,-6.7608,-6.7879,-6.8505,-6.9267,-7.0073,-7.0886,-7.1928,-7.2709,-7.3389,-7.4054,-7.4622,-7.4672,-7.4473,-7.4322,-7.3986,-7.3628,-7.3266,-7.309,-7.288,-7.2526,-7.2261,-7.1692,-7.1228,-7.0482,-6.9753,-6.9184,-6.8181,-6.6897,-6.5432,-6.4537,-6.394,-6.3609,-6.3372,-6.3252,-6.3252,-6.3309,-6.3367,-6.3309,-6.3252,-6.3252,-6.3137,-6.3137,-6.3137,-6.3137,-6.3137,-6.3137,-6.3137,-6.3137,-6.3137,-6.3137,-6.3194,-6.3194,-6.3252,-6.3252,-6.3252,-6.3252,-6.3194,-6.3137,-6.3137,-6.3137,-6.3137,-6.3137,-6.3137,-6.3137,-6.3137,-6.3137,-6.3137,-6.3137,-6.3137,-6.3137,-6.3137,-6.3137,-6.2869,-6.275,-6.263,-6.248,-6.2121,-6.1403,-6.0775,-6.0176,-5.9787,-5.9458,-5.9189,-5.9099,-5.9099,-5.9099,-5.9039,-5.88,-5.889,-5.874,-5.8201,-5.7812,-5.7573]}]]